[[{"header":{"parameterUnit":"m.s-1","parameterCategory":1,"la1":31.0,"la2":29.5877,"lo1":-88.7671,"lo2":-86.6584,"dy":0.0162,"dx":0.0185,"nx":115,"ny":88,"refTime":"2024-06-30T12:00:00:Z","depth":0,"parameterNumber":2,"parameterNumberName":"U-component_of_WINDS"},"data":[0.0,0.0,0.0,0.0,0.0,0.0,0.0,0.0,0.0,0.0,0.0,0.0,0.0,0.0,0.0,0.0,0.0,0.0,0.0,0.0,0.0,0.0,0.0,0.0,0.0,0.0,0.0,0.0,0.0,0.0,0.0,0.0,0.0,0.0,0.0,0.0,0.0,0.0,0.0,0.0,0.0,0.0,0.0,0.0,0.0,0.0,0.0,0.0,0.0,0.0,0.0,0.0,0.0,0.0,0.0,0.0,0.0,0.0,0.0,0.0,0.0,0.0,0.0,0.0,0.0,0.0,0.0,0.0,0.0,0.0,0.0,0.0,0.0,0.0,0.0,0.0,0.0,0.0,0.0,0.0,0.0,0.0,0.0,0.0,0.0,0.0,0.0,0.0,0.0,0.0,0.0,0.0,0.0,0.0,0.0,0.0,0.0,0.0,0.0,0.0,0.0,0.0,0.0,0.0,0.0,0.0,0.0,0.0,0.0,0.0,0.0,0.0,0.0,0.0,0.0,0.0,0.0,0.0,0.0,0.0,0.0,0.0,0.0,0.0,0.0,0.0,0.0,0.0,0.0,0.0,0.0,0.0,0.0,0.0,0.0,0.0,0.0,0.0,0.0,0.0,0.0,0.0,0.0,0.0,0.0,0.0,0.0,0.0,0.0,0.0,0.0,0.0,0.0,0.0,0.0,0.0,0.0,0.0,0.0,0.0,0.0,0.0,0.0,0.0,0.0,0.0,0.0,0.0,0.0,0.0,0.0,0.0,0.0,0.0,0.0,0.0,0.0,0.0,0.0,0.0,0.0,0.0,0.0,0.0,0.0,0.0,0.0,0.0,0.0,0.0,0.0,0.0,0.0,0.0,0.0,0.0,0.0,0.0,0.0,0.0,0.0,0.0,0.0,0.0,0.0,0.0,0.0,0.0,0.0,0.0,0.0,0.0,0.0,0.0,0.0,0.0,0.0,0.0,0.0,0.0,0.0,0.0,0.0,0.0,0.0,0.0,0.0,0.0,0.0,0.0,0.0,0.0,0.0,0.0,0.0,0.0,0.0,0.0,0.0,0.0,0.0,0.0,0.0,0.0,0.0,0.0,0.0,0.0,0.0,0.0,0.0,0.0,0.0,0.0,0.0,0.0,0.0,0.0,0.0,0.0,0.0,0.0,0.0,0.0,0.0,0.0,0.0,0.0,0.0,0.0,0.0,0.0,0.0,0.0,0.0,0.0,0.0,0.0,0.0,0.0,0.0,0.0,0.0,0.0,0.0,0.0,0.0,0.0,0.0,0.0,0.0,0.0,0.0,0.0,0.0,0.0,0.0,0.0,0.0,0.0,0.0,0.0,0.0,0.0,0.0,0.0,0.0,0.0,0.0,0.0,0.0,0.0,0.0,0.0,0.0,0.0,0.0,0.0,0.0,0.0,0.0,0.0,0.0,0.0,0.0,0.0,0.0,0.0,0.0,0.0,0.0,0.0,0.0,0.0,0.0,0.0,0.0,0.0,0.0,0.0,0.0,0.0,0.0,0.0,0.0,0.0,0.0,0.0,0.0,0.0,0.0,0.0,0.0,0.0,0.0,0.0,0.0,0.0,0.0,0.0,0.0,0.0,0.0,0.0,0.0,0.0,0.0,0.0,0.0,0.0,0.0,0.0,0.0,0.0,0.0,0.0,0.0,0.0,0.0,0.0,0.0,0.0,0.0,0.0,0.0,0.0,0.0,0.0,0.0,0.0,0.0,0.0,0.0,0.0,0.0,0.0,0.0,0.0,0.0,0.0,0.0,0.0,0.0,0.0,0.0,0.0,0.0,0.0,0.0,0.0,0.0,0.0,0.0,0.0,0.0,0.0,0.0,0.0,0.0,0.0,0.0,0.0,0.0,0.0,0.0,0.0,0.0,0.0,0.0,0.0,0.0,0.0,0.0,0.0,0.0,0.0,0.0,0.0,0.0,0.0,0.0,0.0,0.0,0.0,0.0,0.0,0.0,0.0,0.0,0.0,0.0,0.0,0.0,0.0,0.0,0.0,0.0,0.0,0.0,0.0,0.0,0.0,0.0,0.0,0.0,0.0,0.0,0.0,0.0,0.0,0.0,0.0,0.0,0.0,0.0,0.0,0.0,0.0,0.0,0.0,0.0,0.0,0.0,0.0,0.0,0.0,0.0,0.0,0.0,0.0,0.0,0.0,0.0,0.0,0.0,0.0,0.0,0.0,0.0,0.0,0.0,0.0,0.0,0.0,0.0,0.0,0.0,0.0,0.0,0.0,0.0,0.0,0.0,0.0,0.0,0.0,0.0,0.0,0.0,0.0,0.0,0.0,0.0,0.0,0.0,0.0,0.0,0.0,0.0,0.0,0.0,0.0,0.0,0.0,0.0,0.0,0.0,0.0,0.0,0.0,0.0,0.0,0.0,0.0,0.0,0.0,0.0,0.0,0.0,0.0,0.0,0.0,0.0,0.0,0.0,0.0,0.0,0.0,0.0,0.0,0.0,0.0,0.0,0.0,0.0,0.0,0.0,0.0,0.0,0.0,0.0,0.0,0.0,0.0,0.0,0.0,0.0,0.0,0.0,0.0,0.0,0.0,0.0,0.0,0.0,0.0,0.0,0.0,0.0,0.0,0.0,0.0,0.0,0.0,0.0,0.0,0.0,0.0,0.0,0.0,0.0,0.0,0.0,0.0,0.0,0.0,0.0,0.0,0.0,0.0,0.0,0.0,0.0,0.0,0.0,0.0,0.0,0.0,0.0,0.0,0.0,0.0,0.0,0.0,0.0,0.0,0.0,0.0,0.0,0.0,0.0,0.0,0.0,0.0,0.0,0.0,0.0,0.0,0.0,0.0,0.0,0.0,0.0,0.0,0.0,0.0,0.0,0.0,0.0,0.0,0.0,0.0,0.0,0.0,0.0,0.0,0.0,0.0,0.0,0.0,0.0,0.0,0.0,0.0,0.0,0.0,0.0,0.0,0.0,0.0,0.0,0.0,0.0,0.0,0.0,0.0,0.0,0.0,0.0,0.0,0.0,0.0,0.0,0.0,0.0,0.0,0.0,0.0,0.0,0.0,0.0,0.0,0.0,0.0,0.0,0.0,0.0,0.0,0.0,0.0,0.0,0.0,0.0,0.0,0.0,0.0,0.0,0.0,0.0,0.0,0.0,0.0,0.0,0.0,0.0,0.0,0.0,0.0,0.0,0.0,0.0,0.0,0.0,0.0,0.0,0.0,0.0,0.0,0.0,0.0,0.0,0.0,0.0,0.0,0.0,0.0,0.0,0.0,0.0,0.0,0.0,0.0,0.0,0.0,0.0,0.0,0.0,0.0,0.0,0.0,0.0,0.0,0.0,0.0,0.0,0.0,0.0,0.0,0.0,0.0,0.0,0.0,0.0,0.0,0.0,0.0,0.0,0.0,0.0,0.0,0.0,0.0,0.0,0.0,0.0,0.0,0.0,0.0,0.0,0.0,0.0,0.0,0.0,0.0,0.0,0.0,0.0,0.0,0.0,0.0,0.0,0.0,0.0,0.0,0.0,0.0,0.0,0.0,0.0,0.0,0.0,0.0,0.0,0.0,0.0,0.0,0.0,0.0,0.0,0.0,0.0,0.0,0.0,0.0,0.0,0.0,0.0,0.0,0.0,0.0,0.0,0.0,0.0,0.0,0.0,0.0,0.0,0.0,0.0,0.0,0.0,0.0,0.0,0.0,0.0,0.0,0.0,0.0,0.0,0.0,0.0,0.0,0.0,0.0,0.0,0.0,0.0,0.0,0.0,0.0,0.0,0.0,0.0,0.0,0.0,0.0,0.0,0.0,0.0,0.0,0.0,0.0,0.0,0.0,0.0,0.0,0.0,0.0,0.0,0.0,0.0,0.0,0.0,0.0,0.0,0.0,0.0,0.0,0.0,0.0,0.0,0.0,0.0,0.0,0.0,0.0,0.0,0.0,0.0,0.0,0.0,0.0,0.0,0.0,0.0,0.0,0.0,0.0,0.0,0.0,0.0,0.0,0.0,0.0,0.0,0.0,0.0,0.0,0.0,0.0,0.0,0.0,0.0,0.0,0.0,0.0,0.0,0.0,0.0,0.0,0.0,0.0,0.0,0.0,0.0,0.0,0.0,0.0,0.0,0.0,0.0,0.0,0.0,0.0,0.0,0.0,0.0,0.0,0.0,0.0,0.0,0.0,0.0,0.0,0.0,0.0,0.0,0.0,0.0,0.0,0.0,0.0,0.0,0.0,0.0,0.0,0.0,0.0,0.0,0.0,0.0,0.0,0.0,0.0,0.0,0.0,1.8717,0.0,0.0,0.0,0.0,0.0,0.0,0.0,0.0,0.0,0.0,0.0,0.0,0.0,0.0,0.0,0.0,0.0,0.0,0.0,0.0,0.0,0.0,0.0,0.0,0.0,0.0,0.0,0.0,0.0,0.0,0.0,0.0,0.0,0.0,0.0,0.0,0.0,0.0,0.0,0.0,0.0,0.0,0.0,0.0,0.0,0.0,0.0,0.0,0.0,0.0,0.0,0.0,0.0,0.0,0.0,0.0,0.0,0.0,0.0,0.0,0.0,0.0,0.0,0.0,0.0,0.0,0.0,0.0,0.0,0.0,0.0,0.0,0.0,0.0,0.0,0.0,0.0,0.0,0.0,0.0,0.0,0.0,0.0,0.0,0.0,0.0,0.0,0.0,0.0,0.0,0.0,0.0,0.0,0.0,0.0,0.0,0.0,0.0,0.0,0.0,0.0,0.0,0.0,0.0,0.0,0.0,0.0,0.0,0.0,0.0,2.1332,2.0169,1.9873,1.9317,1.8433,0.0,0.0,0.0,0.0,0.0,0.0,0.0,0.0,0.0,0.0,0.0,0.0,0.0,0.0,0.0,0.0,0.0,0.0,0.0,0.0,0.0,0.0,0.0,0.0,0.0,0.0,0.0,0.0,0.0,0.0,0.0,0.0,0.0,0.0,0.0,0.0,0.0,0.0,0.0,0.0,0.0,0.0,0.0,0.0,0.0,0.0,0.0,0.0,0.0,0.0,0.0,0.0,0.0,0.0,0.0,0.0,0.0,0.0,0.0,0.0,0.0,0.0,0.0,0.0,0.0,0.0,0.0,0.0,0.0,0.0,0.0,0.0,0.0,0.0,0.0,0.0,0.0,0.0,0.0,0.0,0.0,0.0,0.0,0.0,0.0,0.0,0.0,0.0,0.0,0.0,0.0,0.0,0.0,0.0,0.0,0.0,0.0,0.0,0.0,0.0,0.0,0.0,0.0,0.0,0.0,0.0,0.0,0.0,0.0,0.0,0.0,0.0,1.9831,1.9315,1.8313,0.0,0.0,0.0,0.0,0.0,0.0,0.0,0.0,0.0,0.0,0.0,0.0,0.0,0.0,0.0,0.0,0.0,0.0,0.0,0.0,0.0,0.0,0.0,0.0,0.0,0.0,0.0,0.0,0.0,0.0,0.0,0.0,0.0,0.0,0.0,0.0,0.0,0.0,0.0,0.0,0.0,0.0,0.0,0.0,0.0,0.0,0.0,0.0,0.0,0.0,0.0,0.0,0.0,0.0,0.0,0.0,0.0,0.0,0.0,0.0,0.0,0.0,0.0,0.0,0.0,0.0,0.0,0.0,0.0,0.0,0.0,0.0,0.0,0.0,0.0,0.0,0.0,0.0,0.0,0.0,0.0,0.0,0.0,0.0,0.0,0.0,0.0,0.0,0.0,0.0,0.0,0.0,0.0,0.0,0.0,0.0,0.0,0.0,0.0,0.0,0.0,0.0,0.0,0.0,0.0,0.0,0.0,0.0,0.0,0.0,2.0253,2.007,1.949,0.0,1.8657,0.0,0.0,0.0,0.0,0.0,0.0,0.0,0.0,0.0,0.0,0.0,0.0,0.0,0.0,0.0,0.0,0.0,0.0,0.0,0.0,0.0,0.0,0.0,0.0,0.0,0.0,0.0,0.0,0.0,0.0,0.0,0.0,0.0,0.0,0.0,0.0,0.0,0.0,0.0,0.0,0.0,0.0,0.0,0.0,0.0,0.0,0.0,0.0,0.0,0.0,0.0,0.0,0.0,0.0,0.0,0.0,0.0,0.0,0.0,0.0,0.0,0.0,0.0,0.0,0.0,0.0,0.0,0.0,0.0,0.0,0.0,0.0,0.0,0.0,0.0,0.0,0.0,0.0,0.0,0.0,0.0,0.0,0.0,0.0,0.0,0.0,0.0,0.0,0.0,0.0,0.0,0.0,0.0,0.0,0.0,0.0,0.0,0.0,0.0,0.0,0.0,0.0,0.0,0.0,0.0,0.0,0.0,0.0,0.0,0.0,0.0,1.9169,1.847,1.814,0.0,0.0,0.0,0.0,0.0,0.0,0.0,0.0,0.0,0.0,0.0,0.0,0.0,0.0,0.0,0.0,0.0,0.0,0.0,0.0,0.0,0.0,0.0,0.0,0.0,0.0,0.0,0.0,0.0,0.0,0.0,0.0,0.0,0.0,0.0,0.0,0.0,0.0,0.0,0.0,0.0,0.0,0.0,0.0,0.0,0.0,0.0,0.0,0.0,0.0,0.0,0.0,0.0,0.0,0.0,0.0,0.0,0.0,0.0,0.0,0.0,0.0,0.0,0.0,0.0,0.0,0.0,0.0,0.0,0.0,0.0,0.0,0.0,0.0,0.0,0.0,0.0,0.0,0.0,0.0,0.0,0.0,0.0,0.0,0.0,0.0,0.0,0.0,0.0,0.0,0.0,0.0,0.0,0.0,0.0,0.0,0.0,0.0,0.0,0.0,0.0,0.0,0.0,0.0,0.0,0.0,0.0,0.0,0.0,0.0,2.0094,0.0,1.854,1.7803,1.7549,1.7847,0.0,0.0,0.0,0.0,0.0,0.0,0.0,0.0,0.0,0.0,0.0,0.0,0.0,0.0,0.0,0.0,0.0,0.0,0.0,0.0,0.0,0.0,0.0,0.0,0.0,0.0,0.0,0.0,0.0,0.0,0.0,0.0,0.0,0.0,0.0,0.0,0.0,0.0,0.0,0.0,0.0,0.0,0.0,0.0,0.0,0.0,0.0,0.0,0.0,0.0,0.0,0.0,0.0,0.0,0.0,0.0,0.0,0.0,0.0,0.0,0.0,0.0,0.0,0.0,0.0,0.0,0.0,0.0,0.0,0.0,0.0,0.0,0.0,0.0,0.0,0.0,0.0,0.0,0.0,0.0,0.0,0.0,0.0,0.0,0.0,0.0,0.0,0.0,0.0,0.0,0.0,0.0,0.0,0.0,0.0,0.0,0.0,0.0,0.0,0.0,0.0,0.0,0.0,0.0,0.0,0.0,0.0,0.0,0.0,1.8841,1.8818,1.8511,1.7821,1.7587,0.0,0.0,0.0,0.0,0.0,0.0,0.0,0.0,0.0,0.0,0.0,0.0,0.0,0.0,0.0,0.0,0.0,0.0,0.0,0.0,0.0,0.0,0.0,0.0,0.0,0.0,0.0,0.0,0.0,0.0,0.0,0.0,0.0,0.0,0.0,0.0,0.0,0.0,0.0,0.0,0.0,0.0,0.0,0.0,0.0,0.0,0.0,0.0,0.0,0.0,0.0,0.0,0.0,0.0,0.0,0.0,0.0,0.0,0.0,0.0,0.0,0.0,0.0,0.0,0.0,0.0,0.0,0.0,0.0,0.0,0.0,0.0,0.0,0.0,0.0,0.0,0.0,0.0,0.0,0.0,0.0,0.0,0.0,0.0,0.0,0.0,0.0,0.0,0.0,0.0,0.0,0.0,0.0,0.0,0.0,0.0,0.0,0.0,0.0,0.0,0.0,0.0,0.0,0.0,0.0,0.0,0.0,0.0,0.0,1.7814,1.8126,1.8403,1.8448,1.8046,1.7696,0.0,0.0,0.0,0.0,0.0,0.0,0.0,0.0,0.0,0.0,0.0,0.0,0.0,0.0,0.0,0.0,0.0,0.0,0.0,0.0,0.0,0.0,0.0,0.0,0.0,0.0,0.0,0.0,0.0,0.0,0.0,0.0,0.0,0.0,0.0,0.0,0.0,0.0,0.0,0.0,0.0,0.0,0.0,0.0,0.0,0.0,0.0,0.0,0.0,0.0,0.0,0.0,0.0,0.0,0.0,0.0,0.0,0.0,0.0,0.0,0.0,0.0,0.0,0.0,0.0,0.0,0.0,0.0,0.0,0.0,0.0,0.0,0.0,0.0,0.0,0.0,0.0,0.0,0.0,0.0,0.0,0.0,0.0,0.0,0.0,0.0,0.0,0.0,0.0,0.0,0.0,0.0,0.0,0.0,0.0,0.0,0.0,0.0,0.0,0.0,0.0,0.0,0.0,0.0,0.0,0.0,0.0,0.0,0.0,1.5715,0.0,1.727,0.0,1.7534,1.7509,0.0,0.0,0.0,0.0,0.0,0.0,0.0,0.0,0.0,0.0,0.0,0.0,0.0,0.0,0.0,0.0,0.0,0.0,0.0,0.0,0.0,0.0,0.0,0.0,0.0,0.0,0.0,0.0,0.0,0.0,0.0,0.0,0.0,0.0,0.0,0.0,0.0,0.0,0.0,0.0,0.0,0.0,0.0,0.0,0.0,0.0,0.0,0.0,0.0,0.0,0.0,0.0,0.0,0.0,0.0,0.0,0.0,0.0,0.0,0.0,0.0,0.0,0.0,0.0,0.0,0.0,0.0,0.0,0.0,0.0,0.0,0.0,0.0,0.0,0.0,0.0,0.0,0.0,0.0,0.0,0.0,0.0,0.0,0.0,0.0,0.0,0.0,0.0,0.0,0.0,0.0,0.0,0.0,0.0,0.0,0.0,0.0,0.0,0.0,0.0,0.0,0.0,0.0,0.0,0.0,0.0,0.0,0.0,1.2966,1.2126,1.4125,1.4963,1.4877,1.5929,1.6831,0.0,0.0,0.0,0.0,0.0,0.0,0.0,0.0,0.0,0.0,0.0,0.0,0.0,0.0,0.0,0.0,0.0,0.0,0.0,0.0,0.0,0.0,0.0,0.0,0.0,0.0,0.0,0.0,0.0,0.0,0.0,0.0,0.0,0.0,0.0,0.0,0.0,0.0,0.0,0.0,0.0,0.0,0.0,0.0,0.0,0.0,0.0,0.0,0.0,0.0,0.0,0.0,0.0,0.0,0.0,0.0,0.0,0.0,0.0,0.0,0.0,0.0,0.0,0.0,0.0,0.0,0.0,0.0,0.0,0.0,0.0,0.0,0.0,0.0,0.0,0.0,0.0,0.0,0.0,0.0,0.0,0.0,0.0,0.0,0.0,0.0,0.0,0.0,0.0,0.0,0.0,0.0,0.0,0.0,0.0,0.0,0.0,0.0,0.0,0.0,0.0,0.0,0.0,0.0,0.0,0.0,0.0,0.0,0.0,0.4828,0.6637,0.7997,0.9172,1.149,1.3423,0.0,0.0,0.0,0.0,0.0,0.0,0.0,0.0,0.0,0.0,0.0,0.0,0.0,0.0,0.0,0.0,0.0,0.0,0.0,0.0,0.0,0.0,0.0,0.0,0.0,0.0,0.0,0.0,0.0,0.0,0.0,0.0,0.0,0.0,0.0,0.0,0.0,0.0,0.0,0.0,0.0,0.0,0.0,0.0,0.0,0.0,0.0,0.0,0.0,0.0,0.0,0.0,0.0,0.0,0.0,0.0,0.0,0.0,0.0,0.0,0.0,0.0,0.0,0.0,0.0,0.0,0.0,0.0,0.0,0.0,0.0,0.0,0.0,0.0,0.0,0.0,0.0,0.0,0.0,0.0,0.0,0.0,0.0,0.0,0.0,0.0,0.0,0.0,0.0,0.0,0.0,0.0,0.0,0.0,0.0,0.0,0.0,0.0,0.0,0.0,0.0,0.0,0.0,0.0,0.0,0.0,0.0,0.0,0.0,-0.519,-0.122,0.1888,0.4302,0.741,1.0206,1.2515,0.0,0.0,0.0,0.0,0.0,0.0,0.0,0.0,0.0,0.0,0.0,0.0,0.0,0.0,0.0,0.0,0.0,0.0,0.0,0.0,0.0,0.0,0.0,0.0,0.0,0.0,0.0,0.0,0.0,0.0,0.0,0.0,0.0,0.0,0.0,0.0,0.0,0.0,0.0,0.0,0.0,0.0,0.0,0.0,0.0,0.0,0.0,0.0,0.0,0.0,0.0,0.0,0.0,0.0,0.0,0.0,0.0,0.0,0.0,0.0,0.0,0.0,0.0,0.0,0.0,0.0,0.0,0.0,0.0,0.0,0.0,0.0,0.0,0.0,0.0,0.0,0.0,0.0,0.0,0.0,0.0,0.0,0.0,0.0,0.0,0.0,0.0,0.0,0.0,0.0,0.0,0.0,0.0,0.0,0.0,0.0,0.0,0.0,0.0,0.0,0.0,0.0,0.0,0.0,0.0,0.0,0.0,0.0,-1.6442,-0.9073,-0.3573,-0.0096,0.3534,0.7062,0.0,0.0,0.0,0.0,0.0,0.0,0.0,0.0,0.0,0.0,0.0,0.0,0.0,0.0,0.0,0.0,0.0,0.0,0.0,0.0,0.0,0.0,0.0,0.0,0.0,0.0,0.0,0.0,0.0,0.0,0.0,0.0,0.0,0.0,0.0,0.0,0.0,0.0,0.0,0.0,0.0,0.0,0.0,0.0,0.0,0.0,0.0,0.0,0.0,0.0,0.0,0.0,0.0,0.0,0.0,0.0,0.0,0.0,0.0,0.0,0.0,0.0,0.0,0.0,0.0,0.0,0.0,0.0,0.0,0.0,0.0,0.0,0.0,0.0,0.0,0.0,0.0,0.0,0.0,0.0,0.0,0.0,0.0,0.0,0.0,0.0,0.0,0.0,0.0,0.0,0.0,0.0,0.0,0.0,0.0,0.0,0.0,0.0,0.0,0.0,0.0,0.0,0.0,0.0,0.0,0.0,0.0,0.0,0.0,-1.7635,-1.5338,-1.1835,-0.7051,-0.2645,0.1954,0.0,0.0,0.0,0.0,0.0,0.0,0.0,0.0,0.0,0.0,0.0,0.0,0.0,0.0,0.0,0.0,0.0,0.0,0.0,0.0,0.0,0.0,0.0,0.0,0.0,0.0,0.0,0.0,0.0,0.0,0.0,0.0,0.0,0.0,0.0,0.0,0.0,0.0,0.0,0.0,0.0,0.0,0.0,0.0,0.0,0.0,0.0,0.0,0.0,0.0,0.0,0.0,0.0,0.0,0.0,0.0,0.0,0.0,0.0,0.0,0.0,0.0,0.0,0.0,0.0,0.0,0.0,0.0,0.0,0.0,0.0,0.0,0.0,0.0,0.0,0.0,0.0,0.0,0.0,0.0,0.0,0.0,0.0,0.0,0.0,0.0,0.0,0.0,0.0,0.0,0.0,0.0,0.0,0.0,0.0,0.0,0.0,0.0,0.0,0.0,0.0,0.0,0.0,0.0,0.0,0.0,0.0,0.0,-2.0541,-1.9541,-1.8344,-1.6154,-1.2861,-0.7492,-0.2097,0.0,0.0,0.0,0.0,0.0,0.0,0.0,0.0,0.0,0.0,0.0,0.0,0.0,0.0,0.0,0.0,0.0,0.0,0.0,0.0,0.0,0.0,0.0,0.0,0.0,0.0,0.0,0.0,0.0,0.0,0.0,0.0,0.0,0.0,0.0,0.0,0.0,0.0,0.0,0.0,0.0,0.0,0.0,0.0,0.0,0.0,0.0,0.0,0.0,0.0,0.0,0.0,0.0,0.0,0.0,0.0,0.0,0.0,0.0,0.0,0.0,0.0,0.0,0.0,0.0,0.0,0.0,0.0,0.0,0.0,0.0,0.0,0.0,0.0,0.0,0.0,0.0,0.0,0.0,0.0,0.0,0.0,0.0,0.0,0.0,0.0,0.0,0.0,0.0,0.0,0.0,0.0,0.0,0.0,0.0,0.0,0.0,0.0,0.0,0.0,0.0,0.0,0.0,0.0,0.0,0.0,0.0,0.0,-2.0582,-2.138,-1.9273,-1.7851,-1.7048,-1.1034,-0.5311,0.0,0.0,0.0,0.0,0.0,0.0,0.0,0.0,0.0,0.0,0.0,0.0,0.0,0.0,0.0,0.0,0.0,0.0,0.0,0.0,0.0,0.0,0.0,0.0,0.0,0.0,0.0,0.0,0.0,0.0,0.0,0.0,0.0,0.0,0.0,0.0,0.0,0.0,0.0,0.0,0.0,0.0,0.0,0.0,0.0,0.0,0.0,0.0,0.0,0.0,0.0,0.0,0.0,0.0,0.0,0.0,0.0,0.0,0.0,0.0,0.0,0.0,0.0,0.0,0.0,0.0,0.0,0.0,0.0,0.0,0.0,0.0,0.0,0.0,0.0,0.0,0.0,0.0,0.0,0.0,0.0,0.0,0.0,0.0,0.0,0.0,0.0,0.0,0.0,0.0,0.0,0.0,0.0,0.0,0.0,0.0,0.0,0.0,0.0,0.0,0.0,0.0,0.0,0.0,0.0,0.0,0.0,0.0,-2.2394,-2.1067,-2.0212,-1.897,-1.7248,-1.2488,-0.7476,0.0,0.0,0.0,0.0,0.0,0.0,0.0,0.0,0.0,0.0,0.0,0.0,0.0,0.0,0.0,0.0,0.0,0.0,0.0,0.0,0.0,0.0,0.0,0.0,0.0,0.0,0.0,0.0,0.0,0.0,0.0,0.0,0.0,0.0,0.0,0.0,0.0,0.0,0.0,0.0,0.0,0.0,0.0,0.0,0.0,0.0,0.0,0.0,1.8096,0.0,0.0,0.0,0.0,0.0,0.0,0.0,0.0,0.0,0.0,0.0,0.0,0.0,0.0,0.0,0.0,0.0,0.0,0.0,0.0,0.0,0.0,0.0,0.0,0.0,0.0,0.0,0.0,0.0,0.0,0.0,0.0,0.0,0.0,0.0,0.0,0.0,0.0,0.0,0.0,0.0,0.0,0.0,0.0,0.0,0.0,0.0,0.0,0.0,0.0,0.0,0.0,0.0,0.0,0.0,0.0,0.0,0.0,0.0,-2.241,-2.1353,-2.0507,-1.9304,-1.7704,-1.4451,-1.0075,0.0,0.0,0.0,0.0,0.0,0.0,0.0,0.0,0.0,0.0,0.0,0.0,0.0,0.0,0.0,0.0,0.0,0.0,0.0,0.0,0.0,0.0,0.0,0.0,0.0,0.0,0.0,0.0,0.0,0.0,0.0,0.0,0.0,0.0,0.0,0.0,0.0,0.0,0.0,0.0,0.0,0.0,0.0,0.0,0.0,0.0,0.0,0.0,0.0,0.0,0.0,0.0,0.0,0.0,0.0,0.0,0.0,0.0,0.0,0.0,0.0,0.0,0.0,0.0,0.0,0.0,0.0,0.0,0.0,0.0,0.0,0.0,0.0,0.0,0.0,0.0,0.0,0.0,0.0,0.0,0.0,0.0,0.0,0.0,0.0,0.0,0.0,0.0,0.0,0.0,0.0,0.0,0.0,0.0,0.0,0.0,0.0,0.0,0.0,0.0,0.0,0.0,0.0,0.0,0.0,0.0,0.0,-2.0393,-2.1957,-2.1773,-2.06,-1.9398,-1.8234,-1.6293,-1.2562,-0.6873,0.0,0.0,0.0,0.0,0.0,0.0,0.0,0.0,0.0,0.0,0.0,0.0,0.0,0.0,0.0,0.0,0.0,0.0,0.0,0.0,0.0,0.0,0.0,0.0,0.0,0.0,0.0,0.0,0.0,0.0,0.0,0.0,0.0,0.0,0.0,0.0,0.0,0.0,1.8711,1.8787,0.0,0.0,0.0,0.0,0.0,0.0,0.0,0.0,1.6739,0.0,0.0,0.0,0.0,0.0,0.0,0.0,0.0,0.0,0.0,0.0,0.0,0.0,0.0,0.0,0.0,0.0,0.0,0.0,0.0,0.0,0.0,0.0,0.0,0.0,0.0,0.0,0.0,0.0,0.0,0.0,0.0,0.0,0.0,0.0,0.0,0.0,0.0,0.0,0.0,0.0,0.0,0.0,0.0,0.0,0.0,0.0,0.0,0.0,0.0,0.0,0.0,0.0,0.0,0.0,0.0,-2.1836,-2.2663,-2.2678,-2.1906,-2.1054,-1.9743,-1.7946,-1.6944,-1.3793,-0.8404,0.0,0.0,0.0,0.0,0.0,0.0,0.0,0.0,0.0,0.0,0.0,0.0,0.0,0.0,0.0,0.0,0.0,0.0,0.0,0.0,0.0,0.0,0.0,0.0,0.0,0.0,0.0,0.0,0.0,0.0,0.0,0.0,0.0,0.0,0.0,0.0,0.0,0.0,0.0,1.8387,1.726,0.0,0.0,0.0,0.0,0.0,0.0,0.0,0.0,1.5132,0.0,0.0,0.0,0.0,0.0,0.0,0.0,0.0,0.0,0.0,0.0,0.0,0.0,0.0,0.0,0.0,0.0,0.0,0.0,0.0,0.0,0.0,0.0,0.0,0.0,0.0,0.0,0.0,0.0,0.0,0.0,0.0,0.0,0.0,0.0,0.0,0.0,0.0,0.0,0.0,0.0,0.0,0.0,0.0,0.0,0.0,0.0,0.0,0.0,0.0,0.0,0.0,0.0,0.0,0.0,-2.3149,-2.341,-2.281,-2.1778,-2.1225,-2.002,-1.814,-1.7366,-1.4574,0.0,0.0,0.0,0.0,0.0,0.0,0.0,0.0,0.0,0.0,0.0,0.0,0.0,0.0,0.0,0.0,0.0,0.0,0.0,0.0,0.0,0.0,0.0,0.0,0.0,0.0,0.0,0.0,0.0,0.0,0.0,0.0,0.0,0.0,0.0,0.0,0.0,0.0,0.0,0.0,1.7305,1.5955,1.499,0.0,0.0,0.0,0.0,0.0,0.0,1.2691,1.2579,0.0,0.0,0.0,0.0,0.0,0.0,0.0,0.0,0.0,0.0,0.0,0.0,0.0,0.0,0.0,0.0,0.0,0.0,0.0,0.0,0.0,0.0,0.0,0.0,0.0,0.0,0.0,0.0,0.0,0.0,0.0,0.0,0.0,0.0,0.0,0.0,0.0,0.0,0.0,0.0,0.0,0.0,0.0,0.0,0.0,0.0,0.0,0.0,0.0,0.0,0.0,0.0,0.0,0.0,0.0,-2.3737,-2.3516,-2.2743,-2.1628,-2.1179,-2.01,-1.8274,-1.7815,-1.523,0.0,0.0,0.0,0.0,0.0,0.0,0.0,0.0,0.0,0.0,0.0,0.0,0.0,0.0,0.0,0.0,0.0,0.0,0.0,0.0,0.0,0.0,0.0,0.0,0.0,0.0,0.0,0.0,0.0,0.0,0.0,0.0,0.0,0.0,0.0,0.0,0.0,0.0,0.0,0.0,0.0,1.4842,1.3386,1.1788,0.0,0.0,0.0,0.0,1.1532,1.0278,0.0,0.0,0.0,0.0,0.0,0.0,0.0,0.0,0.0,0.0,0.0,0.0,0.0,0.0,0.0,0.0,0.0,0.0,0.0,0.0,0.0,0.0,0.0,0.0,0.0,0.0,0.0,0.0,0.0,0.0,0.0,0.0,0.0,0.0,0.0,0.0,0.0,0.0,0.0,0.0,0.0,0.0,0.0,0.0,0.0,0.0,0.0,0.0,0.0,0.0,0.0,0.0,0.0,0.0,0.0,0.0,-2.3731,-2.3294,-2.2512,-2.1526,-2.0895,-1.9723,-1.8011,-1.8342,-1.5984,0.0,0.0,0.0,0.0,0.0,0.0,0.0,0.0,0.0,0.0,0.0,0.0,0.0,0.0,0.0,0.0,0.0,0.0,0.0,0.0,0.0,0.0,0.0,0.0,0.0,0.0,0.0,0.0,0.0,0.0,0.0,0.0,0.0,0.0,0.0,0.0,0.0,0.0,0.0,0.0,0.0,1.4405,1.1774,1.0229,0.8817,0.0,0.0,1.136,1.0938,0.808,0.0,0.0,0.0,0.0,0.0,0.0,0.0,0.0,0.0,0.0,0.0,0.0,0.0,0.0,0.0,0.0,0.0,0.0,0.0,0.0,0.0,0.0,0.0,0.0,0.0,0.0,0.0,0.0,0.0,0.0,0.0,0.0,0.0,0.0,0.0,0.0,0.0,0.0,0.0,0.0,0.0,0.0,0.0,0.0,0.0,0.0,0.0,0.0,0.0,0.0,0.0,0.0,0.0,0.0,0.0,-2.1218,-2.3419,-2.2797,-2.2085,-2.1453,-2.0522,-1.9447,-1.8249,-1.8467,-1.6478,0.0,0.0,0.0,0.0,0.0,0.0,0.0,0.0,0.0,0.0,0.0,0.0,0.0,0.0,0.0,0.0,0.0,0.0,0.0,0.0,0.0,0.0,0.0,0.0,0.0,0.0,0.0,0.0,0.0,0.0,0.0,0.0,0.0,0.0,0.0,0.0,0.0,0.0,0.0,0.0,0.0,0.0,0.8049,0.5616,0.0,0.0,0.0,0.5283,0.4864,0.0,0.0,0.0,0.0,0.0,0.0,0.0,0.0,0.0,0.0,0.0,0.0,0.0,0.0,0.0,0.0,0.0,0.0,0.0,0.0,0.0,0.0,0.0,0.0,0.0,0.0,0.0,0.0,0.0,0.0,0.0,0.0,0.0,0.0,0.0,0.0,0.0,0.0,0.0,0.0,0.0,0.0,0.0,0.0,0.0,0.0,0.0,0.0,0.0,0.0,0.0,0.0,0.0,0.0,0.0,0.0,0.0,-2.2805,-2.218,-2.1576,-2.1101,-2.0185,-1.922,-1.8252,-1.8053,0.0,0.0,0.0,0.0,0.0,0.0,0.0,0.0,0.0,0.0,0.0,0.0,0.0,0.0,0.0,0.0,0.0,0.0,0.0,0.0,0.0,0.0,0.0,0.0,0.0,0.0,0.0,1.1133,0.0,0.0,0.0,0.0,0.0,0.0,0.0,0.0,0.0,0.0,0.0,0.0,0.0,0.0,0.706,0.4086,0.1153,-0.0935,0.0,0.0,-0.1567,-0.166,-0.0815,0.0294,0.0,0.0,0.0,0.0,0.0,0.0,0.0,0.0,0.0,0.0,0.0,0.0,0.0,0.0,0.0,0.0,0.0,0.0,0.0,0.0,0.0,0.0,0.0,0.0,0.0,0.0,0.0,0.0,0.0,0.0,0.0,0.0,0.0,0.0,0.0,0.0,0.0,0.0,0.0,0.0,0.0,0.0,0.0,0.0,0.0,0.0,0.0,0.0,0.0,0.0,0.0,0.0,0.0,0.0,0.0,-2.1657,-2.1409,-2.0959,-2.0311,-1.9968,-1.903,-1.7531,-1.6784,-1.5323,0.0,0.0,0.0,0.0,0.0,0.0,0.0,0.0,0.0,0.0,0.0,0.0,0.0,0.0,0.0,0.0,0.0,0.0,0.0,0.0,0.0,0.0,0.0,0.0,0.0,0.0,0.0,0.0,0.0,0.0,0.0,0.0,0.0,0.0,0.0,0.0,0.0,0.0,0.0,0.0,0.0,0.3581,0.0543,-0.2093,-0.3984,0.0,0.0,-0.7368,-0.6981,-0.4924,-0.2749,-0.1157,0.0,0.0,0.0,0.0,0.0,0.0,0.0,0.0,0.0,0.0,0.0,0.0,0.0,0.0,0.0,0.0,0.0,0.0,0.0,0.0,0.0,0.0,0.0,0.0,0.0,0.0,0.0,0.0,0.0,0.0,0.0,0.0,0.0,0.0,0.0,0.0,0.0,0.0,0.0,0.0,0.0,0.0,0.0,0.0,0.0,0.0,0.0,0.0,0.0,0.0,0.0,0.0,0.0,-2.0503,-2.1348,-2.0846,-2.0333,-1.9814,-1.9142,-1.8205,-1.7066,-1.5949,-1.4741,0.0,0.0,0.0,0.0,0.0,0.0,0.0,0.0,0.0,0.0,0.0,0.0,0.0,0.0,0.0,0.0,0.0,0.0,0.0,0.0,0.0,0.0,0.0,0.0,0.0,0.0,0.0,0.0,0.9418,0.867,0.8795,0.0,0.0,0.0,0.0,0.0,0.0,0.0,0.0,0.0,0.0,-0.2487,-0.4983,-0.6934,0.0,0.0,-0.9222,-0.9244,-0.8644,-0.7352,-0.5821,-0.3997,-0.312,0.0,0.0,0.0,0.0,0.0,0.0,0.0,0.0,0.0,0.0,0.0,0.0,0.0,0.0,0.0,0.0,0.0,0.0,0.0,0.0,0.0,0.0,0.0,0.0,0.0,0.0,0.0,0.0,0.0,0.0,0.0,0.0,0.0,0.0,0.0,0.0,0.0,0.0,0.0,0.0,0.0,0.0,0.0,0.0,0.0,0.0,0.0,0.0,0.0,0.0,0.0,0.0,-2.0108,-2.0651,-2.0143,-1.963,-1.917,-1.827,-1.7389,-1.6434,-1.5412,-1.443,0.0,0.0,0.0,0.0,0.0,0.0,0.0,0.0,0.0,0.0,0.0,0.0,0.0,0.0,0.0,0.0,0.0,0.0,0.0,0.0,0.0,0.0,0.0,0.0,0.0,0.0,0.0,0.0,0.8629,0.7638,0.7924,0.0,0.0,0.0,0.0,0.0,0.0,0.0,0.0,0.0,0.0,-0.8136,-1.0002,-1.124,-1.1935,-1.1868,-1.1304,-1.0765,-1.0254,-0.9422,-0.8452,-0.7249,0.0,0.0,0.0,0.0,0.0,0.0,0.0,0.0,0.0,0.0,0.0,0.0,0.0,0.0,0.0,0.0,0.0,0.0,0.0,0.0,0.0,0.0,0.0,0.0,0.0,0.0,0.0,0.0,0.0,0.0,-0.3968,0.0,0.0,0.0,0.0,0.0,0.0,0.0,0.0,0.0,0.0,0.0,0.0,0.0,0.0,0.0,0.0,0.0,0.0,0.0,0.0,0.0,0.0,-1.9095,-1.9442,-1.9236,-1.8808,-1.8159,-1.7531,-1.6702,-1.5588,-1.531,-1.43,-1.2382,0.0,0.0,0.0,0.0,0.0,0.0,0.0,0.0,0.0,0.0,0.0,0.0,0.0,0.0,0.0,0.0,0.0,0.0,0.0,0.0,0.0,0.0,0.0,0.0,0.0,0.0,0.9491,0.716,0.5562,0.0,0.0,0.0,0.0,0.0,0.0,0.0,0.0,0.0,0.0,-1.1764,-1.3053,-1.3893,-1.4552,-1.4545,-1.3571,-1.2851,-1.2405,-1.2412,-1.1224,-1.0466,0.0,0.0,0.0,0.0,0.0,0.0,0.0,0.0,0.0,0.0,0.0,0.0,0.0,0.0,0.0,0.0,0.0,0.0,0.0,0.0,0.0,0.0,0.0,0.0,0.0,0.0,0.0,-0.4816,-0.5688,0.0,0.0,0.0,0.0,0.0,0.0,0.0,0.0,0.0,0.0,0.0,-1.658,-1.5917,0.0,0.0,0.0,0.0,0.0,0.0,0.0,0.0,0.0,0.0,0.0,0.0,-1.8245,-1.9262,-1.8604,-1.799,-1.7501,-1.708,-1.6121,-1.456,-1.4344,-1.3273,-1.125,0.0,0.0,0.0,0.0,0.0,0.0,0.0,0.0,0.0,0.0,0.0,0.0,0.0,0.0,0.0,0.0,0.0,0.0,0.0,0.0,0.0,0.0,0.0,0.0,0.0,0.7847,0.0,0.0,0.0,0.0,0.0,0.0,0.0,0.0,0.0,0.0,0.0,-1.256,-1.636,-1.7319,-1.7823,-1.8398,-1.8007,-1.7693,0.0,0.0,0.0,0.0,0.0,0.0,0.0,0.0,0.0,0.0,0.0,0.0,0.0,0.0,-1.2982,-1.0841,-1.1163,-1.2041,-1.3101,0.0,0.0,0.0,0.0,0.0,0.0,0.0,0.0,0.0,0.0,0.0,0.0,0.0,0.0,-0.8143,0.0,-0.9017,0.0,0.0,0.0,0.0,0.0,0.0,0.0,0.0,-1.6387,-1.6491,-1.6502,-1.5722,-1.5348,0.0,-1.4678,-1.3936,0.0,0.0,0.0,0.0,0.0,0.0,0.0,0.0,-1.7219,-1.8355,-1.7571,-1.6992,-1.6718,-1.6279,-1.5415,-1.4089,-1.3541,-1.2549,-1.1079,-0.988,-0.8978,0.0,0.0,0.0,0.0,0.0,0.0,0.0,0.0,0.0,0.0,0.0,0.0,0.0,0.0,0.0,0.0,0.0,0.0,0.0,0.0,0.0,0.0,0.0,0.4119,0.0,0.0,0.0,0.0,0.0,0.0,0.0,0.0,0.0,-1.253,-1.5169,-1.8261,-2.1506,-2.1742,-2.1654,-2.1676,0.0,0.0,0.0,0.0,0.0,0.0,0.0,-1.6711,-1.6419,-1.5676,-1.5579,-1.6928,-1.8035,-1.8683,-1.8443,0.0,0.0,-1.4191,-1.4156,-1.4714,-1.532,-1.5612,-1.5695,-1.5395,-1.5434,-1.5457,0.0,0.0,0.0,0.0,0.0,0.0,0.0,0.0,-1.1185,-1.1631,0.0,-1.1735,0.0,0.0,0.0,0.0,0.0,0.0,0.0,0.0,-1.5704,-1.5153,-1.5515,-1.5186,-1.4866,-1.4582,-1.4278,-1.3785,-1.3191,-1.3745,0.0,0.0,0.0,0.0,0.0,0.0,-1.6095,-1.6767,-1.6214,-1.5821,-1.5845,-1.519,-1.4604,-1.4154,-1.2898,-1.2079,-1.1699,-1.0399,-0.9515,-0.9101,-0.7242,0.0,0.0,0.0,0.0,0.0,0.0,0.0,0.0,0.0,0.0,0.0,0.0,0.0,0.0,0.0,0.0,0.0,0.0,0.0,0.0,0.2026,0.0,0.0,0.0,0.0,0.0,0.0,0.0,0.0,0.0,0.0,-1.7605,-2.021,-2.2965,-2.504,0.0,0.0,0.0,0.0,-2.3065,-2.1929,-2.1041,-2.0495,-2.0441,-1.964,-1.9289,-2.0022,0.0,0.0,-1.9775,-2.0411,-2.0537,-1.9982,-1.9116,-1.8256,-1.6878,-1.6519,-1.6719,-1.7127,-1.7183,-1.7247,-1.7247,-1.7043,-1.6901,-1.3698,0.0,0.0,0.0,0.0,-1.165,-1.2049,-1.2654,-1.2924,-1.3141,-1.3284,-1.3321,0.0,0.0,0.0,0.0,0.0,0.0,-1.6439,-1.7578,-1.5522,-1.4059,-1.3156,-1.3806,-1.3999,-1.3768,-1.3408,-1.3003,-1.2715,-1.3152,-1.343,-1.3578,0.0,0.0,0.0,0.0,-1.5056,-1.6356,-1.5549,-1.5411,-1.6168,-1.5388,-1.4457,-1.3395,-1.2465,-1.1613,-1.089,-1.0087,-0.9411,-0.8946,-0.7332,0.0,0.0,0.0,0.0,0.0,0.0,0.0,0.0,0.0,0.0,0.0,0.0,0.0,0.0,0.0,0.0,0.0,0.0,0.0,-0.0127,-0.2337,-0.4271,0.0,0.0,0.0,0.0,0.0,0.0,0.0,0.0,0.0,-2.1527,-2.2971,-2.4189,0.0,0.0,-2.4222,-2.4333,-2.3526,-2.3017,-2.3424,0.0,0.0,0.0,-2.1673,-2.1155,-2.1175,-2.0148,-1.959,-2.006,-1.9825,-1.9353,-1.8868,-1.8541,-1.8078,-1.6968,-1.673,-1.677,-1.6873,-1.6889,-1.6889,-1.6889,-1.6889,-1.6833,-1.5403,-1.4998,-1.3351,-1.2866,-1.3157,-1.3414,-1.3552,-1.37,-1.4115,-1.4229,-1.41,-1.4071,-1.4012,-1.3912,-1.3841,0.0,0.0,0.0,-1.5953,-1.7278,-1.4668,-1.2907,-1.2012,-1.2567,-1.2818,-1.2757,-1.2336,-1.2027,-1.1841,-1.2266,-1.247,-1.2425,0.0,0.0,-1.3631,-1.3461,-1.3871,-1.4779,-1.4467,-1.4697,-1.5583,-1.4834,-1.3987,-1.3044,-1.2323,-1.1514,-1.053,-1.0003,-0.9466,-0.8932,-0.7464,-0.6289,0.0,0.0,0.0,0.0,0.0,0.0,0.0,0.0,0.0,0.0,0.0,0.7535,0.0,0.0,0.0,0.0,0.1762,-0.1509,-0.4858,-0.6441,0.0,0.0,0.0,0.0,0.0,0.0,0.0,-1.6321,-1.9068,-2.1546,-2.3069,-2.3921,-2.4704,-2.5586,-2.5095,-2.468,-2.4807,0.0,-2.3676,-2.4108,-2.3394,-2.2961,-2.322,-2.2626,-2.1966,-2.1211,-2.0605,-1.9982,-1.959,-1.9353,-1.9116,-1.8789,-1.8461,-1.798,-1.7359,-1.6968,-1.673,-1.673,-1.673,-1.673,-1.673,-1.673,-1.6648,-1.6935,-1.6622,-1.4426,-1.3857,-1.454,-1.5018,-1.4499,-1.3534,-1.4834,-1.4956,-1.4156,-1.4279,-1.4336,-1.4308,-1.3949,0.0,0.0,-1.4472,-1.4998,-1.643,-1.3506,-1.1908,-1.1578,-1.1596,-1.156,-1.156,-1.1247,-1.0996,-1.0807,-1.1413,-1.1439,-1.0972,-1.2196,-1.288,-1.2776,-1.2694,-1.2567,-1.2523,-1.3233,-1.3844,-1.4412,-1.3735,-1.3238,-1.293,-1.2271,-1.1502,-1.049,-0.9999,-0.945,-0.8701,-0.7451,-0.6495,-0.5828,0.0,0.0,0.0,0.0,0.0,0.0,0.0,0.0,0.0,0.0,0.0,0.0,0.0,0.0,0.0,-0.3457,0.0,-0.8178,-1.0218,0.0,0.0,0.0,-1.3825,-1.4251,-1.5958,-1.7576,-1.8489,0.0,0.0,-2.2965,0.0,-2.4683,-2.602,-2.5755,-2.5288,-2.4933,-2.4767,-2.4659,-2.4036,-2.3372,-2.3021,-2.3267,-2.2641,-2.1819,-2.0757,-2.074,-2.0197,-1.8966,-1.8886,-1.9195,-1.8948,-1.839,-1.7836,-1.7925,-1.7212,-1.673,-1.673,-1.673,-1.673,-1.6566,-1.6566,-1.6402,-1.6899,-1.6705,-1.5524,-1.4849,-1.4505,-1.4662,-1.448,-1.424,-1.4615,-1.4702,-1.4566,-1.476,-1.4819,-1.4819,-1.4443,-1.4492,-1.479,-1.4526,-1.4784,-1.5229,-1.3149,-1.1775,-1.1221,-1.1322,-1.1247,-1.0996,-1.0933,-1.0807,-1.0618,-1.0674,-1.0703,-1.0816,-1.105,-1.1421,-1.2047,-1.1911,-1.2002,-1.2362,-1.309,-1.3517,-1.3749,-1.3202,-1.2712,-1.2234,-1.1229,-1.0477,-0.9989,-0.9093,-0.8127,-0.7035,-0.6291,-0.5318,-0.3985,-0.3553,0.0,0.0,0.0,0.0,0.0,0.0,0.0,0.0,0.0,0.5395,0.4715,0.0,-0.0068,0.0,-0.616,-0.9801,-1.1576,-1.2852,0.0,0.0,-1.5008,-1.5848,-1.674,-1.79,-1.9107,-2.0414,-2.1793,-2.2883,-2.3363,-2.3891,-2.4177,-2.4299,-2.4154,-2.402,-2.3948,-2.3655,-2.3301,-2.2833,-2.2584,-2.2418,-2.2339,-2.1839,-2.1232,-2.0807,-1.9797,-1.878,-1.8247,-1.7683,-1.7367,-1.7286,-1.7212,-1.7057,-1.7049,-1.6812,-1.673,-1.673,-1.673,-1.6566,-1.6072,-1.5899,-1.5741,-1.732,-1.699,-1.6243,-1.5498,-1.4721,-1.4803,-1.4675,-1.4506,-1.4793,-1.4843,-1.4843,-1.497,-1.4921,-1.4743,-1.4575,-1.4497,-1.4616,-1.4543,-1.4459,-1.4246,-1.294,-1.1835,-1.1085,-1.1149,-1.1059,-1.0681,-1.0618,-1.0491,-1.0244,-1.018,-1.0174,-1.0238,-1.0238,-1.056,-1.113,-1.1478,-1.1917,-1.2449,-1.283,-1.2998,-1.3061,-1.2589,-1.2228,-1.1926,-1.0717,-0.9894,-0.9448,-0.8404,-0.7298,-0.6264,-0.5593,-0.4767,-0.3654,-0.3379,-0.2929,0.0,0.0,0.0,0.0,0.0,0.0,0.0,0.0,0.0,0.0,0.0,-0.3759,0.0,-0.9332,0.0,-1.3841,-1.4429,-1.5053,-1.5955,-1.6571,-1.7246,-1.8052,-1.9003,-1.9899,-2.0672,-2.17,-2.2553,-2.2916,-2.3309,-2.3457,-2.3213,-2.315,-2.3073,-2.3032,-2.2853,-2.2531,-2.2073,-2.1811,-2.1599,-2.1436,-2.0968,-2.0549,-1.9947,-1.8988,-1.7989,-1.7521,-1.7049,-1.673,-1.673,-1.673,-1.673,-1.673,-1.673,-1.6648,-1.6319,-1.6237,-1.6154,-1.5816,-1.5484,-1.5068,-1.7757,-1.7337,-1.669,-1.5874,-1.5039,-1.5128,-1.4961,-1.4625,-1.5128,-1.5196,-1.5039,-1.5039,-1.4803,-1.4497,-1.4506,-1.4455,-1.4446,-1.4455,-1.4148,-1.3606,-1.2785,-1.1943,-1.1023,-1.1024,-1.0877,-1.0498,-1.0371,-1.0117,-0.9804,-0.9926,-0.9862,-0.9612,-0.9862,-1.0047,-1.0301,-1.1185,-1.1964,-1.2469,-1.2351,-1.2296,-1.2389,-1.1981,-1.174,-1.1615,-1.0345,-0.9384,-0.893,-0.7887,-0.685,-0.5873,-0.5143,-0.4417,-0.3813,-0.3522,-0.3097,0.0,-0.237,0.0,0.0,0.0,0.0,0.0,0.0,0.0,0.0,-0.4208,-0.7768,-1.0265,-1.2437,-1.4122,-1.5283,-1.5526,-1.6075,-1.7269,-1.7797,-1.8121,-1.8612,-1.939,-1.9923,-2.0001,-2.1011,-2.17,-2.1787,-2.2166,-2.2317,-2.2231,-2.2241,-2.2115,-2.2034,-2.2064,-2.2078,-2.1522,-2.0997,-2.055,-2.0387,-2.0042,-1.9429,-1.8785,-1.8127,-1.7518,-1.6806,-1.6698,-1.673,-1.673,-1.673,-1.673,-1.673,-1.6648,-1.6402,-1.5824,-1.5567,-1.5401,-1.5318,-1.4992,-1.4398,-1.761,-1.7788,-1.6461,-1.5644,-1.5292,-1.5107,-1.497,-1.4911,-1.5029,-1.5029,-1.5039,-1.5039,-1.4843,-1.4666,-1.4565,-1.4327,-1.407,-1.3976,-1.4065,-1.424,-1.2707,-1.1556,-1.0718,-1.078,-1.0618,-1.0117,-1.0047,-1.0053,-0.9989,-0.9868,-0.9862,-0.9926,-0.9862,-0.9926,-1.011,0.0,0.0,0.0,-1.1323,-1.1193,-1.1663,-1.1608,-1.1303,-1.0807,-0.9454,0.0,-0.8549,-0.7321,-0.621,-0.5543,-0.4815,0.0,0.0,0.0,0.0,0.0,0.0,0.0,0.0,0.0,0.0,0.0,-0.5962,-0.5347,-0.3438,-0.6849,-1.0305,-1.2778,-1.3971,-1.4902,-1.5903,-1.6629,-1.7066,-1.7383,-1.7716,-1.804,-1.8121,-1.8353,-1.8585,-1.9204,-1.9432,-1.9825,-2.0285,-2.0372,-2.045,-2.0527,-2.0991,-2.0964,-2.0349,-2.1167,-2.1432,-2.0695,-1.9885,-1.9272,-1.9222,-1.8373,-1.7752,-1.7275,-1.6924,-1.6524,-1.6333,-1.6571,-1.673,-1.673,-1.673,-1.673,-1.6648,-1.6312,-1.5899,-1.5733,-1.4817,-1.4068,-1.4068,-1.3984,-1.373,-1.7645,0.0,-1.6467,-1.5778,0.0,-1.5264,-1.5186,-1.5196,-1.5147,-1.5098,-1.497,-1.4911,-1.4784,-1.4616,-1.4506,-1.4327,-1.401,-1.3967,-1.3917,-1.3961,-1.2776,-1.1703,-1.0857,-1.0815,-1.0528,-0.9983,-0.9792,-0.9664,-0.9734,-0.96,-0.96,-0.9734,-0.9862,-0.9926,-0.9926,-1.0231,-1.0793,-1.1553,-1.0899,-1.0774,-1.1052,-1.1052,-1.0737,-1.004,0.0,0.0,0.0,0.0,0.0,0.0,0.0,0.0,0.0,0.0,0.0,-0.3688,-0.4222,-0.4836,-0.5539,-0.6229,-0.66,-0.6768,-0.785,-0.8035,-0.6812,-0.9133,-1.1464,-1.3333,-1.4221,-1.4996,-1.5835,-1.63,-1.6738,-1.6984,-1.7473,-1.7716,-1.7716,-1.7878,-1.8112,-1.8416,-1.8816,-1.9125,-1.9432,-1.9668,-1.9747,-1.9747,-1.9972,-2.013,-1.992,-2.0669,-2.0878,-1.964,-1.8978,-1.8409,-1.8014,-1.7279,-1.6627,-1.6595,-1.6398,-1.6245,-1.6206,-1.6492,-1.673,-1.673,-1.673,-1.6648,-1.6237,-1.5899,-1.5484,-1.481,-1.3795,-1.2863,-1.2613,-1.2528,-1.2443,-1.7401,-1.6842,-1.6374,-1.5864,-1.542,-1.542,-1.542,-1.541,0.0,0.0,0.0,-1.4775,-1.4606,-1.4515,-1.4515,-1.4327,-1.401,-1.395,-1.3666,-1.3291,-1.2752,-1.2027,-1.119,-1.094,-1.0514,-0.9983,-0.9466,-0.928,-0.9414,-0.928,-0.928,-0.9478,-0.9798,-0.9926,-0.9862,-0.9977,-1.0351,-1.087,-1.0681,-1.0618,-1.0618,-1.0618,-1.0238,-0.9518,-0.8683,-0.8037,-0.7526,-0.6544,-0.5818,-0.5609,-0.5309,-0.5026,-0.4766,-0.4936,-0.513,-0.5359,-0.5764,-0.5992,-0.6073,-0.6244,-0.6553,-0.6868,-0.8285,-0.9318,-0.978,-1.0898,-1.2011,-1.3112,-1.3998,-1.4824,-1.5484,-1.5567,-1.5733,-1.6312,-1.6648,-1.6976,-1.7066,-1.7383,-1.7546,-1.7789,-1.8256,-1.8559,-1.8567,-1.8798,-1.9045,-1.9045,-1.9027,-1.9196,-1.9658,-2.0212,-2.0163,-1.9022,-1.83,-1.7697,-1.7189,-1.6595,-1.6176,-1.6119,-1.6138,-1.6166,-1.6182,-1.6452,-1.6698,-1.673,-1.673,-1.6402,-1.5899,-1.5567,-1.5151,-1.3899,-1.2948,-1.2163,-1.1494,-1.1322,-1.1322,-1.6208,-1.5662,-1.5536,-1.5468,-1.542,-1.542,-1.542,-1.541,-1.5264,-1.5156,-1.497,-1.4775,-1.4597,-1.4515,-1.4515,-1.4327,-1.401,-1.37,-1.326,0.0,-1.2474,-1.2058,-1.149,-1.1045,-1.0541,-0.9983,-0.9338,-0.9081,-0.9087,-0.9017,-0.9151,-0.9344,-0.967,-0.9862,-0.9983,-1.034,-1.0404,-1.018,-1.0434,-1.0618,-1.0618,-1.0618,-1.0238,-0.9518,-0.8807,-0.8172,-0.7526,-0.6741,-0.6284,-0.6222,-0.5745,-0.5491,-0.5256,-0.4953,-0.4661,-0.4723,-0.518,-0.5513,-0.5681,-0.6556,-0.733,-0.8115,-0.8693,-0.9394,-1.0439,-1.1338,-1.2213,-1.2983,-1.3535,-1.4068,-1.4734,-1.4817,-1.4901,-1.4985,-1.5075,-1.5325,-1.5899,-1.6064,-1.6312,-1.6812,-1.6976,-1.7049,-1.7131,-1.7212,-1.7294,-1.7294,-1.7925,-1.8347,-1.877,-1.9171,-1.933,-1.8957,-1.7917,-1.7103,-1.6693,-1.6221,-1.5762,-1.537,-1.5822,-1.6103,-1.5833,-1.6317,-1.6617,-1.6648,-1.6648,-1.6402,-1.5733,-1.5235,-1.4566,-1.3737,-1.3039,-1.2266,-1.1499,-1.1322,-1.1322,-1.5968,-1.541,-1.542,-1.542,-1.542,-1.542,-1.5371,-1.5254,-1.5147,-1.5039,-1.497,-1.4734,-1.4565,-1.4515,-1.4515,-1.4327,-1.401,-1.3821,-1.3347,-1.2623,-1.2581,-1.2436,-1.212,-1.1365,-1.073,-1.0231,-0.9344,-0.8958,-0.8958,-0.863,-0.8565,-0.8894,-0.9157,-0.935,-0.96,-1.0008,-1.0136,-0.9989,-1.018,-1.0244,-1.0308,-1.004,-0.9524,-0.8812,-0.8231,-0.7647,-0.6937,-0.6613,-0.6482,-0.6548,-0.6289,-0.6265,-0.6352,-0.616,-0.6037,-0.6197,-0.6367,-0.6554,-0.6619,-0.718,-0.7723,-0.8183,-0.8598,-0.9133,-0.9806,-1.0716,-1.1494,-1.2015,-1.2534,-1.3039,-1.3724,-1.3977,-1.4314,-1.465,-1.4734,-1.4817,-1.5068,-1.5151,-1.5401,-1.5982,-1.6154,-1.6319,-1.6648,-1.673,-1.673,-1.6812,-1.744,-1.8072,-1.8232,-1.8378,-1.8397,-1.7884,-1.7269,-1.6581,-1.6088,-1.5875,-1.5519,-1.4982,-1.5634,-1.5983,-1.5801,-1.6254,-1.6495,-1.6237,-1.6147,-1.5733,-1.4901,-1.4405,-1.3899,-1.33,-1.2443,-1.1752,-1.1408,-1.1322,-1.1322,-1.5796,-1.542,-1.542,-1.542,-1.542,-1.542,-1.5362,-1.5205,-1.5088,-1.4911,-1.4784,-1.4565,-1.4515,-1.4515,-1.4515,-1.4327,-1.413,-1.401,-1.3666,-1.3055,-1.3009,-1.2858,-1.2552,-1.1725,-1.0975,-1.0351,-0.9402,-0.8888,-0.863,-0.8172,-0.7982,-0.8182,-0.8441,-0.8624,-0.8753,-0.9227,-0.942,-0.9332,-0.9256,-0.9384,-0.9779,-0.9268,-0.8678,-0.8037,-0.7647,-0.7129,-0.6486,-0.6416,-0.6548,-0.6675,-0.6779,-0.6914,-0.7094,-0.7133,-0.7233,-0.7312,-0.7414,-0.7403,-0.7476,-0.7642,-0.7799,-0.8034,-0.8409,-0.8841,-0.925,-0.996,-1.0636,-1.1063,-1.158,-1.21,-1.2528,-1.2875,-1.3385,-1.3886,-1.3964,-1.3964,-1.423,-1.4307,-1.4643,-1.5318,-1.5567,-1.5906,-1.6319,-1.6566,-1.6648,-1.673,-1.7204,-1.7602,-1.7683,-1.7674,-1.7414,-1.7052,-1.6765,-1.6492,-1.5671,-1.5761,-1.5605,-1.4856,-1.5505,-1.5684,-1.5558,-1.5851,-1.6018,-1.5567,-1.5484,-1.5068,-1.3984,-1.373,-1.3476,-1.2875,-1.2272,-1.1735,-1.1662,-1.1499,-1.139,-1.5468,-1.542,-1.542,-1.542,-1.542,-1.541,-1.5352,-1.5303,-1.5147,-1.4647,-1.4094,-1.4369,-1.4455,-1.4515,-1.4455,-1.4387,-1.4327,-1.413,-1.4096,-1.4183,-1.3718,-1.3147,-1.2597,-1.2104,-1.1281,-1.0148,-0.9582,-0.8818,-0.7922,-0.7717,-0.7512,-0.7186,-0.7512,-0.7582,-0.7256,-0.7736,-0.7741,-0.7186,-0.6894,-0.7474,-0.8924,-0.8474,-0.7832,-0.7307,-0.7246,-0.6994,-0.642,-0.6548,-0.6675,-0.6688,-0.6966,-0.7059,-0.695,-0.6954,-0.6927,-0.6961,-0.6986,-0.7208,-0.7439,-0.748,-0.7565,-0.7825,-0.8347,-0.8801,-0.9014,-0.9616,-1.0202,-1.0636,-1.1063,-1.1408,-1.1413,-1.158,-1.1752,-1.1837,-1.1832,-1.2009,-1.2954,-1.313,-1.3548,-1.465,-1.5151,-1.5733,-1.5733,-1.6064,-1.6386,-1.6402,-1.655,-1.6796,-1.6894,-1.6968,-1.6878,-1.67,-1.6692,-1.6652,-1.6403,-1.6506,-1.5924,-1.5272,-1.5463,-1.5375,-1.4851,-1.4782,-1.4817,-1.4901,-1.4817,-1.4482,-1.3984,-1.3646,-1.3392,-1.2863,-1.2498,-1.2451,-1.223,-1.1952,-1.1717,-1.542,-1.542,-1.542,-1.5362,-1.5313,-1.5352,-1.4991,-1.4401,-1.441,-1.3914,-1.3174,-1.3252,-1.3321,-1.3321,-1.3321,-1.3321,-1.3321,-1.3191,-1.3588,-1.4292,-1.3222,-1.2613,-1.2452,-1.1685,-1.085,-0.9958,-0.9256,-0.849,-0.7657,-0.6994,-0.6662,-0.647,-0.6601,-0.6601,-0.6597,-0.6868,-0.6933,-0.6924,-0.6457,-0.6584,-0.7181,-0.7251,-0.7186,-0.7051,-0.6728,-0.6601,-0.6609,-0.6675,-0.6806,-0.6946,-0.6822,-0.6759,-0.6749,-0.6654,-0.6448,-0.6061,-0.5932,-0.6342,-0.7395,-0.7019,-0.7096,-0.7876,-0.8247,-0.8582,-0.9141,-0.9405,-0.9757,-1.025,-1.0641,-1.089,-1.0895,-1.1154,-1.1322,-1.1322,-1.1322,-1.158,-1.2272,-1.2443,-1.2869,-1.3893,-1.4055,-1.43,-1.4636,-1.513,-1.5636,-1.6072,-1.6319,-1.6402,-1.6476,-1.6648,-1.6484,-1.6229,-1.6064,-1.5973,-1.5851,-1.5621,-1.5153,-1.464,-1.4746,-1.4781,-1.4405,-1.4448,-1.465,-1.4146,-1.4146,-1.3808,-1.3215,-1.313,-1.296,-1.2668,-1.2524,-1.2397,-1.2131,-1.2079,-1.1972,-1.542,-1.5352,-1.5245,-1.5059,-1.4902,-1.4815,-1.4332,-1.3563,-1.3606,-1.3183,-1.2328,-1.2266,-1.2151,-1.202,-1.2328,-1.2512,-1.2512,-1.2512,-1.303,-1.3786,-1.2653,-1.2104,-1.1919,-1.1435,-1.0667,-0.9958,-0.9256,-0.8296,-0.7326,-0.6605,-0.6079,-0.5815,-0.5756,-0.5818,-0.5873,-0.5877,-0.6005,-0.6207,-0.5939,-0.5815,-0.5881,-0.6145,-0.6412,-0.6601,-0.6342,-0.6342,-0.6671,-0.6675,-0.6741,-0.6937,-0.6675,-0.6412,-0.6346,-0.6265,-0.5942,-0.5284,-0.5061,-0.5428,-0.6777,-0.6244,-0.6318,-0.733,-0.7675,-0.8155,-0.8842,-0.9215,-0.9578,-0.9976,-1.0294,-1.0463,-1.0463,-1.0722,-1.0901,-1.0982,-1.0977,-1.1149,-1.1499,-1.1666,-1.21,-1.2875,-1.313,-1.3124,-1.362,-1.4035,-1.4455,-1.5054,-1.5477,-1.5891,-1.5891,-1.5974,-1.5891,-1.5477,-1.5228,-1.4982,-1.5027,-1.4993,-1.4385,-1.4029,-1.4186,-1.4205,-1.3878,-1.3971,-1.4052,-1.3336,-1.3328,-1.33,-1.296,-1.279,-1.262,-1.2554,-1.2385,-1.2125,-1.1866,-1.1854,-1.1975,-1.542,-1.5294,-1.4765,-1.441,-1.4204,-1.3614,-1.3252,-1.3017,-1.2887,-1.2458,-1.1834,-1.1663,-1.124,-1.087,-1.1903,-1.2443,-1.2451,-1.2389,-1.2458,-1.2605,-1.2458,-1.1835,-1.0767,-1.1363,-1.1045,-0.9894,-0.9646,-0.8613,-0.6872,-0.6675,-0.6083,-0.4964,-0.5296,-0.5156,-0.4888,-0.4821,-0.4688,-0.4888,-0.509,-0.5153,-0.5223,-0.5359,-0.5693,-0.5888,-0.6083,-0.6346,-0.6609,-0.6482,-0.642,-0.6416,-0.6478,-0.6207,-0.5474,-0.569,-0.5436,-0.4762,-0.4688,-0.4809,-0.514,-0.5157,-0.5312,-0.587,-0.6831,-0.756,-0.8242,-0.9077,-0.9616,-0.9927,-0.9956,-1.0038,-0.9946,-1.012,-1.0212,-1.0207,-1.012,-1.0294,-1.0636,-1.1149,-1.1322,-1.1671,-1.2272,-1.2778,-1.2936,-1.3014,-1.3184,-1.3444,-1.3957,-1.4552,-1.4706,-1.4789,-1.4789,-1.4455,-1.3957,-1.3457,-1.4455,-1.4455,-1.4203,-1.3871,-1.3484,-1.3574,-1.2962,-1.2553,-1.2541,-1.2541,-1.2686,-1.2753,-1.2662,-1.2626,-1.2487,-1.2343,-1.2107,-1.1848,-1.1282,-1.1252,-1.1241,-1.5167,-1.4765,-1.4103,-1.3743,-1.3623,-1.3312,-1.2834,-1.2228,-1.2151,-1.1717,-1.1108,-1.0926,-1.0807,-1.0624,-1.1045,-1.1288,-1.1288,-1.1296,-1.1288,-1.1296,-1.1288,-1.1024,-1.069,-1.0717,-1.0478,-0.9907,-0.967,-0.863,-0.6994,-0.6601,-0.6079,-0.5292,-0.5156,-0.5024,-0.4758,-0.4761,-0.4761,-0.4761,-0.4957,-0.5087,-0.5087,-0.5292,-0.5292,-0.5156,-0.569,-0.6017,-0.6017,-0.5947,-0.5749,-0.5415,-0.5147,-0.4812,-0.4495,-0.4155,-0.4192,-0.4426,-0.3774,-0.3799,-0.4761,-0.4533,-0.4688,-0.5702,-0.6688,-0.7412,-0.8086,-0.8853,-0.9478,-0.9465,-0.9519,-0.934,-0.889,-0.9419,-1.0038,-1.0038,-1.0038,-1.012,-1.0463,-1.0717,-1.0977,-1.1235,-1.1494,-1.1574,-1.1918,-1.1918,-1.2169,-1.276,-1.319,-1.3444,-1.3607,-1.3691,-1.3691,-1.3281,-1.2863,-1.2613,-1.2778,-1.3203,-1.3294,-1.3209,-1.3033,-1.3002,-1.2681,-1.2314,-1.226,-1.23,-1.2272,-1.2035,-1.2052,-1.2123,-1.2016,-1.1796,-1.1569,-1.1088,-1.0636,-1.0436,-1.0268,-1.4579,-1.4103,-1.3442,-1.3078,-1.2956,-1.2712,-1.222,-1.1615,-1.1476,-1.1163,-1.0751,-1.0618,-1.0618,-1.0618,-1.0618,-1.0618,-1.0618,-1.0618,-1.0618,-1.0618,-1.0618,-1.0618,-1.0555,-1.0428,-1.0225,-0.9907,-0.9548,-0.8641,-0.7381,-0.6863,-0.6404,-0.5885,-0.5554,-0.5289,-0.516,-0.4897,-0.4827,-0.496,-0.4755,-0.4619,-0.4818,-0.4752,-0.4622,-0.4628,-0.5096,-0.5286,-0.508,-0.5017,-0.4815,-0.448,-0.4079,-0.3897,-0.3813,-0.3124,-0.3069,-0.3687,-0.3062,-0.2979,-0.3912,-0.3679,-0.391,-0.5079,-0.5978,-0.6687,-0.7338,-0.801,-0.8357,-0.8408,-0.8368,-0.8013,-0.7742,-0.8269,-0.8973,-0.9327,-0.9598,-0.9859,-1.0294,-1.0554,-1.0722,-1.0895,-1.0722,-1.0636,-1.0809,-1.0895,-1.1149,-1.174,-1.2169,-1.2419,-1.2504,-1.251,-1.251,-1.2095,-1.1837,-1.1752,-1.2009,-1.2351,-1.2675,-1.265,-1.2554,-1.2487,-1.2218,-1.1964,-1.1858,-1.1904,-1.1746,-1.1479,-1.1427,-1.1502,-1.1373,-1.1097,-1.0679,-1.0105,-0.9848,-0.964,-0.9489,-1.3502,-1.3381,-1.2765,-1.2451,-1.2274,-1.1732,-1.131,-1.1185,-1.0926,-1.0863,-1.0807,-1.0688,-1.0624,-1.0618,-1.0624,-1.0618,-1.0618,-1.0618,-1.0618,-1.0618,-1.0618,-1.0618,-1.0618,-1.0555,-1.0498,-1.0244,-0.9466,-0.8759,-0.8166,-0.7587,-0.7195,-0.6798,-0.6145,-0.5818,-0.5888,-0.5024,-0.4824,-0.4957,-0.4223,-0.3887,-0.4154,-0.3751,-0.3689,-0.4164,-0.4231,-0.4159,-0.3949,-0.3685,-0.3685,-0.3611,-0.3611,-0.3594,-0.3411,-0.28,-0.2358,-0.2561,-0.2474,-0.2507,-0.2588,-0.2668,-0.3056,-0.3853,-0.4564,-0.5328,-0.585,-0.6499,-0.69,-0.6744,-0.6593,-0.6416,-0.6416,-0.6505,-0.7119,-0.8006,-0.8623,-0.9065,-0.9772,-1.0294,-1.0549,-1.0463,-1.0202,-1.0033,-1.0038,-1.012,-1.0294,-1.0467,-1.0895,-1.1322,-1.1322,-1.1408,-1.1327,-1.1241,-1.1063,-1.0982,-1.1327,-1.1649,-1.1928,-1.2141,-1.2123,-1.2016,-1.1419,-1.1092,-1.0956,-1.0911,-1.0423,-1.0169,-1.039,-1.0464,-1.0437,-1.0151,-0.9673,-0.9228,-0.8957,-0.8699,-0.8623,-1.2826,-1.2765,-1.2158,-1.1856,-1.1794,-1.1428,-1.124,-1.1247,-1.1059,-1.1003,-1.0996,-1.0807,-1.0744,-1.0744,-1.0618,-1.0618,-1.0618,-1.0618,-1.0618,-1.0561,-1.0561,-1.0555,-1.0555,-1.0555,-1.0561,-1.0448,-1.011,-0.9466,-0.8823,-0.8501,-0.8107,-0.7447,-0.6597,-0.6207,-0.6013,-0.5017,-0.4486,-0.4556,-0.4023,-0.3825,-0.3956,-0.362,-0.3422,-0.3291,-0.3157,-0.2618,-0.1746,-0.2889,-0.309,-0.2214,-0.2283,-0.2449,-0.2449,-0.2301,-0.2214,-0.2416,-0.2476,-0.251,-0.251,-0.251,-0.2746,-0.3319,-0.4138,-0.4724,-0.504,-0.58,-0.6104,-0.5891,-0.5894,-0.5716,-0.5184,-0.5272,-0.598,-0.7302,-0.7562,-0.7918,-0.8536,-0.9065,-0.9414,-0.9501,-0.9772,-0.9951,-1.0038,-0.9951,-0.9946,-0.9859,-1.0207,-1.0381,-1.0376,-1.0376,-1.0381,-1.0381,-1.0294,-1.0376,-1.089,-1.1161,-1.1259,-1.136,-1.1381,-1.1221,-1.0708,-1.0046,-0.9915,-0.9711,-0.9232,-0.9111,-0.933,-0.9388,-0.9374,-0.9256,-0.8889,-0.8453,-0.803,-0.7787,-0.771,-1.2212,-1.2158,-1.174,-1.1622,-1.156,-1.1435,-1.1428,-1.1365,-1.124,-1.1185,-1.1122,-1.0989,-1.0933,-1.087,-1.0807,-1.0618,-1.0415,-1.0358,-1.0448,-1.0538,-1.0244,-1.0104,-0.9913,-1.0104,-1.0371,-1.0511,-1.0371,-0.9856,-0.9151,-0.8888,-0.8361,-0.7517,-0.6732,-0.6338,-0.6013,-0.5017,-0.4489,-0.4556,-0.3959,-0.3625,-0.3625,-0.3288,-0.2751,-0.2284,-0.1947,-0.1412,-0.0674,-0.1902,-0.2105,-0.1415,-0.1479,-0.1779,-0.1843,-0.1954,-0.2072,-0.229,-0.233,-0.2431,-0.251,-0.251,-0.2668,-0.3163,-0.3681,-0.4103,-0.4307,-0.4884,-0.5001,-0.4743,-0.4565,-0.4387,-0.3944,-0.4032,-0.4741,-0.5625,-0.6419,-0.7037,-0.7658,-0.8185,-0.8623,-0.889,-0.9331,-0.951,-0.9598,-0.9598,-0.9419,-0.924,-0.9157,-0.9157,-0.9157,-0.9152,-0.9331,-0.9506,-0.9767,-1.0111,-1.0631,-1.068,-1.0511,-1.0455,-1.0418,-1.0227,-0.9842,-0.9001,-0.8581,-0.8494,-0.8134,-0.8435,-0.8649,-0.8394,-0.83,-0.8169,-0.8093,-0.7557,-0.7022,-0.7022,-0.6945,-1.1747,-1.1622,-1.1622,-1.1622,-1.1622,-1.156,-1.156,-1.156,-1.1303,-1.1185,-1.1185,-1.087,-1.087,-1.0933,-1.0744,-1.0415,-1.0021,-0.9894,-1.0079,-1.0129,-0.9701,-0.9128,-0.893,-0.9384,-0.9907,-1.0295,-1.0238,-0.9856,-0.9081,-0.8683,-0.8107,-0.733,-0.6741,-0.6346,-0.6013,-0.5153,-0.4755,-0.4891,-0.3823,-0.3422,-0.3692,-0.2889,-0.2085,-0.1412,-0.1143,-0.0875,-0.0811,-0.0964,-0.0968,-0.0814,-0.1293,-0.1603,-0.1664,-0.1681,-0.1871,-0.2182,-0.2195,-0.2275,-0.2431,-0.2433,-0.2589,-0.2914,-0.3179,-0.3359,-0.3374,-0.3568,-0.3662,-0.3318,-0.3142,-0.3053,-0.3053,-0.3053,-0.332,-0.3765,-0.5095,-0.6245,-0.739,-0.7566,-0.783,-0.836,-0.8715,-0.889,-0.889,-0.8803,-0.8536,-0.8185,-0.8009,-0.8097,-0.8101,-0.8277,-0.8273,-0.8627,-0.9157,-0.9534,-0.9947,-1.0032,-0.9853,-0.9428,-0.9333,-0.9082,-0.882,-0.8021,-0.7455,-0.7362,-0.735,-0.7718,-0.7787,-0.7557,-0.7403,-0.7403,-0.7022,-0.649,-0.6335,-0.649,-0.6567,-1.1802,-1.1747,-1.1622,-1.1622,-1.1622,-1.1622,-1.156,-1.1498,-1.0926,-1.0674,-1.0611,-1.004,-0.9843,-0.9779,-0.9658,-0.9396,-0.9332,-0.9268,-0.9303,-0.9285,-0.8582,-0.8597,-0.8971,-0.9308,-0.9512,-0.957,-0.9646,-0.9268,-0.856,-0.8296,-0.8037,-0.7792,-0.6798,-0.64,-0.6141,-0.508,-0.4486,-0.4489,-0.4023,-0.3556,-0.3556,-0.3224,-0.2824,-0.2418,-0.168,-0.1279,-0.1349,-0.1451,-0.1413,-0.1143,-0.1214,-0.1377,-0.1492,-0.1499,-0.1595,-0.1794,-0.1885,-0.1964,-0.1964,-0.1963,-0.212,-0.2358,-0.2501,-0.2643,-0.2859,-0.2932,-0.3001,-0.286,-0.2875,-0.2875,-0.2875,-0.2964,-0.3141,-0.3587,-0.4476,-0.5008,-0.5361,-0.598,-0.6684,-0.6864,-0.7566,-0.8009,-0.8097,-0.8097,-0.8009,-0.7749,-0.7661,-0.7661,-0.7485,-0.7573,-0.7661,-0.8109,-0.8536,-0.8801,-0.9077,-0.9262,-0.909,-0.838,-0.81,-0.7886,-0.7489,-0.6924,-0.6655,-0.6493,-0.6729,-0.7026,-0.6872,-0.6641,-0.6641,-0.6795,-0.6567,-0.6261,-0.6261,-0.6335,-0.6412,-1.1872,-1.174,-1.1303,-1.1115,-1.1115,-1.0856,-1.073,-1.0667,-1.0288,-1.0098,-0.997,-0.9652,-0.9396,-0.9396,-0.9268,-0.9017,-0.8818,-0.8818,-0.8641,-0.8208,-0.7526,-0.7488,-0.7991,-0.8398,-0.8608,-0.865,-0.893,-0.8619,-0.8042,-0.7912,-0.7647,-0.7199,-0.6601,-0.6272,-0.6145,-0.5348,-0.4755,-0.4691,-0.4425,-0.4156,-0.4023,-0.3758,-0.3558,-0.3291,-0.2555,-0.2166,-0.2153,-0.2143,-0.1818,-0.1239,-0.1021,-0.1033,-0.083,-0.0681,-0.0689,-0.0939,-0.0863,-0.0784,-0.0863,-0.0863,-0.0863,-0.1102,-0.1362,-0.1722,-0.2014,-0.2403,-0.272,-0.2864,-0.2873,-0.2964,-0.3232,-0.332,-0.3587,-0.3855,-0.4121,-0.4297,-0.4297,-0.5095,-0.5714,-0.6157,-0.6773,-0.7394,-0.7394,-0.7394,-0.7221,-0.6956,-0.6786,-0.6782,-0.6782,-0.6959,-0.7136,-0.758,-0.7903,-0.8174,-0.8385,-0.8459,-0.823,-0.7641,-0.7348,-0.7058,-0.6787,-0.6261,-0.6261,-0.6338,-0.6261,-0.6261,-0.6261,-0.6261,-0.6335,-0.6412,-0.6338,-0.6257,-0.618,-0.6103,-0.6103,-1.1903,-1.1622,-1.08,-1.0421,-1.0218,-0.9773,-0.9646,-0.9518,-0.9454,-0.939,-0.9326,-0.9326,-0.9069,-0.9332,-0.8941,-0.8877,-0.8361,-0.8361,-0.7972,-0.7456,-0.6859,-0.6645,-0.6767,-0.7437,-0.7767,-0.7941,-0.8215,-0.7967,-0.7521,-0.7396,-0.6999,-0.6544,-0.628,-0.6148,-0.6017,-0.5624,-0.5428,-0.5292,-0.5027,-0.4827,-0.4691,-0.4422,-0.4223,-0.3961,-0.336,-0.2832,-0.2584,-0.2365,-0.1863,-0.0883,-0.0808,-0.0523,-0.0,0.038,0.0384,0.0156,0.0235,0.0392,0.047,0.0235,0.0392,0.0079,-0.0399,-0.0735,-0.1167,-0.1789,-0.2265,-0.267,-0.2778,-0.3141,-0.3587,-0.4032,-0.4121,-0.421,-0.4297,-0.4297,-0.4389,-0.4743,-0.5275,-0.5891,-0.6422,-0.6602,-0.6691,-0.6605,-0.6517,-0.6346,-0.6171,-0.6171,-0.6257,-0.6346,-0.6609,-0.7048,-0.7267,-0.7552,-0.7661,-0.7757,-0.7345,-0.6842,-0.6738,-0.6525,-0.6525,-0.6261,-0.6261,-0.6261,-0.6261,-0.6261,-0.6261,-0.6261,-0.6257,-0.6022,-0.5786,-0.5867,-0.5944,-0.5786,-0.5786,-1.1287,-1.1241,-1.0428,-0.9748,-0.9291,-0.9372,-0.9454,-0.939,-0.8941,-0.8683,-0.8619,-0.8231,-0.7977,-0.7977,-0.8037,-0.7842,-0.7782,-0.7782,-0.7461,-0.7007,-0.6597,-0.6404,-0.6535,-0.7129,-0.7451,-0.7577,-0.7647,-0.7326,-0.6806,-0.6679,-0.6552,-0.6416,-0.6284,-0.6214,-0.6083,-0.5888,-0.569,-0.5554,-0.5488,-0.5219,-0.5024,-0.4888,-0.4691,-0.4431,-0.3632,-0.2768,-0.2163,-0.1979,-0.1643,-0.0919,-0.0309,-0.0,0.0077,0.0155,0.0233,0.0312,0.0235,0.0314,0.0235,0.0314,0.0078,0.0079,-0.0079,-0.0479,-0.0735,-0.1003,-0.1453,-0.192,-0.2396,-0.2948,-0.3931,-0.4206,-0.4372,-0.4368,-0.4368,-0.4372,-0.4383,-0.4739,-0.5097,-0.5275,-0.5725,-0.5997,-0.5994,-0.5994,-0.5908,-0.5733,-0.5733,-0.5733,-0.5822,-0.5908,-0.6239,-0.6753,-0.6867,-0.7128,-0.7097,-0.7197,-0.6896,-0.6472,-0.623,-0.6022,-0.6022,-0.5944,-0.5867,-0.6022,-0.6261,-0.6257,-0.6103,-0.6103,-0.6022,-0.5628,-0.5237,-0.5082,-0.5082,-0.516,-0.5315,-1.0703,-1.0843,-0.9781,-0.9139,-0.8784,-0.8613,-0.856,-0.849,-0.8231,-0.8042,-0.7977,-0.7587,-0.7526,-0.7526,-0.7526,-0.7526,-0.7526,-0.7526,-0.7335,-0.6946,-0.6601,-0.6408,-0.6416,-0.6745,-0.7003,-0.7003,-0.7003,-0.6745,-0.6482,-0.642,-0.642,-0.642,-0.635,-0.6284,-0.6284,-0.6083,-0.5954,-0.5822,-0.5686,-0.5484,-0.5289,-0.4888,-0.4422,-0.4043,-0.3398,-0.2854,-0.2353,-0.2204,-0.1803,-0.1076,-0.0312,0.039,0.0542,0.0618,0.0695,0.085,0.1094,0.1176,0.1176,0.1177,0.1177,0.0941,0.0706,0.0318,-0.0,-0.0247,-0.0919,-0.1451,-0.2002,-0.2648,-0.415,-0.4763,-0.484,-0.4786,-0.4781,-0.4781,-0.4795,-0.4946,-0.501,-0.5099,-0.546,-0.5644,-0.5733,-0.5716,-0.5719,-0.5711,-0.5891,-0.5894,-0.5994,-0.6071,-0.6286,-0.6602,-0.6628,-0.6685,-0.6641,-0.6568,-0.6537,-0.6155,-0.5811,-0.5631,-0.5473,-0.5395,-0.5318,-0.5631,-0.5944,-0.5867,-0.5786,-0.5786,-0.5473,-0.4846,-0.4377,-0.4144,-0.4144,-0.43,-0.4455,-1.0086,-1.0295,-0.9016,-0.8516,-0.8388,-0.7777,-0.7529,-0.7469,-0.7512,-0.7591,-0.7526,-0.7526,-0.7526,-0.7526,-0.7526,-0.7526,-0.7526,-0.7526,-0.7335,-0.7016,-0.6601,-0.6408,-0.6416,-0.6486,-0.6486,-0.642,-0.6486,-0.642,-0.642,-0.642,-0.642,-0.642,-0.642,-0.642,-0.6354,-0.6284,-0.6152,-0.5958,-0.562,-0.5282,-0.5024,-0.4486,-0.3687,-0.3098,-0.2931,-0.2702,-0.2329,-0.2177,-0.1941,-0.1429,-0.0614,0.0153,0.0756,0.1216,0.1371,0.168,0.1868,0.1881,0.1805,0.2041,0.204,0.2275,0.1725,0.1186,0.0803,0.0325,-0.0165,-0.0836,-0.1363,-0.242,-0.4325,-0.5011,-0.5304,-0.5331,-0.5379,-0.5371,-0.532,-0.5208,-0.5102,-0.5156,-0.544,-0.5636,-0.5697,-0.5673,-0.5681,-0.5687,-0.5948,-0.6036,-0.6125,-0.6192,-0.6375,-0.6465,-0.6476,-0.6354,-0.6321,-0.6265,-0.6227,-0.5649,-0.5318,-0.5162,-0.4927,-0.4768,-0.4768,-0.524,-0.5476,-0.5318,-0.5082,-0.4927,-0.4457,-0.383,-0.3521,-0.3365,-0.3365,-0.3521,-0.3599,-0.9099,-0.9003,-0.8235,-0.7641,-0.7228,-0.7197,-0.7273,-0.7302,-0.738,-0.7526,-0.7526,-0.7526,-0.7526,-0.7526,-0.7526,-0.7526,-0.7526,-0.7526,-0.74,-0.7082,-0.6671,-0.6408,-0.6416,-0.642,-0.642,-0.642,-0.642,-0.642,-0.642,-0.642,-0.642,-0.642,-0.642,-0.642,-0.642,-0.6354,-0.6222,-0.5958,-0.5352,-0.4815,-0.4148,-0.3682,-0.3015,-0.235,-0.2232,-0.1984,-0.1602,-0.1412,-0.129,-0.1243,-0.1105,-0.0729,-0.0146,0.0681,0.1085,0.1319,0.1484,0.1571,0.1571,0.1571,0.1492,0.1492,0.1335,0.1256,0.1191,0.1045,0.065,0.0329,-0.075,-0.2366,-0.5076,-0.5241,-0.5315,-0.5368,-0.5347,-0.5344,-0.5358,-0.5325,-0.5225,-0.5284,-0.5537,-0.5684,-0.5621,-0.5572,-0.5559,-0.5626,-0.5698,-0.586,-0.5855,-0.6087,-0.6288,-0.6373,-0.6453,-0.6234,-0.6077,-0.5999,-0.5883,-0.4935,-0.4613,-0.4621,-0.4384,-0.4146,-0.4224,-0.4224,-0.4457,-0.4457,-0.4302,-0.4146,-0.36,-0.3056,-0.2743,-0.2508,-0.2508,-0.2585,-0.2665,-0.8361,-0.8219,-0.7802,-0.7145,-0.6644,-0.682,-0.7064,-0.7168,-0.7321,-0.7426,-0.7502,-0.7526,-0.7526,-0.7526,-0.7526,-0.7526,-0.7526,-0.7526,-0.7335,-0.7082,-0.6671,-0.6408,-0.6416,-0.642,-0.642,-0.642,-0.642,-0.642,-0.642,-0.642,-0.6354,-0.642,-0.642,-0.642,-0.6354,-0.6284,-0.6226,-0.5899,-0.516,-0.3944,-0.2874,-0.2544,-0.228,-0.1812,-0.1612,-0.1421,-0.1231,-0.1117,-0.1127,-0.1146,-0.1247,-0.1104,-0.0742,-0.0378,0.0233,0.0689,0.0853,0.0943,0.0943,0.0943,0.0943,0.0943,0.0943,0.0943,0.0945,0.0953,0.1045,0.0894,0.0327,-0.1155,-0.2392,-0.4214,-0.5181,-0.5211,-0.5203,-0.5205,-0.513,-0.5173,-0.5149,-0.5129,-0.5273,-0.5312,-0.5483,-0.5445,-0.5423,-0.5482,-0.5621,-0.561,-0.5681,-0.5921,-0.6226,-0.5906,-0.5919,-0.5839,-0.5655,-0.5655,-0.5329,-0.4382,-0.3756,-0.3761,-0.3448,-0.3054,-0.2663,-0.2508,-0.282,-0.36,-0.3841,-0.3845,-0.2982,-0.2276,-0.2041,-0.1805,-0.1649,-0.157,-0.1884,-0.7913,-0.7879,-0.7488,-0.6882,-0.6307,-0.6575,-0.6875,-0.7083,-0.7078,-0.7173,-0.7324,-0.7329,-0.7343,-0.7464,-0.7502,-0.7526,-0.7526,-0.7526,-0.741,-0.7152,-0.6671,-0.6404,-0.6416,-0.642,-0.642,-0.642,-0.6152,-0.6284,-0.6354,-0.6218,-0.6148,-0.6017,-0.6086,-0.5954,-0.5885,-0.5617,-0.5833,-0.5638,-0.4761,-0.3078,-0.174,-0.1541,-0.1678,-0.1143,-0.1076,-0.1144,-0.1082,-0.1096,-0.1107,-0.1125,-0.1155,-0.1189,-0.1272,-0.1228,-0.0842,-0.0075,0.023,0.0313,0.0393,0.0471,0.0393,0.0157,0.0157,0.0236,0.0236,0.0236,0.0475,0.0724,0.0323,-0.0484,-0.1531,-0.3147,-0.4487,-0.4762,-0.4732,-0.4646,-0.4358,-0.4232,-0.4188,-0.4398,-0.4769,-0.4974,-0.5162,-0.5413,-0.5397,-0.5249,-0.53,-0.5387,-0.5465,-0.581,-0.5866,-0.5394,-0.5179,-0.5218,-0.526,-0.5268,-0.4628,-0.3602,-0.2899,-0.2589,-0.2198,-0.1649,-0.1491,-0.1568,-0.2275,-0.2978,-0.3299,-0.3142,-0.2199,-0.157,-0.1335,-0.1336,-0.1335,-0.1335,-0.1492,-0.7931,-0.7865,-0.7356,-0.6802,-0.6298,-0.6431,-0.6582,-0.6585,-0.6759,-0.6894,-0.6852,-0.689,-0.6988,-0.7129,-0.7311,-0.7442,-0.7451,-0.748,-0.7424,-0.7231,-0.6544,-0.6137,-0.635,-0.642,-0.6152,-0.602,-0.5683,-0.5947,-0.5951,-0.5679,-0.5547,-0.5415,-0.5017,-0.4619,-0.4818,-0.4686,-0.4425,-0.45,-0.3424,-0.2214,-0.1342,-0.1208,-0.121,-0.1143,-0.1076,-0.1076,-0.1076,-0.1087,-0.109,-0.1093,-0.1118,-0.1134,-0.114,-0.1187,-0.121,-0.0989,-0.0695,-0.0471,-0.0393,-0.0157,-0.0157,-0.0629,-0.0864,-0.1022,-0.0786,-0.055,-0.0393,-0.0393,-0.0474,-0.087,-0.1504,-0.2447,-0.3224,-0.3536,-0.3686,-0.337,-0.3062,-0.2835,-0.2855,-0.3333,-0.3614,-0.429,-0.4723,-0.5046,-0.5361,-0.5209,-0.5078,-0.501,-0.5105,-0.5453,-0.4651,-0.381,-0.3476,-0.3454,-0.3604,-0.3847,-0.0,-0.0,-0.2275,-0.1729,-0.1492,-0.1178,-0.1018,-0.1252,-0.1879,-0.1953,-0.1714,-0.1482,-0.1019,-0.1021,-0.1021,-0.1179,-0.1336,-0.1336,-0.1258,-0.7634,-0.7854,-0.7306,-0.674,-0.6244,-0.6313,-0.6431,-0.6478,-0.6334,-0.6384,-0.6349,-0.6181,-0.6107,-0.6327,-0.643,-0.6446,-0.6613,-0.712,-0.732,-0.6775,-0.5951,-0.5209,-0.515,-0.5216,-0.5216,-0.5219,-0.4951,-0.4885,-0.5084,-0.5017,-0.4749,-0.4686,-0.4483,-0.435,-0.4087,-0.402,-0.4028,-0.3627,-0.2619,-0.1545,-0.1209,-0.1076,-0.1076,-0.1076,-0.1076,-0.1076,-0.1078,-0.1095,-0.11,-0.111,-0.1143,-0.1172,-0.1181,-0.1212,-0.1238,-0.1239,-0.1092,-0.1021,-0.0943,-0.0786,-0.0864,-0.0786,-0.0943,-0.0943,-0.1179,-0.11,-0.1022,-0.1022,-0.1022,-0.1335,-0.1649,-0.1805,-0.1962,-0.2276,-0.2511,-0.2196,-0.1725,-0.1333,-0.1336,-0.1883,-0.2512,-0.3094,-0.3597,-0.3593,-0.3673,-0.357,-0.3463,-0.3467,-0.3946,-0.4668,-0.3396,-0.1573,-0.1413,-0.1333,-0.1411,-0.0,-0.0,-0.0,-0.1727,-0.1336,-0.1178,-0.102,-0.0,-0.0,-0.1167,-0.1009,-0.0386,-0.0,-0.0,-0.0,-0.0864,-0.11,-0.1336,-0.1179,-0.1021,-0.7079,-0.7408,-0.6977,-0.6411,-0.5901,-0.5937,-0.5981,-0.6041,-0.5762,-0.5727,-0.5789,-0.5596,-0.5445,-0.5506,-0.5658,-0.5784,-0.5653,-0.6637,-0.6713,-0.5973,-0.4815,-0.3872,-0.3941,-0.4013,-0.4414,-0.4284,-0.4151,-0.4084,-0.4018,-0.3887,-0.3754,-0.3954,-0.3687,-0.3687,-0.3623,-0.3288,-0.3023,-0.2757,-0.1814,-0.121,-0.1076,-0.1076,-0.1076,-0.1076,-0.1076,-0.1076,-0.1079,-0.1093,-0.1106,-0.1115,-0.1149,-0.1174,-0.1191,-0.1216,-0.1243,-0.1327,-0.1257,-0.1258,-0.1258,-0.1179,-0.11,-0.0943,-0.0786,-0.1022,-0.1258,-0.1336,-0.1336,-0.1258,-0.1258,-0.1258,-0.1336,-0.1335,-0.1492,-0.1414,-0.1257,-0.0943,-0.0786,-0.0864,-0.0706,-0.0863,-0.1334,-0.1571,-0.1893,-0.1886,-0.1883,-0.1882,-0.1879,-0.0,-0.0,-0.0,-0.0,-0.0,-0.0,-0.0,-0.0,-0.0,-0.0,-0.0,-0.0,-0.0,-0.0,-0.0,-0.0,-0.0,-0.0,-0.0532,-0.015,-0.0,-0.0,-0.0,-0.0707,-0.11,-0.1258,-0.1021,-0.0471,-0.6187,-0.6258,-0.6041,-0.5546,-0.5042,-0.5117,-0.5132,-0.5159,-0.5033,-0.4993,-0.5001,-0.5091,-0.5111,-0.5185,-0.5333,-0.5357,-0.5244,-0.5756,-0.5484,-0.455,-0.3336,-0.2669,-0.2872,-0.3542,-0.4079,-0.4018,-0.362,-0.3284,-0.3151,-0.2887,-0.2952,-0.3151,-0.2887,-0.2555,-0.2421,-0.2351,-0.1949,-0.1747,-0.121,-0.1143,-0.1076,-0.1076,-0.1076,-0.1076,-0.1076,-0.1076,-0.1076,-0.1089,-0.1101,-0.1104,-0.1142,-0.1168,-0.1196,-0.1216,-0.1239,-0.1253,-0.1336,-0.1336,-0.1336,-0.1336,-0.1258,-0.1258,-0.1258,-0.1179,-0.1258,-0.1336,-0.1336,-0.1336,-0.1336,-0.1336,-0.1336,-0.1336,-0.1336,-0.1258,-0.1179,-0.1179,-0.11,-0.11,-0.0943,-0.0393,-0.0,-0.0,-0.0,-0.0,-0.0,-0.0,-0.0,-0.0,-0.0,-0.0,-0.0,-0.0,-0.0,-0.0,-0.0,-0.0,-0.0,-0.0,-0.0,-0.0,-0.0,-0.0,-0.0,-0.0,0.0671,0.0369,-0.0,-0.0,-0.0,-0.0,-0.0392,-0.0312,-0.0156,0.0235,0.0784,-0.574,-0.611,-0.5245,-0.4611,-0.4371,-0.478,-0.4956,-0.4842,-0.4567,-0.4294,-0.4135,-0.4188,-0.4216,-0.4292,-0.4426,-0.4559,-0.44,-0.4211,-0.4064,-0.3623,-0.275,-0.228,-0.2482,-0.2681,-0.3021,-0.3021,-0.2686,-0.2619,-0.2552,-0.2287,-0.2354,-0.242,-0.2287,-0.2287,-0.2085,-0.1816,-0.1412,-0.121,-0.1076,-0.1076,-0.1076,-0.1076,-0.1076,-0.1076,-0.1076,-0.1087,-0.1103,-0.1123,-0.114,-0.1158,-0.1182,-0.1198,-0.1209,-0.1228,-0.1241,-0.1255,-0.1336,-0.1336,-0.1336,-0.1336,-0.1336,-0.1336,-0.1336,-0.1336,-0.1336,-0.1336,-0.1336,-0.1336,-0.1336,-0.1336,-0.1336,-0.1336,-0.1336,-0.1336,-0.1336,-0.1336,-0.1336,-0.1336,-0.1258,-0.0707,-0.0,-0.0,-0.0,-0.0,-0.0,-0.0,-0.0,-0.0,-0.0,-0.0,-0.0,-0.0,-0.0,-0.0,-0.0,-0.0,-0.0,-0.0,-0.0,-0.0,-0.0,-0.0,-0.0,-0.0,0.1813,0.1584,0.1373,0.1325,0.1199,0.0991,0.1,0.1079,0.1317,0.1484,0.2036,-0.5139,-0.554,-0.4573,-0.4009,-0.3938,-0.4395,-0.457,-0.446,-0.4184,-0.391,-0.3585,-0.3585,-0.3585,-0.3642,-0.3778,-0.3819,-0.3747,-0.35,-0.3184,-0.2818,-0.2435,-0.219,-0.2199,-0.2277,-0.2421,-0.2221,-0.2221,-0.222,-0.2287,-0.2221,-0.222,-0.222,-0.2221,-0.2221,-0.2085,-0.1816,-0.1479,-0.121,-0.1076,-0.1076,-0.1076,-0.1076,-0.1076,-0.1076,-0.1076,-0.1091,-0.1112,-0.1133,-0.1157,-0.1181,-0.1206,-0.1228,-0.1238,-0.1245,-0.1249,-0.1333,-0.1336,-0.1336,-0.1336,-0.1336,-0.1336,-0.1336,-0.1336,-0.1336,-0.1336,-0.1336,-0.1336,-0.1336,-0.1336,-0.1336,-0.1336,-0.1336,-0.1336,-0.1336,-0.1336,-0.1336,-0.1336,-0.1336,-0.1336,-0.0,-0.0,-0.0,-0.0,-0.0,-0.0,-0.0,-0.0,-0.0,-0.0,-0.0,-0.0,-0.0,-0.0,-0.0,-0.0,-0.0,-0.0,-0.0,-0.0,-0.0,-0.0,0.3458,0.4301,0.361,0.3052,0.2819,0.2749,0.2693,0.2466,0.2233,0.2407,0.2667,0.2843,0.3021,0.3283,-0.4263,-0.4478,-0.4181,-0.3846,-0.3669,-0.3738,-0.3799,-0.3805,-0.3694,-0.3641,-0.3585,-0.3585,-0.3585,-0.3615,-0.3729,-0.3666,-0.3461,-0.3371,-0.3057,-0.2516,-0.2046,-0.2061,-0.2155,-0.218,-0.2207,-0.2218,-0.2221,-0.2221,-0.2221,-0.2085,-0.2085,-0.2018,-0.1951,-0.2018,-0.2153,-0.1816,-0.1547,-0.1344,-0.1143,-0.1143,-0.1076,-0.1076,-0.1076,-0.1076,-0.1076,-0.109,-0.1117,-0.1126,-0.1147,-0.1173,-0.1179,-0.1196,-0.1217,-0.1219,-0.1231,-0.1254,-0.1335,-0.1336,-0.1336,-0.1336,-0.1336,-0.1336,-0.1336,-0.1336,-0.1336,-0.1336,-0.1336,-0.1336,-0.1336,-0.1336,-0.1336,-0.1336,-0.1336,-0.1336,-0.1336,-0.1336,-0.1336,-0.1336,-0.1336,-0.1336,-0.1022,-0.0,-0.0,-0.0,-0.0,-0.0,-0.0,-0.0,-0.0,-0.0,-0.0,-0.0,-0.0,-0.0,-0.0,-0.0,-0.0,-0.0,-0.0,-0.0,0.265,0.3776,0.4288,0.4279,0.4028,0.3582,0.382,0.4134,0.3628,0.3164,0.3946,0.4312,0.4424,0.4306,0.4185,-0.3997,-0.4171,-0.3951,-0.3776,-0.3624,-0.3655,-0.3638,-0.3583,-0.3585,-0.3585,-0.3585,-0.3585,-0.3585,-0.3621,-0.3686,-0.369,-0.3477,-0.2786,-0.2461,-0.2647,-0.1805,-0.1839,-0.1993,-0.2082,-0.2114,-0.2211,-0.2221,-0.2153,-0.2221,-0.1816,-0.1614,-0.1547,-0.1412,-0.1412,-0.1816,-0.1884,-0.1816,-0.1344,-0.1143,-0.1076,-0.1076,-0.1076,-0.1076,-0.1076,-0.1076,-0.1091,-0.1118,-0.1121,-0.1136,-0.1161,-0.1166,-0.1181,-0.1205,-0.1212,-0.1226,-0.125,-0.1336,-0.1336,-0.1336,-0.1336,-0.1336,-0.1336,-0.1336,-0.1336,-0.1336,-0.1336,-0.1336,-0.1336,-0.1336,-0.1336,-0.1336,-0.1336,-0.1336,-0.1336,-0.1336,-0.1336,-0.1336,-0.1336,-0.1336,-0.1258,-0.11,-0.0707,-0.0,-0.0,-0.0,-0.0,-0.0,-0.0,-0.0,-0.0,-0.0,-0.0,-0.0,-0.0,-0.0,-0.0,-0.0,-0.0,-0.0,-0.0,0.4101,0.4299,0.4317,0.4261,0.4284,0.4306,0.4308,0.4247,0.4131,0.4163,0.4528,0.4754,0.4675,0.441,0.422,-0.3788,-0.3873,-0.3808,-0.3711,-0.3623,-0.3583,-0.3585,-0.3585,-0.3585,-0.3585,-0.3585,-0.3585,-0.3585,-0.3607,-0.3653,-0.3405,-0.3182,-0.2589,-0.2081,-0.2269,-0.139,-0.1224,-0.1432,-0.1789,-0.1823,-0.1921,-0.1877,-0.1884,-0.1816,-0.1277,-0.1076,-0.0941,-0.0672,-0.0941,-0.1412,-0.1681,-0.1748,-0.1076,-0.0538,-0.0269,-0.0403,-0.0605,-0.0672,-0.0739,-0.0877,-0.109,-0.1112,-0.1125,-0.1134,-0.1155,-0.1168,-0.118,-0.12,-0.1215,-0.1227,-0.1247,-0.1336,-0.1336,-0.1336,-0.1336,-0.1336,-0.1336,-0.1336,-0.1336,-0.1336,-0.1336,-0.1336,-0.1336,-0.1336,-0.1336,-0.1336,-0.1336,-0.1336,-0.1336,-0.1336,-0.1336,-0.1336,-0.1336,-0.1336,-0.1258,-0.1258,-0.0786,-0.0,-0.0,-0.0,-0.0,-0.0,-0.0,-0.0,-0.0,-0.0,-0.0,-0.0,-0.0,-0.0,-0.0,-0.0,-0.0,0.2751,0.4244,0.4281,0.433,0.4287,0.4325,0.4314,0.4303,0.4303,0.4244,0.4188,0.4214,0.4357,0.4583,0.4735,0.4587,0.4329,-0.3685,-0.3589,-0.3694,-0.3638,-0.3512,-0.3411,-0.3474,-0.3585,-0.3585,-0.3585,-0.3585,-0.3588,-0.3588,-0.3585,-0.3535,-0.3091,-0.2421,-0.209,-0.1924,-0.1479,-0.0932,-0.0707,-0.0665,-0.1062,-0.128,-0.1366,-0.1322,-0.1277,-0.121,-0.0739,-0.047,-0.0403,-0.0202,-0.0269,-0.0672,-0.0941,-0.1076,-0.047,0.0202,0.0403,0.0202,-0.0,-0.0,-0.0,-0.0674,-0.1021,-0.1105,-0.1114,-0.1129,-0.1144,-0.1157,-0.1179,-0.1197,-0.1134,-0.1229,-0.1247,-0.1178,-0.1336,-0.1336,-0.1336,-0.1336,-0.1336,-0.1336,-0.1336,-0.1336,-0.1336,-0.1336,-0.1336,-0.1336,-0.1336,-0.1336,-0.1336,-0.1336,-0.1336,-0.1336,-0.1336,-0.1336,-0.1336,-0.1336,-0.1336,-0.1336,-0.11,-0.0864,-0.0,-0.0,-0.0,-0.0,-0.0,-0.0,-0.0,-0.0,-0.0,-0.0,-0.0,-0.0,-0.0,-0.0,-0.0,0.3136,0.4315,0.4269,0.4325,0.4319,0.4311,0.4306,0.4303,0.4303,0.4303,0.4306,0.4336,0.4363,0.4488,0.4664,0.453,0.4365,-0.2725,-0.2882,-0.2934,-0.2792,-0.2522,-0.24,-0.28,-0.3538,-0.3593,-0.3593,-0.3593,-0.3593,-0.3535,-0.3535,-0.2745,-0.2745,-0.2354,-0.2074,-0.2249,-0.1695,-0.0682,0.0058,0.0119,-0.0307,-0.0693,-0.0775,-0.0792,-0.0739,-0.0605,-0.0202,0.0336,0.0605,0.047,0.0538,0.0403,0.0269,-0.0,0.0067,0.0806,0.0873,0.0605,0.0269,-0.0,-0.0,-0.0672,-0.1017,-0.1089,-0.1092,-0.1102,-0.1104,-0.1105,-0.1124,-0.1175,-0.0665,-0.0299,-0.0468,-0.0863,-0.1336,-0.1336,-0.1336,-0.1336,-0.1336,-0.1336,-0.1336,-0.1336,-0.1336,-0.1336,-0.1336,-0.1336,-0.1336,-0.1336,-0.1336,-0.1336,-0.1336,-0.1336,-0.1336,-0.1258,-0.11,-0.11,-0.1021,-0.1021,-0.0864,-0.0706,-0.0,-0.0,-0.0,0.2747,0.2117,0.141,0.0862,-0.0,-0.0,-0.0,-0.0,0.22,-0.0,-0.0,0.2839,0.37,0.433,0.4303,0.4311,0.4306,0.4303,0.4303,0.4303,0.4303,0.4303,0.4303,0.4303,0.4333,0.4458,0.4577,0.4525,0.45,-0.2233,-0.2426,-0.2528,-0.2603,-0.2691,-0.2537,-0.2713,-0.2914,-0.2919,-0.2916,-0.286,-0.286,-0.3144,-0.3373,-0.2465,-0.1847,-0.1681,-0.1233,-0.1122,-0.0617,-0.0336,0.034,0.0524,0.0181,-0.0186,-0.0256,-0.0197,-0.0202,-0.0067,0.0336,0.0806,0.1008,0.1076,0.1076,0.1008,0.0873,0.0806,0.0873,0.1143,0.1344,0.1076,0.0672,0.047,0.0202,-0.047,-0.0941,-0.1076,-0.1076,-0.108,-0.1094,-0.11,-0.1126,-0.117,-0.0663,-0.015,-0.0389,-0.0863,-0.1257,-0.1336,-0.1336,-0.1336,-0.1336,-0.1336,-0.1336,-0.1336,-0.1336,-0.1336,-0.1336,-0.1336,-0.1336,-0.1336,-0.1336,-0.1336,-0.1336,-0.1336,-0.1336,-0.1178,-0.0942,-0.0785,-0.0628,-0.0471,-0.0235,0.0157,0.094,0.1957,0.3374,0.4084,0.3767,0.2899,0.2115,0.1548,-0.0,-0.0,0.1476,0.3015,0.4149,0.3763,0.3459,0.3823,0.4288,0.4266,0.4303,0.4303,0.4303,0.4303,0.4303,0.4303,0.4303,0.4303,0.4303,0.4314,0.4404,0.4515,0.4547,0.4617,-0.1966,-0.1973,-0.2292,-0.2582,-0.329,-0.3319,-0.2841,-0.1737,-0.168,-0.1679,-0.1679,-0.1679,-0.2188,-0.2471,-0.1793,-0.0784,-0.056,-0.028,-0.0056,0.0785,0.0617,0.0845,0.0746,0.0477,0.0306,0.0314,0.0323,0.0333,0.047,0.0739,0.1008,0.1076,0.1076,0.1076,0.1076,0.121,0.121,0.1412,0.1816,0.222,0.2018,0.1614,0.1143,0.0941,-0.0,-0.0941,-0.1008,-0.1012,-0.1089,-0.1046,-0.1139,-0.1154,-0.0805,-0.067,-0.0305,-0.0232,-0.0467,-0.086,-0.1094,-0.1172,-0.1254,-0.1333,-0.1336,-0.1178,-0.11,-0.1258,-0.1336,-0.1336,-0.1336,-0.1336,-0.1336,-0.1021,-0.0863,-0.0706,-0.0628,-0.0471,-0.0314,-0.0078,0.0235,0.0392,0.047,0.0705,0.1332,0.2035,0.266,0.4316,0.487,0.4711,0.4206,0.3267,0.2835,0.226,0.2379,0.2478,0.2908,0.3837,0.4176,0.4235,0.4227,0.4264,0.4322,0.4303,0.4303,0.4303,0.4303,0.4303,0.4303,0.4303,0.4303,0.4303,0.4319,0.436,0.445,0.4556,0.4635,-0.1032,-0.1035,-0.0938,-0.0933,-0.1129,-0.2858,-0.234,-0.0448,-0.0449,-0.0,-0.0,-0.0,-0.0,-0.0,-0.0,-0.0,0.0392,0.0449,0.0673,0.0785,0.0897,0.0897,0.0904,0.0704,0.0724,0.0808,0.0832,0.0792,0.0871,0.1008,0.1076,0.1076,0.1076,0.1076,0.1143,0.1277,0.1547,0.1748,0.2218,0.2621,0.2487,0.2284,0.1879,0.141,0.0537,-0.0269,-0.0538,-0.0807,-0.0607,-0.0477,-0.0907,-0.0498,0.0509,0.0521,0.0982,0.137,0.0382,-0.0154,-0.0463,-0.0693,-0.1,-0.1169,-0.1096,-0.0784,-0.0785,-0.11,-0.1258,-0.1258,-0.1179,-0.1179,-0.1021,-0.0628,-0.0313,-0.0078,0.0157,0.0392,0.0549,0.0862,0.1254,0.1488,0.1564,0.1956,0.2504,0.3132,0.3759,0.4309,0.4784,0.4919,0.4759,0.4187,0.3977,0.3622,0.3681,0.3828,0.3788,0.3724,0.4193,0.4311,0.4292,0.4266,0.4306,0.4303,0.4303,0.4303,0.4303,0.4303,0.4303,0.4303,0.4303,0.4303,0.4311,0.4341,0.439,0.4485,0.4645,-0.0719,-0.0677,-0.0461,-0.0238,-0.0297,-0.1438,-0.1223,-0.0,-0.0,-0.0,-0.0,-0.0,-0.0,-0.0,-0.0,0.0336,0.0729,0.0841,0.0841,0.0841,0.0897,0.0897,0.091,0.0869,0.0887,0.0914,0.1016,0.0982,0.1069,0.1076,0.1076,0.1076,0.1076,0.1143,0.1143,0.1412,0.1748,0.1883,0.2485,0.2753,0.2755,0.2284,0.1746,0.1276,0.0537,-0.0067,-0.0269,-0.0605,-0.0542,-0.0273,-0.0418,-0.0,0.0721,0.0945,0.1395,0.1629,0.1191,0.0449,0.0301,-0.0,-0.045,-0.0608,-0.0308,0.023,-0.0155,-0.031,0.0157,0.0157,0.0157,0.0157,0.0157,0.047,0.0548,0.0705,0.0862,0.1097,0.1254,0.1567,0.235,0.3214,0.3132,0.3049,0.36,0.3995,0.454,0.4523,0.4921,0.4931,0.4852,0.476,0.4692,0.4632,0.4388,0.4318,0.4122,0.4071,0.4196,0.4311,0.4303,0.4303,0.4303,0.4303,0.4303,0.4303,0.4303,0.4303,0.4303,0.4303,0.4303,0.4303,0.4308,0.4319,0.4368,0.4554,0.4686,-0.0719,-0.0674,-0.0495,-0.023,-0.0,-0.0,-0.0,-0.0,-0.0,-0.0,-0.0,-0.0,-0.0,-0.0,0.0505,0.0505,0.0617,0.0841,0.0897,0.0897,0.0897,0.0897,0.0906,0.0863,0.0877,0.0961,0.0999,0.1035,0.1064,0.1065,0.1066,0.1073,0.1143,0.1143,0.1277,0.1547,0.1884,0.2218,0.2621,0.2889,0.2554,0.2083,0.168,0.0941,0.0134,-0.0269,-0.0201,-0.0202,-0.0341,0.0069,0.0416,0.0633,0.0995,0.1284,0.1859,0.2091,0.1809,0.1308,0.1094,0.0874,0.051,0.0367,0.0893,0.0903,0.053,0.0766,0.1242,0.1484,0.1484,0.1254,0.1254,0.141,0.141,0.1567,0.1723,0.1958,0.2193,0.2427,0.3448,0.4472,0.4389,0.4148,0.4384,0.4859,0.4916,0.4974,0.4923,0.4849,0.4768,0.4664,0.4577,0.4515,0.4397,0.4314,0.4306,0.4303,0.4303,0.4303,0.4303,0.4303,0.4303,0.4303,0.4303,0.4303,0.4303,0.4303,0.4303,0.4303,0.4303,0.4303,0.4306,0.4375,0.4643,0.4766,0.4846,-0.0719,-0.0674,-0.0494,-0.023,-0.0,-0.0,-0.0,-0.0,-0.0,-0.0,-0.0,-0.0,-0.0,-0.0,0.0056,0.028,0.0673,0.0841,0.0897,0.0897,0.0897,0.0897,0.09,0.0909,0.0865,0.089,0.098,0.101,0.1037,0.1042,0.1052,0.1067,0.1073,0.1208,0.1545,0.1814,0.2151,0.2487,0.2822,0.3092,0.3159,0.2755,0.2485,0.208,0.1744,0.1276,0.1007,0.0806,0.1145,0.1554,0.1629,0.1448,0.1463,0.175,0.2315,0.2597,0.2325,0.206,0.1852,0.1559,0.1135,0.0934,0.1312,0.1541,0.1483,0.1808,0.2288,0.2617,0.2473,0.172,0.1646,0.2117,0.2273,0.2586,0.2821,0.3288,0.3679,0.3837,0.4309,0.4706,0.4781,0.4701,0.4701,0.4996,0.4873,0.4912,0.4841,0.476,0.4616,0.4534,0.4538,0.4417,0.436,0.4333,0.4303,0.4303,0.4303,0.4303,0.4303,0.4303,0.4303,0.4303,0.4303,0.4303,0.4303,0.4303,0.4303,0.4303,0.4303,0.4303,0.4303,0.4434,0.4824,0.5176,0.5335]},{"header":{"parameterUnit":"m.s-1","parameterCategory":1,"la1":31.0,"la2":29.5877,"lo1":-88.7671,"lo2":-86.6584,"dy":0.0162,"dx":0.0185,"nx":115,"ny":88,"refTime":"2024-06-30T12:00:00:Z","depth":0,"parameterNumber":3,"parameterNumberName":"V-component_of_WINDS"},"data":[0.0,0.0,0.0,0.0,0.0,0.0,0.0,0.0,0.0,0.0,0.0,0.0,0.0,0.0,0.0,0.0,0.0,0.0,0.0,0.0,0.0,0.0,0.0,0.0,0.0,0.0,0.0,0.0,0.0,0.0,0.0,0.0,0.0,0.0,0.0,0.0,0.0,0.0,0.0,0.0,0.0,0.0,0.0,0.0,0.0,0.0,0.0,0.0,0.0,0.0,0.0,0.0,0.0,0.0,0.0,0.0,0.0,0.0,0.0,0.0,0.0,0.0,0.0,0.0,0.0,0.0,0.0,0.0,0.0,0.0,0.0,0.0,0.0,0.0,0.0,0.0,0.0,0.0,0.0,0.0,0.0,0.0,0.0,0.0,0.0,0.0,0.0,0.0,0.0,0.0,0.0,0.0,0.0,0.0,0.0,0.0,0.0,0.0,0.0,0.0,0.0,0.0,0.0,0.0,0.0,0.0,0.0,0.0,0.0,0.0,0.0,0.0,0.0,0.0,0.0,0.0,0.0,0.0,0.0,0.0,0.0,0.0,0.0,0.0,0.0,0.0,0.0,0.0,0.0,0.0,0.0,0.0,0.0,0.0,0.0,0.0,0.0,0.0,0.0,0.0,0.0,0.0,0.0,0.0,0.0,0.0,0.0,0.0,0.0,0.0,0.0,0.0,0.0,0.0,0.0,0.0,0.0,0.0,0.0,0.0,0.0,0.0,0.0,0.0,0.0,0.0,0.0,0.0,0.0,0.0,0.0,0.0,0.0,0.0,0.0,0.0,0.0,0.0,0.0,0.0,0.0,0.0,0.0,0.0,0.0,0.0,0.0,0.0,0.0,0.0,0.0,0.0,0.0,0.0,0.0,0.0,0.0,0.0,0.0,0.0,0.0,0.0,0.0,0.0,0.0,0.0,0.0,0.0,0.0,0.0,0.0,0.0,0.0,0.0,0.0,0.0,0.0,0.0,0.0,0.0,0.0,0.0,0.0,0.0,0.0,0.0,0.0,0.0,0.0,0.0,0.0,0.0,0.0,0.0,0.0,0.0,0.0,0.0,0.0,0.0,0.0,0.0,0.0,0.0,0.0,0.0,0.0,0.0,0.0,0.0,0.0,0.0,0.0,0.0,0.0,0.0,0.0,0.0,0.0,0.0,0.0,0.0,0.0,0.0,0.0,0.0,0.0,0.0,0.0,0.0,0.0,0.0,0.0,0.0,0.0,0.0,0.0,0.0,0.0,0.0,0.0,0.0,0.0,0.0,0.0,0.0,0.0,0.0,0.0,0.0,0.0,0.0,0.0,0.0,0.0,0.0,0.0,0.0,0.0,0.0,0.0,0.0,0.0,0.0,0.0,0.0,0.0,0.0,0.0,0.0,0.0,0.0,0.0,0.0,0.0,0.0,0.0,0.0,0.0,0.0,0.0,0.0,0.0,0.0,0.0,0.0,0.0,0.0,0.0,0.0,0.0,0.0,0.0,0.0,0.0,0.0,0.0,0.0,0.0,0.0,0.0,0.0,0.0,0.0,0.0,0.0,0.0,0.0,0.0,0.0,0.0,0.0,0.0,0.0,0.0,0.0,0.0,0.0,0.0,0.0,0.0,0.0,0.0,0.0,0.0,0.0,0.0,0.0,0.0,0.0,0.0,0.0,0.0,0.0,0.0,0.0,0.0,0.0,0.0,0.0,0.0,0.0,0.0,0.0,0.0,0.0,0.0,0.0,0.0,0.0,0.0,0.0,0.0,0.0,0.0,0.0,0.0,0.0,0.0,0.0,0.0,0.0,0.0,0.0,0.0,0.0,0.0,0.0,0.0,0.0,0.0,0.0,0.0,0.0,0.0,0.0,0.0,0.0,0.0,0.0,0.0,0.0,0.0,0.0,0.0,0.0,0.0,0.0,0.0,0.0,0.0,0.0,0.0,0.0,0.0,0.0,0.0,0.0,0.0,0.0,0.0,0.0,0.0,0.0,0.0,0.0,0.0,0.0,0.0,0.0,0.0,0.0,0.0,0.0,0.0,0.0,0.0,0.0,0.0,0.0,0.0,0.0,0.0,0.0,0.0,0.0,0.0,0.0,0.0,0.0,0.0,0.0,0.0,0.0,0.0,0.0,0.0,0.0,0.0,0.0,0.0,0.0,0.0,0.0,0.0,0.0,0.0,0.0,0.0,0.0,0.0,0.0,0.0,0.0,0.0,0.0,0.0,0.0,0.0,0.0,0.0,0.0,0.0,0.0,0.0,0.0,0.0,0.0,0.0,0.0,0.0,0.0,0.0,0.0,0.0,0.0,0.0,0.0,0.0,0.0,0.0,0.0,0.0,0.0,0.0,0.0,0.0,0.0,0.0,0.0,0.0,0.0,0.0,0.0,0.0,0.0,0.0,0.0,0.0,0.0,0.0,0.0,0.0,0.0,0.0,0.0,0.0,0.0,0.0,0.0,0.0,0.0,0.0,0.0,0.0,0.0,0.0,0.0,0.0,0.0,0.0,0.0,0.0,0.0,0.0,0.0,0.0,0.0,0.0,0.0,0.0,0.0,0.0,0.0,0.0,0.0,0.0,0.0,0.0,0.0,0.0,0.0,0.0,0.0,0.0,0.0,0.0,0.0,0.0,0.0,0.0,0.0,0.0,0.0,0.0,0.0,0.0,0.0,0.0,0.0,0.0,0.0,0.0,0.0,0.0,0.0,0.0,0.0,0.0,0.0,0.0,0.0,0.0,0.0,0.0,0.0,0.0,0.0,0.0,0.0,0.0,0.0,0.0,0.0,0.0,0.0,0.0,0.0,0.0,0.0,0.0,0.0,0.0,0.0,0.0,0.0,0.0,0.0,0.0,0.0,0.0,0.0,0.0,0.0,0.0,0.0,0.0,0.0,0.0,0.0,0.0,0.0,0.0,0.0,0.0,0.0,0.0,0.0,0.0,0.0,0.0,0.0,0.0,0.0,0.0,0.0,0.0,0.0,0.0,0.0,0.0,0.0,0.0,0.0,0.0,0.0,0.0,0.0,0.0,0.0,0.0,0.0,0.0,0.0,0.0,0.0,0.0,0.0,0.0,0.0,0.0,0.0,0.0,0.0,0.0,0.0,0.0,0.0,0.0,0.0,0.0,0.0,0.0,0.0,0.0,0.0,0.0,0.0,0.0,0.0,0.0,0.0,0.0,0.0,0.0,0.0,0.0,0.0,0.0,0.0,0.0,0.0,0.0,0.0,0.0,0.0,0.0,0.0,0.0,0.0,0.0,0.0,0.0,0.0,0.0,0.0,0.0,0.0,0.0,0.0,0.0,0.0,0.0,0.0,0.0,0.0,0.0,0.0,0.0,0.0,0.0,0.0,0.0,0.0,0.0,0.0,0.0,0.0,0.0,0.0,0.0,0.0,0.0,0.0,0.0,0.0,0.0,0.0,0.0,0.0,0.0,0.0,0.0,0.0,0.0,0.0,0.0,0.0,0.0,0.0,0.0,0.0,0.0,0.0,0.0,0.0,0.0,0.0,0.0,0.0,0.0,0.0,0.0,0.0,0.0,0.0,0.0,0.0,0.0,0.0,0.0,0.0,0.0,0.0,0.0,0.0,0.0,0.0,0.0,0.0,0.0,0.0,0.0,0.0,0.0,0.0,0.0,0.0,0.0,0.0,0.0,0.0,0.0,0.0,0.0,0.0,0.0,0.0,0.0,0.0,0.0,0.0,0.0,0.0,0.0,0.0,0.0,0.0,0.0,0.0,0.0,0.0,0.0,0.0,0.0,0.0,0.0,0.0,0.0,0.0,0.0,0.0,0.0,0.0,0.0,0.0,0.0,0.0,0.0,0.0,0.0,0.0,0.0,0.0,0.0,0.0,0.0,0.0,0.0,0.0,0.0,0.0,0.0,0.0,0.0,0.0,0.0,0.0,0.0,0.0,0.0,0.0,0.0,0.0,0.0,0.0,0.0,0.0,0.0,0.0,0.0,0.0,0.0,0.0,0.0,0.0,0.0,0.0,0.0,0.0,0.0,0.0,0.0,0.0,0.0,0.0,0.0,0.0,0.0,0.0,0.0,0.0,0.0,0.0,0.0,0.0,0.0,0.0,0.0,0.0,0.0,0.0,0.0,0.0,0.0,0.0,0.0,0.0,0.0,0.0,0.0,0.0,0.0,0.0,0.0,0.0,0.0,0.0,0.0,0.0,0.0,0.0,0.0,0.0,0.0,0.0,0.0,0.0,0.0,0.0,0.0,0.0,0.0,0.0,0.0,0.0,0.0,0.0,0.0,0.0,0.0,0.0,0.0,0.0,0.0,0.0,-1.753,0.0,0.0,0.0,0.0,0.0,0.0,0.0,0.0,0.0,0.0,0.0,0.0,0.0,0.0,0.0,0.0,0.0,0.0,0.0,0.0,0.0,0.0,0.0,0.0,0.0,0.0,0.0,0.0,0.0,0.0,0.0,0.0,0.0,0.0,0.0,0.0,0.0,0.0,0.0,0.0,0.0,0.0,0.0,0.0,0.0,0.0,0.0,0.0,0.0,0.0,0.0,0.0,0.0,0.0,0.0,0.0,0.0,0.0,0.0,0.0,0.0,0.0,0.0,0.0,0.0,0.0,0.0,0.0,0.0,0.0,0.0,0.0,0.0,0.0,0.0,0.0,0.0,0.0,0.0,0.0,0.0,0.0,0.0,0.0,0.0,0.0,0.0,0.0,0.0,0.0,0.0,0.0,0.0,0.0,0.0,0.0,0.0,0.0,0.0,0.0,0.0,0.0,0.0,0.0,0.0,0.0,0.0,0.0,0.0,0.0,-1.3986,-1.5616,-1.6022,-1.6718,-1.7801,0.0,0.0,0.0,0.0,0.0,0.0,0.0,0.0,0.0,0.0,0.0,0.0,0.0,0.0,0.0,0.0,0.0,0.0,0.0,0.0,0.0,0.0,0.0,0.0,0.0,0.0,0.0,0.0,0.0,0.0,0.0,0.0,0.0,0.0,0.0,0.0,0.0,0.0,0.0,0.0,0.0,0.0,0.0,0.0,0.0,0.0,0.0,0.0,0.0,0.0,0.0,0.0,0.0,0.0,0.0,0.0,0.0,0.0,0.0,0.0,0.0,0.0,0.0,0.0,0.0,0.0,0.0,0.0,0.0,0.0,0.0,0.0,0.0,0.0,0.0,0.0,0.0,0.0,0.0,0.0,0.0,0.0,0.0,0.0,0.0,0.0,0.0,0.0,0.0,0.0,0.0,0.0,0.0,0.0,0.0,0.0,0.0,0.0,0.0,0.0,0.0,0.0,0.0,0.0,0.0,0.0,0.0,0.0,0.0,0.0,0.0,0.0,-1.6566,-1.7164,-1.8313,0.0,0.0,0.0,0.0,0.0,0.0,0.0,0.0,0.0,0.0,0.0,0.0,0.0,0.0,0.0,0.0,0.0,0.0,0.0,0.0,0.0,0.0,0.0,0.0,0.0,0.0,0.0,0.0,0.0,0.0,0.0,0.0,0.0,0.0,0.0,0.0,0.0,0.0,0.0,0.0,0.0,0.0,0.0,0.0,0.0,0.0,0.0,0.0,0.0,0.0,0.0,0.0,0.0,0.0,0.0,0.0,0.0,0.0,0.0,0.0,0.0,0.0,0.0,0.0,0.0,0.0,0.0,0.0,0.0,0.0,0.0,0.0,0.0,0.0,0.0,0.0,0.0,0.0,0.0,0.0,0.0,0.0,0.0,0.0,0.0,0.0,0.0,0.0,0.0,0.0,0.0,0.0,0.0,0.0,0.0,0.0,0.0,0.0,0.0,0.0,0.0,0.0,0.0,0.0,0.0,0.0,0.0,0.0,0.0,0.0,-1.611,-1.7756,-1.8334,0.0,-1.9235,0.0,0.0,0.0,0.0,0.0,0.0,0.0,0.0,0.0,0.0,0.0,0.0,0.0,0.0,0.0,0.0,0.0,0.0,0.0,0.0,0.0,0.0,0.0,0.0,0.0,0.0,0.0,0.0,0.0,0.0,0.0,0.0,0.0,0.0,0.0,0.0,0.0,0.0,0.0,0.0,0.0,0.0,0.0,0.0,0.0,0.0,0.0,0.0,0.0,0.0,0.0,0.0,0.0,0.0,0.0,0.0,0.0,0.0,0.0,0.0,0.0,0.0,0.0,0.0,0.0,0.0,0.0,0.0,0.0,0.0,0.0,0.0,0.0,0.0,0.0,0.0,0.0,0.0,0.0,0.0,0.0,0.0,0.0,0.0,0.0,0.0,0.0,0.0,0.0,0.0,0.0,0.0,0.0,0.0,0.0,0.0,0.0,0.0,0.0,0.0,0.0,0.0,0.0,0.0,0.0,0.0,0.0,0.0,0.0,0.0,0.0,-1.892,-1.9549,-1.9883,0.0,0.0,0.0,0.0,0.0,0.0,0.0,0.0,0.0,0.0,0.0,0.0,0.0,0.0,0.0,0.0,0.0,0.0,0.0,0.0,0.0,0.0,0.0,0.0,0.0,0.0,0.0,0.0,0.0,0.0,0.0,0.0,0.0,0.0,0.0,0.0,0.0,0.0,0.0,0.0,0.0,0.0,0.0,0.0,0.0,0.0,0.0,0.0,0.0,0.0,0.0,0.0,0.0,0.0,0.0,0.0,0.0,0.0,0.0,0.0,0.0,0.0,0.0,0.0,0.0,0.0,0.0,0.0,0.0,0.0,0.0,0.0,0.0,0.0,0.0,0.0,0.0,0.0,0.0,0.0,0.0,0.0,0.0,0.0,0.0,0.0,0.0,0.0,0.0,0.0,0.0,0.0,0.0,0.0,0.0,0.0,0.0,0.0,0.0,0.0,0.0,0.0,0.0,0.0,0.0,0.0,0.0,0.0,0.0,0.0,-1.6861,0.0,-1.9537,-2.0211,-2.0457,-2.0172,0.0,0.0,0.0,0.0,0.0,0.0,0.0,0.0,0.0,0.0,0.0,0.0,0.0,0.0,0.0,0.0,0.0,0.0,0.0,0.0,0.0,0.0,0.0,0.0,0.0,0.0,0.0,0.0,0.0,0.0,0.0,0.0,0.0,0.0,0.0,0.0,0.0,0.0,0.0,0.0,0.0,0.0,0.0,0.0,0.0,0.0,0.0,0.0,0.0,0.0,0.0,0.0,0.0,0.0,0.0,0.0,0.0,0.0,0.0,0.0,0.0,0.0,0.0,0.0,0.0,0.0,0.0,0.0,0.0,0.0,0.0,0.0,0.0,0.0,0.0,0.0,0.0,0.0,0.0,0.0,0.0,0.0,0.0,0.0,0.0,0.0,0.0,0.0,0.0,0.0,0.0,0.0,0.0,0.0,0.0,0.0,0.0,0.0,0.0,0.0,0.0,0.0,0.0,0.0,0.0,0.0,0.0,0.0,0.0,-1.734,-1.7936,-1.9591,-2.0143,-2.0321,0.0,0.0,0.0,0.0,0.0,0.0,0.0,0.0,0.0,0.0,0.0,0.0,0.0,0.0,0.0,0.0,0.0,0.0,0.0,0.0,0.0,0.0,0.0,0.0,0.0,0.0,0.0,0.0,0.0,0.0,0.0,0.0,0.0,0.0,0.0,0.0,0.0,0.0,0.0,0.0,0.0,0.0,0.0,0.0,0.0,0.0,0.0,0.0,0.0,0.0,0.0,0.0,0.0,0.0,0.0,0.0,0.0,0.0,0.0,0.0,0.0,0.0,0.0,0.0,0.0,0.0,0.0,0.0,0.0,0.0,0.0,0.0,0.0,0.0,0.0,0.0,0.0,0.0,0.0,0.0,0.0,0.0,0.0,0.0,0.0,0.0,0.0,0.0,0.0,0.0,0.0,0.0,0.0,0.0,0.0,0.0,0.0,0.0,0.0,0.0,0.0,0.0,0.0,0.0,0.0,0.0,0.0,0.0,0.0,-1.8447,-1.877,-1.9478,-2.0578,-2.0308,-1.9914,0.0,0.0,0.0,0.0,0.0,0.0,0.0,0.0,0.0,0.0,0.0,0.0,0.0,0.0,0.0,0.0,0.0,0.0,0.0,0.0,0.0,0.0,0.0,0.0,0.0,0.0,0.0,0.0,0.0,0.0,0.0,0.0,0.0,0.0,0.0,0.0,0.0,0.0,0.0,0.0,0.0,0.0,0.0,0.0,0.0,0.0,0.0,0.0,0.0,0.0,0.0,0.0,0.0,0.0,0.0,0.0,0.0,0.0,0.0,0.0,0.0,0.0,0.0,0.0,0.0,0.0,0.0,0.0,0.0,0.0,0.0,0.0,0.0,0.0,0.0,0.0,0.0,0.0,0.0,0.0,0.0,0.0,0.0,0.0,0.0,0.0,0.0,0.0,0.0,0.0,0.0,0.0,0.0,0.0,0.0,0.0,0.0,0.0,0.0,0.0,0.0,0.0,0.0,0.0,0.0,0.0,0.0,0.0,0.0,-1.9668,0.0,-2.031,0.0,-2.0082,-1.9531,0.0,0.0,0.0,0.0,0.0,0.0,0.0,0.0,0.0,0.0,0.0,0.0,0.0,0.0,0.0,0.0,0.0,0.0,0.0,0.0,0.0,0.0,0.0,0.0,0.0,0.0,0.0,0.0,0.0,0.0,0.0,0.0,0.0,0.0,0.0,0.0,0.0,0.0,0.0,0.0,0.0,0.0,0.0,0.0,0.0,0.0,0.0,0.0,0.0,0.0,0.0,0.0,0.0,0.0,0.0,0.0,0.0,0.0,0.0,0.0,0.0,0.0,0.0,0.0,0.0,0.0,0.0,0.0,0.0,0.0,0.0,0.0,0.0,0.0,0.0,0.0,0.0,0.0,0.0,0.0,0.0,0.0,0.0,0.0,0.0,0.0,0.0,0.0,0.0,0.0,0.0,0.0,0.0,0.0,0.0,0.0,0.0,0.0,0.0,0.0,0.0,0.0,0.0,0.0,0.0,0.0,0.0,0.0,-2.1055,-2.1324,-2.0745,-2.0222,-1.9653,-1.9496,-1.9192,0.0,0.0,0.0,0.0,0.0,0.0,0.0,0.0,0.0,0.0,0.0,0.0,0.0,0.0,0.0,0.0,0.0,0.0,0.0,0.0,0.0,0.0,0.0,0.0,0.0,0.0,0.0,0.0,0.0,0.0,0.0,0.0,0.0,0.0,0.0,0.0,0.0,0.0,0.0,0.0,0.0,0.0,0.0,0.0,0.0,0.0,0.0,0.0,0.0,0.0,0.0,0.0,0.0,0.0,0.0,0.0,0.0,0.0,0.0,0.0,0.0,0.0,0.0,0.0,0.0,0.0,0.0,0.0,0.0,0.0,0.0,0.0,0.0,0.0,0.0,0.0,0.0,0.0,0.0,0.0,0.0,0.0,0.0,0.0,0.0,0.0,0.0,0.0,0.0,0.0,0.0,0.0,0.0,0.0,0.0,0.0,0.0,0.0,0.0,0.0,0.0,0.0,0.0,0.0,0.0,0.0,0.0,0.0,0.0,-2.1556,-2.1212,-2.0968,-2.0845,-2.0517,-1.9994,0.0,0.0,0.0,0.0,0.0,0.0,0.0,0.0,0.0,0.0,0.0,0.0,0.0,0.0,0.0,0.0,0.0,0.0,0.0,0.0,0.0,0.0,0.0,0.0,0.0,0.0,0.0,0.0,0.0,0.0,0.0,0.0,0.0,0.0,0.0,0.0,0.0,0.0,0.0,0.0,0.0,0.0,0.0,0.0,0.0,0.0,0.0,0.0,0.0,0.0,0.0,0.0,0.0,0.0,0.0,0.0,0.0,0.0,0.0,0.0,0.0,0.0,0.0,0.0,0.0,0.0,0.0,0.0,0.0,0.0,0.0,0.0,0.0,0.0,0.0,0.0,0.0,0.0,0.0,0.0,0.0,0.0,0.0,0.0,0.0,0.0,0.0,0.0,0.0,0.0,0.0,0.0,0.0,0.0,0.0,0.0,0.0,0.0,0.0,0.0,0.0,0.0,0.0,0.0,0.0,0.0,0.0,0.0,0.0,-2.1411,-2.1489,-2.1578,-2.1627,-2.1369,-2.0925,-2.0323,0.0,0.0,0.0,0.0,0.0,0.0,0.0,0.0,0.0,0.0,0.0,0.0,0.0,0.0,0.0,0.0,0.0,0.0,0.0,0.0,0.0,0.0,0.0,0.0,0.0,0.0,0.0,0.0,0.0,0.0,0.0,0.0,0.0,0.0,0.0,0.0,0.0,0.0,0.0,0.0,0.0,0.0,0.0,0.0,0.0,0.0,0.0,0.0,0.0,0.0,0.0,0.0,0.0,0.0,0.0,0.0,0.0,0.0,0.0,0.0,0.0,0.0,0.0,0.0,0.0,0.0,0.0,0.0,0.0,0.0,0.0,0.0,0.0,0.0,0.0,0.0,0.0,0.0,0.0,0.0,0.0,0.0,0.0,0.0,0.0,0.0,0.0,0.0,0.0,0.0,0.0,0.0,0.0,0.0,0.0,0.0,0.0,0.0,0.0,0.0,0.0,0.0,0.0,0.0,0.0,0.0,0.0,0.0,-2.0763,-2.1504,-2.1937,-2.2051,-2.2003,-2.1897,0.0,0.0,0.0,0.0,0.0,0.0,0.0,0.0,0.0,0.0,0.0,0.0,0.0,0.0,0.0,0.0,0.0,0.0,0.0,0.0,0.0,0.0,0.0,0.0,0.0,0.0,0.0,0.0,0.0,0.0,0.0,0.0,0.0,0.0,0.0,0.0,0.0,0.0,0.0,0.0,0.0,0.0,0.0,0.0,0.0,0.0,0.0,0.0,0.0,0.0,0.0,0.0,0.0,0.0,0.0,0.0,0.0,0.0,0.0,0.0,0.0,0.0,0.0,0.0,0.0,0.0,0.0,0.0,0.0,0.0,0.0,0.0,0.0,0.0,0.0,0.0,0.0,0.0,0.0,0.0,0.0,0.0,0.0,0.0,0.0,0.0,0.0,0.0,0.0,0.0,0.0,0.0,0.0,0.0,0.0,0.0,0.0,0.0,0.0,0.0,0.0,0.0,0.0,0.0,0.0,0.0,0.0,0.0,0.0,-1.8994,-1.9989,-2.1242,-2.2536,-2.2777,-2.2905,0.0,0.0,0.0,0.0,0.0,0.0,0.0,0.0,0.0,0.0,0.0,0.0,0.0,0.0,0.0,0.0,0.0,0.0,0.0,0.0,0.0,0.0,0.0,0.0,0.0,0.0,0.0,0.0,0.0,0.0,0.0,0.0,0.0,0.0,0.0,0.0,0.0,0.0,0.0,0.0,0.0,0.0,0.0,0.0,0.0,0.0,0.0,0.0,0.0,0.0,0.0,0.0,0.0,0.0,0.0,0.0,0.0,0.0,0.0,0.0,0.0,0.0,0.0,0.0,0.0,0.0,0.0,0.0,0.0,0.0,0.0,0.0,0.0,0.0,0.0,0.0,0.0,0.0,0.0,0.0,0.0,0.0,0.0,0.0,0.0,0.0,0.0,0.0,0.0,0.0,0.0,0.0,0.0,0.0,0.0,0.0,0.0,0.0,0.0,0.0,0.0,0.0,0.0,0.0,0.0,0.0,0.0,0.0,-1.975,-1.8222,-1.8913,-2.0218,-2.2164,-2.2887,-2.3383,0.0,0.0,0.0,0.0,0.0,0.0,0.0,0.0,0.0,0.0,0.0,0.0,0.0,0.0,0.0,0.0,0.0,0.0,0.0,0.0,0.0,0.0,0.0,0.0,0.0,0.0,0.0,0.0,0.0,0.0,0.0,0.0,0.0,0.0,0.0,0.0,0.0,0.0,0.0,0.0,0.0,0.0,0.0,0.0,0.0,0.0,0.0,0.0,0.0,0.0,0.0,0.0,0.0,0.0,0.0,0.0,0.0,0.0,0.0,0.0,0.0,0.0,0.0,0.0,0.0,0.0,0.0,0.0,0.0,0.0,0.0,0.0,0.0,0.0,0.0,0.0,0.0,0.0,0.0,0.0,0.0,0.0,0.0,0.0,0.0,0.0,0.0,0.0,0.0,0.0,0.0,0.0,0.0,0.0,0.0,0.0,0.0,0.0,0.0,0.0,0.0,0.0,0.0,0.0,0.0,0.0,0.0,0.0,-1.8209,-1.794,-1.8051,-1.9059,-2.1053,-2.2498,-2.3469,0.0,0.0,0.0,0.0,0.0,0.0,0.0,0.0,0.0,0.0,0.0,0.0,0.0,0.0,0.0,0.0,0.0,0.0,0.0,0.0,0.0,0.0,0.0,0.0,0.0,0.0,0.0,0.0,0.0,0.0,0.0,0.0,0.0,0.0,0.0,0.0,0.0,0.0,0.0,0.0,0.0,0.0,0.0,0.0,0.0,0.0,0.0,0.0,0.0,0.0,0.0,0.0,0.0,0.0,0.0,0.0,0.0,0.0,0.0,0.0,0.0,0.0,0.0,0.0,0.0,0.0,0.0,0.0,0.0,0.0,0.0,0.0,0.0,0.0,0.0,0.0,0.0,0.0,0.0,0.0,0.0,0.0,0.0,0.0,0.0,0.0,0.0,0.0,0.0,0.0,0.0,0.0,0.0,0.0,0.0,0.0,0.0,0.0,0.0,0.0,0.0,0.0,0.0,0.0,0.0,0.0,0.0,0.0,-1.6196,-1.566,-1.681,-1.8002,-1.924,-2.1522,-2.318,0.0,0.0,0.0,0.0,0.0,0.0,0.0,0.0,0.0,0.0,0.0,0.0,0.0,0.0,0.0,0.0,0.0,0.0,0.0,0.0,0.0,0.0,0.0,0.0,0.0,0.0,0.0,0.0,0.0,0.0,0.0,0.0,0.0,0.0,0.0,0.0,0.0,0.0,0.0,0.0,0.0,0.0,0.0,0.0,0.0,0.0,0.0,0.0,-2.4123,0.0,0.0,0.0,0.0,0.0,0.0,0.0,0.0,0.0,0.0,0.0,0.0,0.0,0.0,0.0,0.0,0.0,0.0,0.0,0.0,0.0,0.0,0.0,0.0,0.0,0.0,0.0,0.0,0.0,0.0,0.0,0.0,0.0,0.0,0.0,0.0,0.0,0.0,0.0,0.0,0.0,0.0,0.0,0.0,0.0,0.0,0.0,0.0,0.0,0.0,0.0,0.0,0.0,0.0,0.0,0.0,0.0,0.0,0.0,-1.4693,-1.5301,-1.6167,-1.7382,-1.8902,-2.0734,-2.2367,0.0,0.0,0.0,0.0,0.0,0.0,0.0,0.0,0.0,0.0,0.0,0.0,0.0,0.0,0.0,0.0,0.0,0.0,0.0,0.0,0.0,0.0,0.0,0.0,0.0,0.0,0.0,0.0,0.0,0.0,0.0,0.0,0.0,0.0,0.0,0.0,0.0,0.0,0.0,0.0,0.0,0.0,0.0,0.0,0.0,0.0,0.0,0.0,0.0,0.0,0.0,0.0,0.0,0.0,0.0,0.0,0.0,0.0,0.0,0.0,0.0,0.0,0.0,0.0,0.0,0.0,0.0,0.0,0.0,0.0,0.0,0.0,0.0,0.0,0.0,0.0,0.0,0.0,0.0,0.0,0.0,0.0,0.0,0.0,0.0,0.0,0.0,0.0,0.0,0.0,0.0,0.0,0.0,0.0,0.0,0.0,0.0,0.0,0.0,0.0,0.0,0.0,0.0,0.0,0.0,0.0,0.0,-1.2992,-1.3324,-1.5317,-1.5664,-1.6863,-1.8965,-2.0031,-2.1434,-2.3203,0.0,0.0,0.0,0.0,0.0,0.0,0.0,0.0,0.0,0.0,0.0,0.0,0.0,0.0,0.0,0.0,0.0,0.0,0.0,0.0,0.0,0.0,0.0,0.0,0.0,0.0,0.0,0.0,0.0,0.0,0.0,0.0,0.0,0.0,0.0,0.0,0.0,0.0,-2.1336,-2.3938,0.0,0.0,0.0,0.0,0.0,0.0,0.0,0.0,-2.7858,0.0,0.0,0.0,0.0,0.0,0.0,0.0,0.0,0.0,0.0,0.0,0.0,0.0,0.0,0.0,0.0,0.0,0.0,0.0,0.0,0.0,0.0,0.0,0.0,0.0,0.0,0.0,0.0,0.0,0.0,0.0,0.0,0.0,0.0,0.0,0.0,0.0,0.0,0.0,0.0,0.0,0.0,0.0,0.0,0.0,0.0,0.0,0.0,0.0,0.0,0.0,0.0,0.0,0.0,0.0,0.0,-1.1307,-1.1053,-1.1805,-1.3556,-1.4538,-1.6059,-1.8182,-1.9406,-2.1038,-2.3088,0.0,0.0,0.0,0.0,0.0,0.0,0.0,0.0,0.0,0.0,0.0,0.0,0.0,0.0,0.0,0.0,0.0,0.0,0.0,0.0,0.0,0.0,0.0,0.0,0.0,0.0,0.0,0.0,0.0,0.0,0.0,0.0,0.0,0.0,0.0,0.0,0.0,0.0,0.0,-2.4735,-2.6705,0.0,0.0,0.0,0.0,0.0,0.0,0.0,0.0,-2.8762,0.0,0.0,0.0,0.0,0.0,0.0,0.0,0.0,0.0,0.0,0.0,0.0,0.0,0.0,0.0,0.0,0.0,0.0,0.0,0.0,0.0,0.0,0.0,0.0,0.0,0.0,0.0,0.0,0.0,0.0,0.0,0.0,0.0,0.0,0.0,0.0,0.0,0.0,0.0,0.0,0.0,0.0,0.0,0.0,0.0,0.0,0.0,0.0,0.0,0.0,0.0,0.0,0.0,0.0,0.0,-0.9946,-1.0179,-1.1373,-1.328,-1.4182,-1.5712,-1.7905,-1.8869,-2.0432,0.0,0.0,0.0,0.0,0.0,0.0,0.0,0.0,0.0,0.0,0.0,0.0,0.0,0.0,0.0,0.0,0.0,0.0,0.0,0.0,0.0,0.0,0.0,0.0,0.0,0.0,0.0,0.0,0.0,0.0,0.0,0.0,0.0,0.0,0.0,0.0,0.0,0.0,0.0,0.0,-2.6021,-2.7775,-3.0565,0.0,0.0,0.0,0.0,0.0,0.0,-3.083,-3.0939,0.0,0.0,0.0,0.0,0.0,0.0,0.0,0.0,0.0,0.0,0.0,0.0,0.0,0.0,0.0,0.0,0.0,0.0,0.0,0.0,0.0,0.0,0.0,0.0,0.0,0.0,0.0,0.0,0.0,0.0,0.0,0.0,0.0,0.0,0.0,0.0,0.0,0.0,0.0,0.0,0.0,0.0,0.0,0.0,0.0,0.0,0.0,0.0,0.0,0.0,0.0,0.0,0.0,0.0,0.0,-0.9231,-0.9982,-1.1463,-1.3449,-1.4286,-1.5704,-1.788,-1.8609,-2.012,0.0,0.0,0.0,0.0,0.0,0.0,0.0,0.0,0.0,0.0,0.0,0.0,0.0,0.0,0.0,0.0,0.0,0.0,0.0,0.0,0.0,0.0,0.0,0.0,0.0,0.0,0.0,0.0,0.0,0.0,0.0,0.0,0.0,0.0,0.0,0.0,0.0,0.0,0.0,0.0,0.0,-2.9286,-3.2719,-3.3059,0.0,0.0,0.0,0.0,-3.2341,-3.2598,0.0,0.0,0.0,0.0,0.0,0.0,0.0,0.0,0.0,0.0,0.0,0.0,0.0,0.0,0.0,0.0,0.0,0.0,0.0,0.0,0.0,0.0,0.0,0.0,0.0,0.0,0.0,0.0,0.0,0.0,0.0,0.0,0.0,0.0,0.0,0.0,0.0,0.0,0.0,0.0,0.0,0.0,0.0,0.0,0.0,0.0,0.0,0.0,0.0,0.0,0.0,0.0,0.0,0.0,0.0,0.0,-0.9408,-1.0677,-1.2159,-1.3648,-1.4631,-1.6114,-1.809,-1.9077,-2.0551,0.0,0.0,0.0,0.0,0.0,0.0,0.0,0.0,0.0,0.0,0.0,0.0,0.0,0.0,0.0,0.0,0.0,0.0,0.0,0.0,0.0,0.0,0.0,0.0,0.0,0.0,0.0,0.0,0.0,0.0,0.0,0.0,0.0,0.0,0.0,0.0,0.0,0.0,0.0,0.0,0.0,-3.1426,-3.3954,-3.4532,-3.4718,0.0,0.0,-3.4198,-3.2691,-3.2406,0.0,0.0,0.0,0.0,0.0,0.0,0.0,0.0,0.0,0.0,0.0,0.0,0.0,0.0,0.0,0.0,0.0,0.0,0.0,0.0,0.0,0.0,0.0,0.0,0.0,0.0,0.0,0.0,0.0,0.0,0.0,0.0,0.0,0.0,0.0,0.0,0.0,0.0,0.0,0.0,0.0,0.0,0.0,0.0,0.0,0.0,0.0,0.0,0.0,0.0,0.0,0.0,0.0,0.0,0.0,-1.3258,-1.0305,-1.1616,-1.288,-1.3799,-1.5116,-1.6536,-1.7933,-1.8957,-2.0258,0.0,0.0,0.0,0.0,0.0,0.0,0.0,0.0,0.0,0.0,0.0,0.0,0.0,0.0,0.0,0.0,0.0,0.0,0.0,0.0,0.0,0.0,0.0,0.0,0.0,0.0,0.0,0.0,0.0,0.0,0.0,0.0,0.0,0.0,0.0,0.0,0.0,0.0,0.0,0.0,0.0,0.0,-3.4182,-3.4962,0.0,0.0,0.0,-3.4322,-3.4069,0.0,0.0,0.0,0.0,0.0,0.0,0.0,0.0,0.0,0.0,0.0,0.0,0.0,0.0,0.0,0.0,0.0,0.0,0.0,0.0,0.0,0.0,0.0,0.0,0.0,0.0,0.0,0.0,0.0,0.0,0.0,0.0,0.0,0.0,0.0,0.0,0.0,0.0,0.0,0.0,0.0,0.0,0.0,0.0,0.0,0.0,0.0,0.0,0.0,0.0,0.0,0.0,0.0,0.0,0.0,0.0,0.0,-1.1557,-1.2677,-1.3679,-1.4367,-1.5913,-1.7154,-1.8014,-1.9191,0.0,0.0,0.0,0.0,0.0,0.0,0.0,0.0,0.0,0.0,0.0,0.0,0.0,0.0,0.0,0.0,0.0,0.0,0.0,0.0,0.0,0.0,0.0,0.0,0.0,0.0,0.0,-2.321,0.0,0.0,0.0,0.0,0.0,0.0,0.0,0.0,0.0,0.0,0.0,0.0,0.0,0.0,-3.1844,-3.4525,-3.5215,-3.571,0.0,0.0,-3.4183,-3.4569,-3.3935,-3.371,0.0,0.0,0.0,0.0,0.0,0.0,0.0,0.0,0.0,0.0,0.0,0.0,0.0,0.0,0.0,0.0,0.0,0.0,0.0,0.0,0.0,0.0,0.0,0.0,0.0,0.0,0.0,0.0,0.0,0.0,0.0,0.0,0.0,0.0,0.0,0.0,0.0,0.0,0.0,0.0,0.0,0.0,0.0,0.0,0.0,0.0,0.0,0.0,0.0,0.0,0.0,0.0,0.0,0.0,0.0,-1.3402,-1.3903,-1.4675,-1.5656,-1.713,-1.8138,-1.8636,-2.0361,-2.1482,0.0,0.0,0.0,0.0,0.0,0.0,0.0,0.0,0.0,0.0,0.0,0.0,0.0,0.0,0.0,0.0,0.0,0.0,0.0,0.0,0.0,0.0,0.0,0.0,0.0,0.0,0.0,0.0,0.0,0.0,0.0,0.0,0.0,0.0,0.0,0.0,0.0,0.0,0.0,0.0,0.0,-3.407,-3.5523,-3.5485,-3.5657,0.0,0.0,-3.3936,-3.32,-3.2461,-3.2227,-3.3124,0.0,0.0,0.0,0.0,0.0,0.0,0.0,0.0,0.0,0.0,0.0,0.0,0.0,0.0,0.0,0.0,0.0,0.0,0.0,0.0,0.0,0.0,0.0,0.0,0.0,0.0,0.0,0.0,0.0,0.0,0.0,0.0,0.0,0.0,0.0,0.0,0.0,0.0,0.0,0.0,0.0,0.0,0.0,0.0,0.0,0.0,0.0,0.0,0.0,0.0,0.0,0.0,0.0,-1.5241,-1.3996,-1.4801,-1.5531,-1.6188,-1.7387,-1.8365,-1.9037,-2.0231,-2.1151,0.0,0.0,0.0,0.0,0.0,0.0,0.0,0.0,0.0,0.0,0.0,0.0,0.0,0.0,0.0,0.0,0.0,0.0,0.0,0.0,0.0,0.0,0.0,0.0,0.0,0.0,0.0,0.0,-2.4062,-2.4653,-2.5725,0.0,0.0,0.0,0.0,0.0,0.0,0.0,0.0,0.0,0.0,-3.3462,-3.4367,-3.4466,0.0,0.0,-3.534,-3.4202,-3.4037,-3.3859,-3.3878,-3.4417,-3.4782,0.0,0.0,0.0,0.0,0.0,0.0,0.0,0.0,0.0,0.0,0.0,0.0,0.0,0.0,0.0,0.0,0.0,0.0,0.0,0.0,0.0,0.0,0.0,0.0,0.0,0.0,0.0,0.0,0.0,0.0,0.0,0.0,0.0,0.0,0.0,0.0,0.0,0.0,0.0,0.0,0.0,0.0,0.0,0.0,0.0,0.0,0.0,0.0,0.0,0.0,0.0,0.0,-1.5852,-1.5073,-1.5808,-1.6471,-1.6886,-1.819,-1.906,-1.9585,-2.0545,-2.1294,0.0,0.0,0.0,0.0,0.0,0.0,0.0,0.0,0.0,0.0,0.0,0.0,0.0,0.0,0.0,0.0,0.0,0.0,0.0,0.0,0.0,0.0,0.0,0.0,0.0,0.0,0.0,0.0,-2.4709,-2.5787,-2.6965,0.0,0.0,0.0,0.0,0.0,0.0,0.0,0.0,0.0,0.0,-3.2634,-3.3234,-3.3352,-3.3939,-3.5469,-3.4791,-3.4144,-3.4342,-3.4559,-3.4869,-3.5239,0.0,0.0,0.0,0.0,0.0,0.0,0.0,0.0,0.0,0.0,0.0,0.0,0.0,0.0,0.0,0.0,0.0,0.0,0.0,0.0,0.0,0.0,0.0,0.0,0.0,0.0,0.0,0.0,0.0,0.0,-2.4703,0.0,0.0,0.0,0.0,0.0,0.0,0.0,0.0,0.0,0.0,0.0,0.0,0.0,0.0,0.0,0.0,0.0,0.0,0.0,0.0,0.0,0.0,-1.7118,-1.6752,-1.7018,-1.7462,-1.808,-1.9642,-2.0352,-2.0314,-2.1563,-2.2338,-2.2569,0.0,0.0,0.0,0.0,0.0,0.0,0.0,0.0,0.0,0.0,0.0,0.0,0.0,0.0,0.0,0.0,0.0,0.0,0.0,0.0,0.0,0.0,0.0,0.0,0.0,0.0,-2.4725,-2.6491,-2.7649,0.0,0.0,0.0,0.0,0.0,0.0,0.0,0.0,0.0,0.0,-3.1675,-3.1906,-3.2337,-3.2303,-3.2478,-3.3171,-3.3478,-3.3625,-3.3643,-3.4037,-3.4502,0.0,0.0,0.0,0.0,0.0,0.0,0.0,0.0,0.0,0.0,0.0,0.0,0.0,0.0,0.0,0.0,0.0,0.0,0.0,0.0,0.0,0.0,0.0,0.0,0.0,0.0,0.0,-2.4492,-2.4885,0.0,0.0,0.0,0.0,0.0,0.0,0.0,0.0,0.0,0.0,0.0,-2.3032,-2.3377,0.0,0.0,0.0,0.0,0.0,0.0,0.0,0.0,0.0,0.0,0.0,0.0,-1.8325,-1.812,-1.8045,-1.8548,-1.9695,-2.0445,-2.0914,-2.1086,-2.2194,-2.2873,-2.3067,0.0,0.0,0.0,0.0,0.0,0.0,0.0,0.0,0.0,0.0,0.0,0.0,0.0,0.0,0.0,0.0,0.0,0.0,0.0,0.0,0.0,0.0,0.0,0.0,0.0,-2.5867,0.0,0.0,0.0,0.0,0.0,0.0,0.0,0.0,0.0,0.0,0.0,-3.1284,-3.1095,-3.1244,-3.1342,-3.1234,-3.1033,-3.1594,0.0,0.0,0.0,0.0,0.0,0.0,0.0,0.0,0.0,0.0,0.0,0.0,0.0,0.0,-3.6407,-3.6021,-3.5677,-3.5473,-3.5512,0.0,0.0,0.0,0.0,0.0,0.0,0.0,0.0,0.0,0.0,0.0,0.0,0.0,0.0,-2.4338,0.0,-2.4278,0.0,0.0,0.0,0.0,0.0,0.0,0.0,0.0,-2.3622,-2.3883,-2.3899,-2.4443,-2.5046,0.0,-2.5423,-2.5012,0.0,0.0,0.0,0.0,0.0,0.0,0.0,0.0,-1.9293,-1.9174,-1.9344,-1.9983,-2.1017,-2.1702,-2.2015,-2.2009,-2.2874,-2.3478,-2.3625,-2.4151,-2.4501,0.0,0.0,0.0,0.0,0.0,0.0,0.0,0.0,0.0,0.0,0.0,0.0,0.0,0.0,0.0,0.0,0.0,0.0,0.0,0.0,0.0,0.0,0.0,-2.798,0.0,0.0,0.0,0.0,0.0,0.0,0.0,0.0,0.0,-3.222,-3.1802,-3.1156,-3.029,-3.0482,-3.064,-3.0529,0.0,0.0,0.0,0.0,0.0,0.0,0.0,-3.6041,-3.5616,-3.6269,-3.6926,-3.7145,-3.6773,-3.647,-3.6591,0.0,0.0,-3.6729,-3.6638,-3.6649,-3.6759,-3.723,-3.7428,-3.694,-3.7262,-3.7316,0.0,0.0,0.0,0.0,0.0,0.0,0.0,0.0,-2.3985,-2.4249,0.0,-2.4329,0.0,0.0,0.0,0.0,0.0,0.0,0.0,0.0,-2.5378,-2.5597,-2.595,-2.6437,-2.6819,-2.6997,-2.7137,-2.6909,-2.6312,-2.5185,0.0,0.0,0.0,0.0,0.0,0.0,-1.9965,-2.007,-2.0941,-2.1676,-2.2213,-2.3391,-2.3716,-2.3098,-2.3755,-2.4226,-2.439,-2.4951,-2.528,-2.5349,-2.5048,0.0,0.0,0.0,0.0,0.0,0.0,0.0,0.0,0.0,0.0,0.0,0.0,0.0,0.0,0.0,0.0,0.0,0.0,0.0,0.0,-2.8091,0.0,0.0,0.0,0.0,0.0,0.0,0.0,0.0,0.0,0.0,-3.1598,-3.068,-2.9794,-2.9188,0.0,0.0,0.0,0.0,-3.0748,-3.1758,-3.3027,-3.3941,-3.4019,-3.5249,-3.6086,-3.5752,0.0,0.0,-3.6045,-3.5711,-3.5571,-3.5864,-3.6333,-3.6816,-3.7468,-3.7542,-3.7774,-3.8469,-3.8594,-3.8736,-3.8736,-3.8506,-3.8185,-2.3846,0.0,0.0,0.0,0.0,-2.5126,-2.5262,-2.538,-2.4826,-2.4977,-2.5519,-2.4792,0.0,0.0,0.0,0.0,0.0,0.0,-2.4837,-2.5221,-2.5832,-2.6303,-2.6678,-2.7096,-2.7326,-2.7465,-2.7643,-2.7727,-2.7581,-2.7115,-2.5663,-2.3283,0.0,0.0,0.0,0.0,-2.1503,-2.2205,-2.2207,-2.2847,-2.4197,-2.4746,-2.5167,-2.5461,-2.5277,-2.5336,-2.5655,-2.594,-2.6213,-2.6355,-2.5998,0.0,0.0,0.0,0.0,0.0,0.0,0.0,0.0,0.0,0.0,0.0,0.0,0.0,0.0,0.0,0.0,0.0,0.0,0.0,-2.9179,-2.9693,-3.0878,0.0,0.0,0.0,0.0,0.0,0.0,0.0,0.0,0.0,-3.1915,-3.1328,-3.0821,0.0,0.0,-3.1142,-3.1006,-3.0938,-3.1391,-3.2688,0.0,0.0,0.0,-3.4684,-3.5207,-3.5241,-3.5793,-3.6079,-3.582,-3.595,-3.6207,-3.644,-3.6586,-3.686,-3.7449,-3.7577,-3.7666,-3.7898,-3.7933,-3.7933,-3.7933,-3.7933,-3.7809,-2.5013,-2.5462,-2.5241,-2.5251,-2.5409,-2.5362,-2.5488,-2.5631,-2.5203,-2.5408,-2.597,-2.5384,-2.5149,-2.5227,-2.4842,0.0,0.0,0.0,-2.5407,-2.5616,-2.6326,-2.6908,-2.7298,-2.7735,-2.7964,-2.7992,-2.8201,-2.8334,-2.8412,-2.821,-2.7049,-2.5057,0.0,0.0,-2.2912,-2.2967,-2.3315,-2.3883,-2.3959,-2.4459,-2.5429,-2.5693,-2.6031,-2.6451,-2.6277,-2.6322,-2.6731,-2.6933,-2.7106,-2.7286,-2.6914,-2.6972,0.0,0.0,0.0,0.0,0.0,0.0,0.0,0.0,0.0,0.0,0.0,-2.9401,0.0,0.0,0.0,0.0,-2.7815,-2.8789,-3.1562,-3.2015,0.0,0.0,0.0,0.0,0.0,0.0,0.0,-3.4217,-3.3532,-3.2863,-3.2342,-3.2181,-3.1905,-3.1177,-3.1549,-3.1875,-3.1751,0.0,-3.2143,-3.3182,-3.295,-3.2944,-3.3786,-3.4023,-3.4314,-3.5128,-3.5509,-3.5864,-3.6079,-3.6207,-3.6333,-3.6481,-3.6626,-3.6865,-3.7226,-3.7449,-3.7577,-3.7577,-3.7577,-3.7577,-3.7577,-3.7577,-3.7613,-2.6077,-2.6601,-2.5499,-2.5257,-2.5569,-2.5495,-2.5368,-2.5188,-2.5309,-2.5645,-2.6073,-2.6028,-2.5997,-2.5945,-2.5295,0.0,0.0,-2.545,-2.5847,-2.6421,-2.6941,-2.7386,-2.7781,-2.8345,-2.8612,-2.8612,-2.8737,-2.8834,-2.8905,-2.8608,-2.8135,-2.7501,-2.6917,-2.6118,-2.5209,-2.5185,-2.5205,-2.5118,-2.5831,-2.6174,-2.6133,-2.6385,-2.6551,-2.6658,-2.6926,-2.7263,-2.7689,-2.7849,-2.804,-2.8241,-2.7808,-2.7585,-2.7714,0.0,0.0,0.0,0.0,0.0,0.0,0.0,0.0,0.0,0.0,0.0,0.0,0.0,0.0,0.0,-3.094,0.0,-3.3106,-3.4495,0.0,0.0,0.0,-3.5781,-3.5719,-3.5633,-3.506,-3.3877,0.0,0.0,-3.2798,0.0,-3.2904,-3.1705,-3.1946,-3.2367,-3.2641,-3.2718,-3.2873,-3.3235,-3.2918,-3.2878,-3.354,-3.3566,-3.3921,-3.5239,-3.5386,-3.5698,-3.6433,-3.6474,-3.6291,-3.6399,-3.6684,-3.6978,-3.6956,-3.7337,-3.7577,-3.7577,-3.7577,-3.7577,-3.7649,-3.7649,-3.7721,-2.6147,-2.6733,-2.6354,-2.6516,-2.6994,-2.6865,-2.6808,-2.6782,-2.6779,-2.6798,-2.6828,-2.6766,-2.6734,-2.6734,-2.6739,-2.6691,-2.6683,-2.6894,-2.7087,-2.7333,-2.7723,-2.808,-2.8306,-2.856,-2.8737,-2.8834,-2.8858,-2.8905,-2.8975,-2.8934,-2.8819,-2.8547,-2.8415,-2.7403,-2.5544,-2.5543,-2.5738,-2.6064,-2.6254,-2.6673,-2.7278,-2.7525,-2.7733,-2.7969,-2.8324,-2.859,-2.8805,-2.906,-2.9304,-2.9585,-2.8973,-2.8691,-2.8808,-2.7447,0.0,0.0,0.0,0.0,0.0,0.0,0.0,0.0,0.0,-3.1395,-3.0635,0.0,-3.0957,0.0,-3.2448,-3.2826,-3.3382,-3.4146,0.0,0.0,-3.5789,-3.5596,-3.6522,-3.5706,-3.5008,-3.4829,-3.4539,-3.4086,-3.3521,-3.3339,-3.3277,-3.314,-3.3245,-3.3366,-3.3419,-3.3626,-3.3588,-3.3223,-3.3014,-3.308,-3.3275,-3.4116,-3.4818,-3.5323,-3.5899,-3.6464,-3.6799,-3.7073,-3.7243,-3.7281,-3.7337,-3.7429,-3.7411,-3.754,-3.7577,-3.7577,-3.7577,-3.7649,-3.7863,-3.7915,-3.8002,-2.5799,-2.6414,-2.6376,-2.6708,-2.7255,-2.7122,-2.7169,-2.7282,-2.7105,-2.7055,-2.7055,-2.7007,-2.7057,-2.7154,-2.7267,-2.7264,-2.7201,-2.7351,-2.7483,-2.766,-2.7908,-2.8224,-2.8506,-2.867,-2.881,-2.8952,-2.8975,-2.9021,-2.913,-2.9152,-2.9134,-2.9112,-2.9112,-2.8434,-2.7206,-2.704,-2.7084,-2.7317,-2.7204,-2.7406,-2.7851,-2.811,-2.8291,-2.844,-2.8855,-2.9148,-2.9295,-2.9551,-2.9823,-3.0117,-2.9812,-2.9678,-2.9757,-2.8551,-2.8463,0.0,0.0,0.0,0.0,0.0,0.0,0.0,0.0,0.0,0.0,0.0,-3.2361,0.0,-3.3652,0.0,-3.4915,-3.5268,-3.5897,-3.6914,-3.6363,-3.6156,-3.6808,-3.5928,-3.5351,-3.5448,-3.4897,-3.4399,-3.4134,-3.3915,-3.3813,-3.3933,-3.4,-3.3887,-3.3512,-3.3564,-3.3404,-3.2724,-3.2336,-3.2172,-3.2234,-3.3719,-3.4886,-3.5256,-3.6091,-3.6882,-3.715,-3.7411,-3.7577,-3.7577,-3.7577,-3.7577,-3.7577,-3.7577,-3.7613,-3.7757,-3.7792,-3.7828,-3.7949,-3.8086,-3.8252,-2.5477,-2.607,-2.6072,-2.6418,-2.6992,-2.6875,-2.699,-2.7218,-2.6875,-2.6859,-2.6992,-2.6992,-2.7122,-2.7264,-2.7282,-2.733,-2.7313,-2.733,-2.7469,-2.7742,-2.7893,-2.8136,-2.853,-2.8718,-2.89,-2.904,-2.9085,-2.9175,-2.9302,-2.924,-2.9262,-2.9365,-2.9262,-2.9178,-2.9089,-2.8761,-2.8531,-2.8506,-2.8237,-2.8112,-2.8156,-2.8396,-2.8518,-2.8569,-2.9012,-2.9316,-2.9437,-2.9693,-2.9969,-3.0216,-3.0329,-3.0463,-3.0505,-2.9753,-3.0095,0.0,-3.0984,0.0,0.0,0.0,0.0,0.0,0.0,0.0,0.0,-3.3664,-3.3646,-3.4379,-3.488,-3.5623,-3.6669,-3.68,-3.6969,-3.7246,-3.7105,-3.6948,-3.6725,-3.6276,-3.5941,-3.5898,-3.5316,-3.4897,-3.4866,-3.4626,-3.4529,-3.4561,-3.4578,-3.4218,-3.329,-3.3177,-3.2886,-3.2059,-3.1424,-3.1344,-3.1544,-3.3028,-3.4517,-3.496,-3.5963,-3.6935,-3.7307,-3.7505,-3.7577,-3.7577,-3.7577,-3.7577,-3.7577,-3.7613,-3.7721,-3.7967,-3.8052,-3.8119,-3.8153,-3.8303,-3.851,-2.5863,-2.6497,-2.6471,-2.6691,-2.7029,-2.6976,-2.7007,-2.704,-2.6975,-2.6975,-2.6992,-2.6992,-2.7055,-2.7152,-2.725,-2.7376,-2.7465,-2.7579,-2.7753,-2.7948,-2.8208,-2.8424,-2.8667,-2.8832,-2.8975,-2.9175,-2.9178,-2.9197,-2.9218,-2.928,-2.9262,-2.924,-2.9262,-2.924,-2.9156,0.0,0.0,0.0,-2.8202,-2.8233,-2.8507,-2.8551,-2.8694,-2.8905,-2.9314,0.0,-2.957,-2.9918,-3.0188,-3.0278,-3.0402,0.0,0.0,0.0,0.0,0.0,0.0,0.0,0.0,0.0,0.0,0.0,-3.3814,-3.3759,-3.4144,-3.6074,-3.6848,-3.5837,-3.6876,-3.7352,-3.6575,-3.6916,-3.7232,-3.7279,-3.7143,-3.6987,-3.6948,-3.6811,-3.6673,-3.6308,-3.6165,-3.595,-3.5671,-3.5644,-3.5599,-3.5554,-3.5283,-3.4547,-3.3206,-3.3225,-3.2845,-3.1716,-3.1517,-3.1759,-3.1834,-3.3317,-3.4467,-3.4839,-3.5682,-3.647,-3.6684,-3.722,-3.7577,-3.7577,-3.7577,-3.7577,-3.7613,-3.7739,-3.7915,-3.7984,-3.835,-3.8652,-3.8652,-3.8683,-3.8773,-2.5673,0.0,-2.6352,-2.6521,0.0,-2.6842,-2.6842,-2.6859,-2.6909,-2.6959,-2.7007,-2.704,-2.7087,-2.7201,-2.7282,-2.7376,-2.7496,-2.7561,-2.7762,-2.8002,-2.8198,-2.8428,-2.8657,-2.8735,-2.8925,-2.92,-2.9265,-2.9307,-2.9304,-2.9328,-2.9328,-2.9304,-2.9262,-2.924,-2.924,-2.9093,-2.8868,-2.8594,-2.8578,-2.8625,-2.8791,-2.8791,-2.891,-2.916,0.0,0.0,0.0,0.0,0.0,0.0,0.0,0.0,0.0,0.0,0.0,-3.2369,-3.2067,-3.2355,-3.355,-3.3607,-3.3954,-3.4817,-3.541,-3.5508,-3.5047,-3.6975,-3.7792,-3.6883,-3.7783,-3.8071,-3.7306,-3.7488,-3.7594,-3.7484,-3.7259,-3.7143,-3.7143,-3.7066,-3.693,-3.6736,-3.6533,-3.635,-3.6165,-3.6037,-3.5994,-3.5994,-3.5847,-3.522,-3.3987,-3.3238,-3.2459,-3.1279,-3.1274,-3.1567,-3.1839,-3.3017,-3.4091,-3.4215,-3.5368,-3.6274,-3.6399,-3.7041,-3.7577,-3.7577,-3.7577,-3.7613,-3.7792,-3.7915,-3.8086,-3.8332,-3.8688,-3.9008,-3.911,-3.9137,-3.9165,-2.5556,-2.6184,-2.6203,-2.6401,-2.6708,-2.6708,-2.6708,-2.6691,0.0,0.0,0.0,-2.707,-2.7184,-2.7299,-2.7299,-2.7376,-2.7496,-2.7526,-2.7712,-2.8023,-2.8144,-2.8334,-2.8591,-2.8688,-2.8888,-2.92,-2.9351,-2.9431,-2.9409,-2.9431,-2.9431,-2.9388,-2.9283,-2.924,-2.9262,-2.9181,-2.903,-2.8881,-2.8952,-2.8975,-2.8975,-2.8975,-2.9112,-2.9293,-2.9551,-2.9734,-2.9907,-3.0138,-3.0286,-3.0266,-3.0498,-3.0863,-3.1418,-3.1609,-3.2389,-3.3836,-3.3987,-3.4424,-3.5341,-3.5411,-3.5355,-3.5335,-3.6613,-3.7029,-3.6182,-3.7389,-3.8093,-3.7811,-3.82,-3.8368,-3.8086,-3.8052,-3.7984,-3.7739,-3.7613,-3.7466,-3.7447,-3.7279,-3.7203,-3.7087,-3.6816,-3.662,-3.6638,-3.6498,-3.6392,-3.6392,-3.6357,-3.5914,-3.4746,-3.3472,-3.2426,-3.1658,-3.1856,-3.1927,-3.2159,-3.3104,-3.3724,-3.3794,-3.5208,-3.631,-3.6345,-3.6952,-3.7505,-3.7577,-3.7577,-3.7721,-3.7915,-3.8052,-3.8219,-3.8713,-3.898,-3.9171,-3.9433,-3.9483,-3.9483,-2.6191,-2.6589,-2.664,-2.6657,-2.6708,-2.6708,-2.6708,-2.6691,-2.6842,-2.6926,-2.7007,-2.707,-2.7166,-2.7299,-2.7299,-2.7376,-2.7496,-2.763,-2.78,0.0,-2.8183,-2.8406,-2.8619,-2.8773,-2.8962,-2.92,-2.9392,-2.9472,-2.9491,-2.9492,-2.9471,-2.9411,-2.9326,-2.9262,-2.92,-2.92,-2.9177,-2.9152,-2.9062,-2.8975,-2.8975,-2.8975,-2.9112,-2.9293,-2.9494,-2.9717,-2.9907,-3.0094,-3.0213,-3.0245,-3.0996,-3.1141,-3.0587,-3.127,-3.2144,-3.3082,-3.3172,-3.3851,-3.5367,-3.5374,-3.5242,-3.515,-3.6559,-3.7332,-3.7013,-3.8278,-3.9032,-3.8803,-3.8759,-3.8652,-3.8382,-3.835,-3.8318,-3.8285,-3.8271,-3.8171,-3.7915,-3.7845,-3.7739,-3.754,-3.7466,-3.7411,-3.7374,-3.7337,-3.7299,-3.7299,-3.6956,-3.6399,-3.5301,-3.4057,-3.3313,-3.3168,-3.3697,-3.4117,-3.4037,-3.4588,-3.4586,-3.412,-3.533,-3.6167,-3.556,-3.6649,-3.7542,-3.7613,-3.7613,-3.7721,-3.7984,-3.8186,-3.8446,-3.8792,-3.897,-3.92,-3.9452,-3.9483,-3.9483,-2.6315,-2.6691,-2.6708,-2.6708,-2.6708,-2.6708,-2.6759,-2.6825,-2.6909,-2.6992,-2.7007,-2.7137,-2.725,-2.7299,-2.7299,-2.7376,-2.7496,-2.7569,-2.7672,-2.786,-2.8093,-2.8264,-2.838,-2.8669,-2.8892,-2.9093,-2.9411,-2.9531,-2.9531,-2.9608,-2.9626,-2.955,-2.949,-2.9429,-2.9328,-2.9274,-2.923,-2.9218,-2.9152,-2.913,-2.9108,-2.916,-2.9312,-2.9513,-2.9681,-2.9836,-3.0049,-3.0142,-3.0171,-3.0157,-3.0571,-3.0795,-3.0877,-3.1692,-3.257,-3.3434,-3.3939,-3.452,-3.5283,-3.5293,-3.5198,-3.5094,-3.616,-3.6975,-3.7246,-3.8639,-3.9433,-3.9298,-3.9156,-3.897,-3.8755,-3.8664,-3.8541,-3.8415,-3.8382,-3.835,-3.8252,-3.8219,-3.8119,-3.788,-3.7828,-3.7757,-3.7613,-3.7577,-3.7577,-3.754,-3.7188,-3.6646,-3.6173,-3.5682,-3.4967,-3.4354,-3.4449,-3.4569,-3.45,-3.4834,-3.4652,-3.3651,-3.5114,-3.5899,-3.5489,-3.6506,-3.7488,-3.7792,-3.781,-3.7984,-3.8318,-3.8528,-3.8713,-3.8902,-3.9165,-3.9357,-3.9458,-3.9483,-3.9483,-2.6419,-2.6708,-2.6708,-2.6708,-2.6708,-2.6708,-2.6742,-2.6876,-2.6942,-2.704,-2.7087,-2.725,-2.7299,-2.7299,-2.7299,-2.7376,-2.7434,-2.7496,-2.756,-2.7681,-2.7897,-2.8053,-2.8191,-2.8482,-2.8779,-2.903,-2.9372,-2.9531,-2.9608,-2.9717,-2.9789,-2.9755,-2.9682,-2.9589,-2.9551,-2.9488,-2.9427,-2.9373,-2.9357,-2.9316,-2.9228,-2.9394,-2.9533,-2.9734,-2.9836,-2.9984,-3.019,-3.0185,-3.0157,-3.0109,-3.0266,-3.0556,-3.1035,-3.1848,-3.2626,-3.3328,-3.4146,-3.4827,-3.5171,-3.5196,-3.5181,-3.5148,-3.6064,-3.6825,-3.7449,-3.8861,-3.9693,-3.9556,-3.9408,-3.9272,-3.9137,-3.9045,-3.8873,-3.8676,-3.8628,-3.8628,-3.8572,-3.8523,-3.8396,-3.8153,-3.8052,-3.7933,-3.7757,-3.7649,-3.7613,-3.7577,-3.7319,-3.7111,-3.7073,-3.7055,-3.6509,-3.5751,-3.5347,-3.5367,-3.4991,-3.54,-3.5256,-3.3963,-3.5449,-3.6287,-3.6213,-3.6895,-3.7737,-3.8052,-3.8086,-3.8252,-3.8683,-3.8773,-3.8862,-3.9045,-3.9219,-3.9301,-3.9058,-3.8821,-3.9077,-2.6657,-2.6708,-2.6708,-2.6708,-2.6708,-2.6691,-2.6725,-2.6775,-2.6909,-2.7117,-2.7365,-2.731,-2.733,-2.7299,-2.733,-2.7345,-2.7376,-2.7434,-2.7517,-2.7539,-2.7665,-2.7876,-2.8128,-2.8344,-2.8639,-2.906,-2.9272,-2.9532,-2.9825,-2.9839,-2.9851,-2.9931,-2.9851,-2.9853,-2.9934,-2.9914,-2.9933,-2.9931,-2.9859,-2.9699,-2.9418,-2.9551,-2.9748,-2.9861,-2.9896,-2.9996,-3.0204,-3.0157,-3.0109,-3.0166,-3.0784,-3.0883,-3.0407,-3.1047,-3.1573,-3.1726,-3.252,-3.3551,-3.4999,-3.519,-3.5212,-3.5295,-3.6519,-3.7376,-3.7546,-3.8928,-3.9807,-3.9693,-3.9556,-3.9458,-3.9477,-3.9408,-3.9357,-3.9331,-3.9313,-3.9279,-3.8998,-3.896,-3.8796,-3.8415,-3.8219,-3.7984,-3.7984,-3.7845,-3.7685,-3.7721,-3.7613,-3.7504,-3.7503,-3.7449,-3.7468,-3.729,-3.7273,-3.7184,-3.7059,-3.7292,-3.6843,-3.642,-3.7102,-3.735,-3.7225,-3.7526,-3.835,-3.8318,-3.835,-3.8478,-3.8683,-3.8803,-3.8892,-3.9008,-3.9044,-3.8896,-3.8207,-3.762,-3.7734,-2.6708,-2.6708,-2.6708,-2.6742,-2.6792,-2.6725,-2.6906,-2.7227,-2.7244,-2.7457,-2.7776,-2.7783,-2.7771,-2.7771,-2.7771,-2.7771,-2.7771,-2.7811,-2.7859,-2.79,-2.8035,-2.8164,-2.83,-2.8562,-2.8827,-2.9126,-2.9357,-2.9608,-2.9874,-2.9996,-3.0052,-3.0114,-3.0085,-3.0085,-3.0066,-3.0045,-3.003,-2.9992,-3.0056,-3.0009,-2.9912,-2.9915,-2.9931,-2.9943,-3.0037,-3.0085,-3.0123,-3.0109,-3.0079,-3.0087,-3.0456,-3.049,-3.0132,-3.0973,-3.1694,-3.2307,-3.3641,-3.4639,-3.5168,-3.5285,-3.527,-3.5164,-3.572,-3.6445,-3.7355,-3.8074,-3.8772,-3.9633,-3.9712,-3.9604,-3.9623,-3.9551,-3.9483,-3.9483,-3.9483,-3.9408,-3.9219,-3.9165,-3.9027,-3.8695,-3.8615,-3.8504,-3.8378,-3.8165,-3.7982,-3.7863,-3.7757,-3.7721,-3.7667,-3.7613,-3.7685,-3.7774,-3.7845,-3.7629,-3.7341,-3.7713,-3.7504,-3.693,-3.7435,-3.8008,-3.7525,-3.7885,-3.8415,-3.8603,-3.8603,-3.8725,-3.8931,-3.896,-3.9017,-3.899,-3.8544,-3.8154,-3.7336,-3.6901,-3.7121,-2.6708,-2.6725,-2.6808,-2.6891,-2.7023,-2.7004,-2.7241,-2.7654,-2.7589,-2.7794,-2.8183,-2.821,-2.8281,-2.8316,-2.8183,-2.8102,-2.8102,-2.8102,-2.8103,-2.811,-2.8253,-2.8344,-2.8422,-2.8662,-2.8915,-2.9126,-2.9357,-2.9662,-2.9937,-3.0104,-3.0215,-3.0267,-3.0318,-3.0286,-3.0216,-3.0235,-3.019,-3.0169,-3.0203,-3.0267,-3.0254,-3.0202,-3.0166,-3.0085,-3.0161,-3.0161,-3.009,-3.0109,-3.0094,-3.0049,-3.0109,-3.0166,-3.018,-3.0795,-3.1674,-3.2899,-3.4375,-3.5268,-3.5273,-3.5411,-3.5378,-3.5242,-3.5348,-3.6042,-3.7186,-3.7658,-3.8414,-3.9643,-3.9804,-3.9739,-3.9739,-3.967,-3.9642,-3.9599,-3.958,-3.9532,-3.9452,-3.9383,-3.9272,-3.9045,-3.896,-3.8942,-3.873,-3.856,-3.8405,-3.8216,-3.8068,-3.7897,-3.7897,-3.7862,-3.7897,-3.8068,-3.8168,-3.8034,-3.7428,-3.782,-3.7721,-3.7522,-3.7942,-3.8248,-3.7619,-3.8126,-3.8346,-3.8456,-3.8707,-3.8902,-3.9017,-3.9073,-3.8841,-3.8637,-3.8116,-3.7318,-3.6519,-3.6215,-3.6051,-2.6708,-2.6758,-2.7053,-2.7244,-2.7286,-2.7607,-2.7783,-2.7915,-2.7954,-2.8147,-2.8394,-2.8507,-2.8718,-2.8881,-2.8386,-2.8112,-2.8129,-2.8156,-2.8147,-2.8146,-2.8147,-2.8224,-2.8419,-2.8481,-2.8773,-2.9148,-2.9251,-2.9551,-3.0064,-3.0109,-3.0234,-3.0477,-3.0421,-3.0406,-3.043,-3.0441,-3.0462,-3.043,-3.0417,-3.0386,-3.0394,-3.039,-3.0349,-3.0292,-3.0234,-3.018,-3.0123,-3.0171,-3.0204,-3.0185,-3.0152,-3.0169,-3.0271,-3.033,-3.1229,-3.284,-3.3896,-3.4767,-3.545,-3.5566,-3.5543,-3.5554,-3.5978,-3.675,-3.7563,-3.8174,-3.8928,-3.9816,-3.993,-3.9889,-3.9892,-3.9848,-3.9845,-3.9826,-3.9848,-3.9804,-3.9693,-3.9532,-3.9483,-3.9401,-3.9219,-3.9036,-3.8943,-3.8896,-3.8839,-3.877,-3.8609,-3.841,-3.831,-3.8277,-3.8277,-3.8405,-3.8609,-3.8807,-3.8405,-3.8405,-3.8499,-3.837,-3.8343,-3.8601,-3.846,-3.8349,-3.8312,-3.8312,-3.847,-3.8674,-3.8971,-3.8859,-3.8432,-3.7986,-3.7262,-3.6463,-3.5783,-3.489,-3.4853,-2.6808,-2.7053,-2.7382,-2.7565,-2.7624,-2.7754,-2.8,-2.8291,-2.8281,-2.8464,-2.8749,-2.8839,-2.8905,-2.8994,-2.8773,-2.8658,-2.8658,-2.8676,-2.8658,-2.8676,-2.8658,-2.8718,-2.8782,-2.8855,-2.8984,-2.9185,-2.9326,-2.9608,-2.9996,-3.0085,-3.0215,-3.0402,-3.0406,-3.0428,-3.0471,-3.049,-3.049,-3.049,-3.0439,-3.0398,-3.0398,-3.0402,-3.0402,-3.0406,-3.033,-3.0247,-3.0247,-3.0241,-3.0279,-3.0321,-3.0348,-3.0383,-3.053,-3.1564,-3.2386,-3.3064,-3.4462,-3.5402,-3.5562,-3.5631,-3.5611,-3.5502,-3.6085,-3.684,-3.7637,-3.8347,-3.9102,-3.9808,-4.0036,-4.0058,-4.0101,-4.0,-3.9889,-3.9889,-3.9889,-3.9848,-3.9739,-3.9651,-3.958,-3.9508,-3.9433,-3.9389,-3.9287,-3.9287,-3.9189,-3.898,-3.8857,-3.877,-3.8693,-3.8663,-3.8663,-3.8847,-3.9008,-3.911,-3.9036,-3.8894,-3.8884,-3.8913,-3.8952,-3.8859,-3.8739,-3.8181,-3.8013,-3.7856,-3.805,-3.788,-3.7936,-3.7873,-3.7538,-3.6849,-3.6143,-3.5987,-3.5063,-3.4674,-3.4664,-2.7132,-2.7382,-2.7713,-2.7886,-2.7943,-2.8055,-2.8273,-2.8569,-2.8583,-2.8707,-2.8947,-2.8975,-2.8975,-2.8975,-2.8975,-2.8975,-2.8975,-2.8975,-2.8975,-2.8975,-2.8975,-2.8975,-2.8998,-2.9044,-2.9075,-2.9185,-2.9386,-2.9645,-2.9883,-3.0026,-3.0128,-3.0273,-3.0336,-3.0383,-3.0425,-3.0488,-3.0479,-3.0458,-3.0451,-3.0452,-3.0422,-3.0432,-3.0472,-3.051,-3.0455,-3.0364,-3.0359,-3.0389,-3.0402,-3.0434,-3.047,-3.0632,-3.1056,-3.2448,-3.3394,-3.3666,-3.5003,-3.5853,-3.5724,-3.5749,-3.5704,-3.5577,-3.6209,-3.6978,-3.775,-3.8512,-3.9317,-3.9985,-4.0233,-4.0285,-4.0298,-4.0193,-4.0062,-4.0001,-3.9977,-3.9914,-3.9804,-3.9735,-3.967,-3.9623,-3.967,-3.9693,-3.9647,-3.9623,-3.9532,-3.932,-3.9189,-3.909,-3.9063,-3.9082,-3.9082,-3.9253,-3.9331,-3.9357,-3.9279,-3.9173,-3.872,-3.8646,-3.8637,-3.872,-3.8457,-3.7944,-3.7608,-3.7471,-3.7254,-3.697,-3.6802,-3.6758,-3.6348,-3.5739,-3.5764,-3.5829,-3.5211,-3.4762,-3.4804,-2.7683,-2.7742,-2.801,-2.8129,-2.8228,-2.85,-2.8712,-2.8761,-2.8839,-2.8863,-2.8905,-2.897,-2.8994,-2.8975,-2.8994,-2.8975,-2.8975,-2.8975,-2.8975,-2.8975,-2.8975,-2.8975,-2.8975,-2.8998,-2.904,-2.913,-2.9351,-2.957,-2.9698,-2.9872,-2.9969,-3.0041,-3.0202,-3.0286,-3.0292,-3.0428,-3.046,-3.0439,-3.053,-3.0554,-3.0519,-3.0552,-3.0599,-3.0597,-3.0588,-3.0558,-3.0507,-3.056,-3.056,-3.051,-3.051,-3.0944,-3.179,-3.283,-3.3726,-3.4456,-3.5382,-3.585,-3.5883,-3.5897,-3.5827,-3.5907,-3.6513,-3.7317,-3.8009,-3.8835,-3.9638,-4.0299,-4.0482,-4.0511,-4.0511,-4.0496,-4.0373,-4.0247,-4.0139,-4.0061,-3.9935,-3.9804,-3.9717,-3.9739,-3.9807,-3.987,-3.9889,-3.9848,-3.9804,-3.9758,-3.9623,-3.9483,-3.9483,-3.9458,-3.9502,-3.9526,-3.9556,-3.9599,-3.9502,-3.9327,-3.8712,-3.8215,-3.8159,-3.8111,-3.7642,-3.7149,-3.6986,-3.6836,-3.6652,-3.6359,-3.6235,-3.6193,-3.61,-3.5694,-3.5786,-3.5681,-3.5267,-3.4889,-3.4908,-2.7982,-2.801,-2.8299,-2.8448,-2.8474,-2.8644,-2.8718,-2.8737,-2.881,-2.8852,-2.8834,-2.8905,-2.8929,-2.8929,-2.8975,-2.8975,-2.8975,-2.8975,-2.8975,-2.9017,-2.9017,-2.8998,-2.8998,-2.8998,-2.9017,-2.9099,-2.9156,-2.9351,-2.9551,-2.9645,-2.9735,-2.9867,-3.0066,-3.0169,-3.0228,-3.0389,-3.0472,-3.0482,-3.0557,-3.0602,-3.0565,-3.0587,-3.063,-3.0664,-3.0678,-3.0689,-3.0751,-3.0704,-3.0685,-3.0701,-3.0716,-3.1115,-3.2016,-3.2908,-3.3775,-3.4544,-3.5402,-3.5889,-3.5889,-3.5889,-3.5891,-3.6117,-3.7035,-3.7792,-3.8283,-3.9399,-4.0243,-4.063,-4.0649,-4.0674,-4.0746,-4.0734,-4.0617,-4.038,-4.0312,-4.0264,-4.0157,-4.0061,-3.9981,-3.996,-3.9935,-3.9911,-3.9889,-3.9911,-3.9892,-3.9914,-3.9826,-3.9781,-3.9762,-3.9762,-3.9781,-3.9781,-3.9804,-3.9762,-3.9604,-3.9245,-3.8627,-3.8047,-3.7817,-3.7579,-3.7038,-3.6534,-3.6368,-3.6241,-3.6023,-3.5873,-3.5756,-3.566,-3.5603,-3.5472,-3.5324,-3.521,-3.5129,-3.5124,-3.5141,-2.8255,-2.8299,-2.8518,-2.8587,-2.8612,-2.8662,-2.8644,-2.8669,-2.8718,-2.8761,-2.8785,-2.8815,-2.8858,-2.8881,-2.8905,-2.8975,-2.9007,-2.9048,-2.9099,-2.915,-2.913,-2.9138,-2.9203,-2.9138,-2.9085,-2.9076,-2.9085,-2.9243,-2.9471,-2.9531,-2.9644,-2.9869,-3.0056,-3.0142,-3.0228,-3.0389,-3.0492,-3.0482,-3.0585,-3.0626,-3.0626,-3.0644,-3.0678,-3.0735,-3.0739,-3.0788,-3.0911,-3.1094,-3.1081,-3.0866,-3.0785,-3.1336,-3.2448,-3.3126,-3.3882,-3.4944,-3.5549,-3.5894,-3.5889,-3.5889,-3.5897,-3.6151,-3.7378,-3.8237,-3.8549,-3.9779,-4.0729,-4.0839,-4.0859,-4.0878,-4.0963,-4.0935,-4.0819,-4.0667,-4.053,-4.0427,-4.0334,-4.023,-4.0139,-4.0101,-4.002,-3.9998,-3.9977,-3.9977,-4.0,-4.0021,-4.006,-4.006,-4.006,-4.0041,-4.002,-3.9979,-3.9916,-3.981,-3.9675,-3.9176,-3.8554,-3.8022,-3.7566,-3.7194,-3.6732,-3.6102,-3.5742,-3.5723,-3.5586,-3.5476,-3.5344,-3.5305,-3.5247,-3.5037,-3.5054,-3.5174,-3.5304,-3.5304,-3.532,-2.8536,-2.8587,-2.8587,-2.8587,-2.8587,-2.8612,-2.8612,-2.8612,-2.8694,-2.8761,-2.8761,-2.8881,-2.8881,-2.8858,-2.8929,-2.9007,-2.9104,-2.9148,-2.927,-2.9418,-2.9418,-2.9397,-2.9437,-2.9316,-2.9185,-2.9071,-2.9112,-2.9243,-2.9472,-2.9551,-2.9735,-2.9956,-3.0094,-3.018,-3.0228,-3.0386,-3.0451,-3.0449,-3.0582,-3.063,-3.0618,-3.0704,-3.0789,-3.0788,-3.0799,-3.0827,-3.0966,-3.1548,-3.1684,-3.1083,-3.1165,-3.1913,-3.3142,-3.3473,-3.4265,-3.5675,-3.589,-3.5904,-3.5894,-3.5914,-3.5903,-3.6015,-3.7267,-3.8388,-3.8564,-3.9782,-4.0832,-4.1018,-4.1071,-4.1078,-4.1078,-4.1078,-4.1038,-4.098,-4.0757,-4.0577,-4.0364,-4.0332,-4.0281,-4.0194,-4.0139,-4.0101,-4.0101,-4.012,-4.0157,-4.023,-4.0266,-4.0248,-4.0267,-4.0232,-4.0212,-4.0158,-4.006,-3.9711,-3.9529,-3.9145,-3.8445,-3.7465,-3.7086,-3.6766,-3.6388,-3.5812,-3.5455,-3.5395,-3.5337,-3.5179,-3.5124,-3.5174,-3.5207,-3.5207,-3.5304,-3.5446,-3.5474,-3.5446,-3.5432,-2.8492,-2.8536,-2.8587,-2.8587,-2.8587,-2.8587,-2.8612,-2.8637,-2.8839,-2.8934,-2.8957,-2.916,-2.9206,-2.9228,-2.9289,-2.9353,-2.9373,-2.9394,-2.9506,-2.9675,-2.9683,-2.9495,-2.9343,-2.9299,-2.9275,-2.9235,-2.9251,-2.9394,-2.9608,-2.9662,-2.9734,-2.9859,-3.0041,-3.0109,-3.0182,-3.0359,-3.0472,-3.0492,-3.0557,-3.0614,-3.0614,-3.0671,-3.073,-3.0725,-3.0774,-3.0833,-3.0908,-3.1646,-3.2371,-3.2734,-3.2712,-3.3194,-3.4167,-3.4323,-3.4788,-3.5717,-3.5966,-3.5981,-3.5981,-3.5962,-3.5953,-3.5977,-3.6927,-3.7798,-3.8468,-3.9461,-4.0377,-4.0896,-4.111,-4.111,-4.111,-4.1104,-4.1052,-4.0996,-4.0869,-4.0787,-4.0723,-4.0617,-4.0487,-4.0477,-4.0332,-4.0266,-4.0248,-4.0248,-4.0266,-4.0336,-4.0353,-4.0353,-4.0386,-4.037,-4.0353,-4.0306,-4.0157,-3.97,-3.9317,-3.8953,-3.8231,-3.7032,-3.6535,-3.6322,-3.6007,-3.5622,-3.5475,-3.5465,-3.5441,-3.5324,-3.5354,-3.5398,-3.5398,-3.5369,-3.5432,-3.5507,-3.5507,-3.5474,-3.546,-2.8484,-2.8518,-2.8694,-2.8767,-2.8767,-2.8845,-2.8892,-2.8915,-2.9052,-2.9119,-2.9163,-2.927,-2.9353,-2.9353,-2.9394,-2.9492,-2.9532,-2.9532,-2.9645,-2.9849,-2.9907,-2.9756,-2.9564,-2.9532,-2.9533,-2.9439,-2.9437,-2.957,-2.9753,-2.9787,-2.9836,-2.9988,-3.0085,-3.0155,-3.0202,-3.0333,-3.0451,-3.0481,-3.0521,-3.0539,-3.0557,-3.061,-3.0634,-3.0664,-3.0753,-3.0979,-3.1783,-3.2703,-3.329,-3.3395,-3.3422,-3.3812,-3.4599,-3.47,-3.5091,-3.5867,-3.5947,-3.5948,-3.5947,-3.5966,-3.5947,-3.6057,-3.6713,-3.7558,-3.8424,-3.9282,-4.0162,-4.0955,-4.1091,-4.1104,-4.1064,-4.1038,-4.0996,-4.0971,-4.0926,-4.0888,-4.0888,-4.0757,-4.0655,-4.059,-4.0472,-4.0383,-4.0383,-4.0383,-4.0434,-4.0481,-4.0549,-4.053,-4.053,-4.05,-4.0469,-4.0408,-4.0187,-3.9734,-3.9031,-3.8555,-3.7906,-3.6733,-3.6116,-3.5895,-3.5748,-3.5507,-3.5507,-3.5493,-3.5507,-3.5507,-3.5507,-3.5507,-3.5474,-3.546,-3.5493,-3.5488,-3.5501,-3.5515,-3.5515,-2.8386,-2.8587,-2.8887,-2.9026,-2.9056,-2.9209,-2.9251,-2.9293,-2.9314,-2.9334,-2.9355,-2.9355,-2.9435,-2.9373,-2.9474,-2.9494,-2.9644,-2.9644,-2.9751,-2.9905,-3.0007,-2.9975,-2.9908,-2.9829,-2.9765,-2.9638,-2.9624,-2.9732,-2.9888,-2.994,-3.0015,-3.0138,-3.0194,-3.0221,-3.0247,-3.0343,-3.0398,-3.0402,-3.0447,-3.0479,-3.0481,-3.0501,-3.053,-3.0604,-3.0676,-3.1572,-3.2828,-3.3824,-3.4129,-3.3738,-3.3682,-3.4234,-3.4844,-3.4861,-3.5174,-3.5742,-3.5937,-3.5916,-3.5915,-3.5937,-3.5935,-3.6035,-3.6599,-3.7434,-3.8205,-3.9021,-3.9897,-4.0733,-4.1019,-4.1052,-4.0996,-4.0935,-4.0926,-4.0917,-4.0888,-4.0888,-4.0898,-4.0839,-4.0754,-4.063,-4.0549,-4.054,-4.0526,-4.0559,-4.0574,-4.064,-4.0687,-4.0687,-4.0654,-4.064,-4.0579,-4.0485,-4.0188,-3.9778,-3.8961,-3.8125,-3.7351,-3.6473,-3.5916,-3.5638,-3.5638,-3.5507,-3.5507,-3.5507,-3.5507,-3.5507,-3.5507,-3.5507,-3.5488,-3.5509,-3.5528,-3.5534,-3.5522,-3.5528,-3.5528,-2.8112,-2.8907,-2.9044,-2.9135,-2.9243,-2.9279,-2.9314,-2.9334,-2.9474,-2.9551,-2.957,-2.9681,-2.977,-2.977,-2.9734,-2.9786,-2.9822,-2.9822,-2.9924,-3.0053,-3.0066,-3.0128,-3.0099,-2.9984,-2.9886,-2.9834,-2.9836,-2.9937,-3.0079,-3.0128,-3.0176,-3.0185,-3.0213,-3.0207,-3.0234,-3.0292,-3.033,-3.0336,-3.0348,-3.0375,-3.0428,-3.043,-3.0481,-3.0559,-3.0684,-3.1637,-3.2996,-3.3555,-3.4199,-3.5086,-3.537,-3.5371,-3.5488,-3.5566,-3.5663,-3.5799,-3.5937,-3.5975,-3.5976,-3.5975,-3.5976,-3.5996,-3.6191,-3.6598,-3.7434,-3.8288,-3.9153,-3.9973,-4.0632,-4.087,-4.0827,-4.0878,-4.0743,-4.0704,-4.0704,-4.0743,-4.084,-4.08,-4.0776,-4.0754,-4.0732,-4.0733,-4.0713,-4.0713,-4.0746,-4.079,-4.079,-4.079,-4.0778,-4.0746,-4.0538,-4.0357,-3.9961,-3.9419,-3.8293,-3.7459,-3.6761,-3.6243,-3.579,-3.5509,-3.5509,-3.5522,-3.5534,-3.5509,-3.5507,-3.5488,-3.5515,-3.5515,-3.5509,-3.5534,-3.5574,-3.5596,-3.5596,-3.5585,-3.5562,-2.7523,-2.8432,-2.8609,-2.8984,-2.942,-2.9551,-2.9608,-2.9608,-2.9681,-2.9753,-2.977,-2.9872,-2.9907,-2.9907,-2.9907,-2.9907,-2.9907,-2.9907,-2.9975,-3.0087,-3.0085,-3.0147,-3.0185,-3.0113,-3.0034,-3.0034,-3.0034,-3.0113,-3.0171,-3.0204,-3.0204,-3.0204,-3.0199,-3.0213,-3.0213,-3.0234,-3.0279,-3.0305,-3.0311,-3.0328,-3.0383,-3.043,-3.0501,-3.0711,-3.1025,-3.1825,-3.263,-3.3619,-3.4406,-3.5218,-3.5741,-3.576,-3.5465,-3.5385,-3.5384,-3.5419,-3.5804,-3.5918,-3.5938,-3.5957,-3.5957,-3.5945,-3.597,-3.6444,-3.7012,-3.7694,-3.829,-3.9114,-3.9872,-4.0401,-4.0334,-4.0246,-4.0139,-3.9693,-3.9654,-3.9654,-3.977,-4.0283,-4.0807,-4.0796,-4.0788,-4.0803,-4.079,-4.0674,-4.0694,-4.0636,-4.063,-4.0649,-4.0713,-4.0623,-4.0254,-3.9986,-3.9605,-3.8902,-3.7661,-3.6781,-3.6152,-3.5823,-3.5682,-3.5553,-3.5558,-3.557,-3.5581,-3.5553,-3.5522,-3.5534,-3.5528,-3.5528,-3.5558,-3.5609,-3.565,-3.5678,-3.5678,-3.566,-3.5641,-2.6798,-2.772,-2.7957,-2.8521,-2.9251,-2.954,-2.9645,-2.968,-2.9851,-2.9891,-2.9907,-2.9907,-2.9907,-2.9907,-2.9907,-2.9907,-2.9907,-2.9907,-2.9975,-3.0091,-3.0085,-3.0147,-3.0185,-3.019,-3.019,-3.0204,-3.019,-3.0204,-3.0204,-3.0204,-3.0204,-3.0204,-3.0204,-3.0204,-3.0218,-3.0213,-3.024,-3.0299,-3.0323,-3.0344,-3.0428,-3.0472,-3.0579,-3.0762,-3.1151,-3.1682,-3.2299,-3.321,-3.4183,-3.4462,-3.519,-3.5058,-3.464,-3.4822,-3.4895,-3.4979,-3.5635,-3.5888,-3.5951,-3.5938,-3.5919,-3.5904,-3.5916,-3.6231,-3.6808,-3.7225,-3.7714,-3.8331,-3.9039,-3.9574,-3.949,-3.9389,-3.8977,-3.8539,-3.8276,-3.8218,-3.8462,-3.9561,-4.0106,-4.0533,-4.0633,-4.0745,-4.0539,-4.0365,-4.0423,-4.0462,-4.0404,-4.0391,-4.0378,-4.0229,-3.9687,-3.9157,-3.87,-3.7968,-3.6785,-3.6458,-3.5771,-3.5669,-3.5581,-3.5604,-3.5618,-3.562,-3.562,-3.5593,-3.5577,-3.5581,-3.5596,-3.5618,-3.566,-3.5693,-3.5745,-3.576,-3.576,-3.5745,-3.5737,-2.624,-2.7304,-2.7362,-2.7554,-2.7948,-2.86,-2.8903,-2.9017,-2.9602,-2.9907,-2.9907,-2.9907,-2.9907,-2.9907,-2.9907,-2.9907,-2.9907,-2.9907,-2.9959,-3.0076,-3.009,-3.0147,-3.0185,-3.0204,-3.0204,-3.0204,-3.0204,-3.0204,-3.0204,-3.0204,-3.0204,-3.0204,-3.0204,-3.0204,-3.0204,-3.0218,-3.0245,-3.0299,-3.0352,-3.0402,-3.0481,-3.054,-3.0614,-3.0711,-3.0955,-3.1324,-3.1893,-3.2332,-3.2826,-3.3512,-3.3751,-3.3429,-3.3476,-3.47,-3.5511,-3.5542,-3.5789,-3.5981,-3.5981,-3.5981,-3.5985,-3.5985,-3.5971,-3.5974,-3.6367,-3.6841,-3.726,-3.7655,-3.8215,-3.8678,-3.8554,-3.8512,-3.8423,-3.8199,-3.8044,-3.8025,-3.8121,-3.8501,-3.9027,-3.9472,-4.0029,-4.0442,-3.9997,-3.9649,-3.9553,-3.9405,-3.9296,-3.9213,-3.9174,-3.8981,-3.8612,-3.8084,-3.7555,-3.676,-3.5836,-3.5849,-3.5631,-3.5676,-3.564,-3.5698,-3.5708,-3.5697,-3.5688,-3.5688,-3.566,-3.566,-3.5679,-3.5697,-3.5757,-3.5827,-3.5852,-3.5869,-3.5869,-3.5844,-3.5858,-2.5541,-2.6468,-2.6553,-2.6899,-2.7409,-2.7869,-2.8332,-2.8749,-2.9093,-2.951,-2.9813,-2.9907,-2.9907,-2.9907,-2.9907,-2.9907,-2.9907,-2.9907,-2.9975,-3.0076,-3.009,-3.0147,-3.0185,-3.0204,-3.0204,-3.0204,-3.0204,-3.0204,-3.0204,-3.0204,-3.0218,-3.0204,-3.0204,-3.0204,-3.0218,-3.0213,-3.0265,-3.035,-3.0425,-3.0468,-3.0549,-3.0617,-3.0677,-3.0728,-3.0758,-3.1003,-3.1343,-3.1973,-3.2285,-3.2812,-3.361,-3.3732,-3.4015,-3.4685,-3.5585,-3.5071,-3.5517,-3.6003,-3.6003,-3.6003,-3.6003,-3.6003,-3.6003,-3.6003,-3.6081,-3.6394,-3.6821,-3.7255,-3.744,-3.7795,-3.7756,-3.7714,-3.7456,-3.7077,-3.7019,-3.7038,-3.7088,-3.7398,-3.7835,-3.831,-3.8744,-3.9035,-3.9011,-3.874,-3.8586,-3.84,-3.8182,-3.8105,-3.8015,-3.7919,-3.7712,-3.7289,-3.6852,-3.635,-3.5707,-3.5707,-3.5659,-3.5689,-3.5741,-3.5779,-3.5811,-3.5807,-3.5839,-3.5869,-3.5827,-3.5757,-3.5791,-3.5829,-3.5892,-3.5924,-3.5938,-3.5951,-3.5958,-3.5962,-3.5947,-2.4906,-2.5571,-2.5689,-2.614,-2.6787,-2.7125,-2.7574,-2.8146,-2.8389,-2.8768,-2.9374,-2.9393,-2.945,-2.9661,-2.9813,-2.9907,-2.9907,-2.9907,-2.9997,-3.0079,-3.009,-3.0128,-3.0185,-3.0204,-3.0204,-3.0204,-3.024,-3.0213,-3.0218,-3.0226,-3.0221,-3.0247,-3.0253,-3.0279,-3.0273,-3.0304,-3.0363,-3.0419,-3.049,-3.0568,-3.0634,-3.0684,-3.0735,-3.0799,-3.0801,-3.0819,-3.0977,-3.1387,-3.1699,-3.2207,-3.3085,-3.4042,-3.4293,-3.5154,-3.5068,-3.4199,-3.5194,-3.5819,-3.6013,-3.6012,-3.6013,-3.6015,-3.6015,-3.6015,-3.6015,-3.6112,-3.6305,-3.6868,-3.6991,-3.695,-3.6921,-3.6897,-3.6542,-3.6172,-3.594,-3.5892,-3.6144,-3.6435,-3.6754,-3.7162,-3.7491,-3.7779,-3.7931,-3.7916,-3.78,-3.7348,-3.7123,-3.715,-3.7119,-3.7205,-3.7038,-3.6636,-3.6273,-3.5991,-3.5728,-3.5786,-3.5756,-3.5776,-3.584,-3.5903,-3.5929,-3.5958,-3.5946,-3.5923,-3.5904,-3.5833,-3.5903,-3.5917,-3.5948,-3.5962,-3.5991,-3.601,-3.5991,-3.5991,-3.5985,-2.4592,-2.4757,-2.4832,-2.4949,-2.5262,-2.6034,-2.6399,-2.666,-2.7361,-2.765,-2.8002,-2.7892,-2.829,-2.8859,-2.9599,-2.9848,-2.9886,-3.0,-3.0054,-3.0121,-3.0138,-3.0163,-3.0199,-3.0204,-3.024,-3.0266,-3.0292,-3.0241,-3.026,-3.0273,-3.0297,-3.0321,-3.0389,-3.0452,-3.0422,-3.0442,-3.0521,-3.0569,-3.0649,-3.0701,-3.0732,-3.0757,-3.0796,-3.0799,-3.0801,-3.0801,-3.0821,-3.1114,-3.1211,-3.1289,-3.2012,-3.2461,-3.2656,-3.4003,-3.4647,-3.4849,-3.5384,-3.6012,-3.6013,-3.6015,-3.6015,-3.601,-3.6005,-3.6021,-3.6007,-3.6011,-3.6072,-3.6072,-3.6188,-3.6239,-3.6258,-3.6128,-3.5949,-3.59,-3.5826,-3.5818,-3.5905,-3.6021,-3.6274,-3.6273,-3.6697,-3.6939,-3.7123,-3.708,-3.6977,-3.6485,-3.6129,-3.6218,-3.6323,-3.6489,-3.6561,-3.6246,-3.6102,-3.5869,-3.5795,-3.5849,-3.5859,-3.5859,-3.5904,-3.5994,-3.5985,-3.5977,-3.5884,-3.5857,-3.5849,-3.5767,-3.5681,-3.5731,-3.5903,-3.5982,-3.6001,-3.6016,-3.601,-3.601,-3.6013,-2.4584,-2.4535,-2.4663,-2.4723,-2.4812,-2.5319,-2.5792,-2.6223,-2.664,-2.711,-2.7499,-2.7597,-2.7834,-2.8245,-2.9003,-2.9379,-2.9522,-2.9946,-3.02,-3.0247,-3.026,-3.0317,-3.0367,-3.0356,-3.0356,-3.0375,-3.04,-3.0411,-3.0378,-3.0389,-3.0413,-3.0442,-3.0453,-3.0472,-3.0528,-3.0537,-3.0595,-3.0645,-3.0709,-3.0762,-3.0777,-3.0801,-3.0801,-3.0801,-3.0801,-3.0801,-3.088,-3.1348,-3.1504,-3.1797,-3.2734,-3.3554,-3.3827,-3.4705,-3.5447,-3.5486,-3.5745,-3.6001,-3.6003,-3.6007,-3.6005,-3.6007,-3.6003,-3.6003,-3.6016,-3.6018,-3.6021,-3.6021,-3.6021,-3.5991,-3.5958,-3.5951,-3.5942,-3.5924,-3.5908,-3.5909,-3.5916,-3.5913,-3.601,-3.5927,-3.5928,-3.6274,-3.6522,-3.6484,-3.6476,-3.625,-3.5966,-3.6005,-3.6034,-3.6066,-3.6091,-3.602,-3.5968,-3.5913,-3.591,-3.5937,-3.5937,-3.5937,-3.5955,-3.601,-3.5996,-3.5962,-3.5742,-3.5664,-3.5645,-3.5552,-3.5408,-3.5664,-3.5957,-3.5996,-3.6005,-3.6018,-3.601,-3.6016,-3.6001,-2.4485,-2.4613,-2.4738,-2.479,-2.4816,-2.4968,-2.5399,-2.5907,-2.599,-2.6378,-2.6944,-2.7204,-2.7374,-2.768,-2.8447,-2.9079,-2.9084,-2.9937,-3.028,-3.0375,-3.0402,-3.0438,-3.0449,-3.0479,-3.0443,-3.0482,-3.05,-3.0509,-3.0518,-3.0554,-3.0571,-3.0546,-3.0579,-3.0579,-3.0607,-3.0644,-3.0691,-3.0736,-3.0767,-3.0796,-3.0801,-3.0801,-3.0801,-3.0801,-3.0801,-3.0801,-3.0899,-3.1289,-3.168,-3.1934,-3.291,-3.3632,-3.412,-3.4822,-3.5584,-3.5757,-3.5994,-3.6013,-3.6013,-3.6016,-3.6018,-3.6003,-3.6007,-3.6021,-3.6013,-3.601,-3.601,-3.6013,-3.6013,-3.6013,-3.601,-3.5991,-3.5985,-3.5988,-3.5994,-3.6003,-3.6007,-3.5986,-3.597,-3.5966,-3.5952,-3.5981,-3.6122,-3.5986,-3.5927,-3.5908,-3.5849,-3.584,-3.5859,-3.5879,-3.5918,-3.5957,-3.5957,-3.5957,-3.5976,-3.5996,-3.6016,-3.6016,-3.6016,-3.5976,-3.5937,-3.5664,-3.5312,-3.5312,-3.5234,-3.4859,-3.4433,-3.5234,-3.6016,-3.6016,-3.6009,-3.6018,-3.6013,-3.6001,-3.5993,-2.4142,-2.4869,-2.4923,-2.5018,-2.5064,-2.5149,-2.5225,-2.5359,-2.5305,-2.5393,-2.5729,-2.6189,-2.6603,-2.6987,-2.8092,-2.8902,-2.9002,-2.996,-3.0328,-3.0443,-3.0462,-3.0508,-3.0529,-3.0498,-3.047,-3.0518,-3.0587,-3.0605,-3.062,-3.0685,-3.0659,-3.062,-3.0685,-3.0753,-3.0764,-3.073,-3.0759,-3.0771,-3.0796,-3.0799,-3.0801,-3.0801,-3.0801,-3.0801,-3.0801,-3.0801,-3.0801,-3.1172,-3.1524,-3.1602,-3.2695,-3.3456,-3.4256,-3.4822,-3.5486,-3.5876,-3.601,-3.601,-3.601,-3.601,-3.6013,-3.6013,-3.6013,-3.6016,-3.6013,-3.601,-3.601,-3.601,-3.601,-3.601,-3.601,-3.601,-3.601,-3.6013,-3.6016,-3.6016,-3.6018,-3.6018,-3.6003,-3.6013,-3.6016,-3.6016,-3.6016,-3.5957,-3.5937,-3.5937,-3.5937,-3.5918,-3.5937,-3.5957,-3.5976,-3.5996,-3.5996,-3.5996,-3.5996,-3.6016,-3.6016,-3.6016,-3.6016,-3.5918,-3.584,-3.5449,-3.4961,-3.4394,-3.4173,-3.3807,-3.3691,-3.4473,-3.5195,-3.5781,-3.5955,-3.578,-3.5859,-3.5937,-3.5929,-2.391,-2.4282,-2.4943,-2.5187,-2.5111,-2.5175,-2.5201,-2.5203,-2.5254,-2.5322,-2.5388,-2.5716,-2.5889,-2.6352,-2.7557,-2.8386,-2.8589,-2.9959,-3.0354,-3.0607,-3.0658,-3.0677,-3.0681,-3.0645,-3.0672,-3.0672,-3.0703,-3.0709,-3.0714,-3.0774,-3.0769,-3.0745,-3.0774,-3.0774,-3.0789,-3.0786,-3.0788,-3.0796,-3.0801,-3.0801,-3.0801,-3.0801,-3.0801,-3.0801,-3.0801,-3.1133,-3.1582,-3.2148,-3.2636,-3.3163,-3.3846,-3.4295,-3.4627,-3.5154,-3.5545,-3.5935,-3.601,-3.601,-3.601,-3.601,-3.601,-3.601,-3.601,-3.601,-3.601,-3.601,-3.601,-3.601,-3.601,-3.601,-3.601,-3.601,-3.601,-3.601,-3.601,-3.601,-3.601,-3.601,-3.6013,-3.6009,-3.6016,-3.6016,-3.6016,-3.6016,-3.5996,-3.5996,-3.6016,-3.6016,-3.6016,-3.6016,-3.6016,-3.6016,-3.6016,-3.6016,-3.6016,-3.6016,-3.6016,-3.5937,-3.5898,-3.5625,-3.5351,-3.5098,-3.4551,-3.3867,-3.3212,-3.297,-3.3116,-3.3724,-3.4334,-3.4927,-3.524,-3.5315,-3.5503,-3.5789,-3.586,-2.3667,-2.3998,-2.4975,-2.5309,-2.5222,-2.5245,-2.5274,-2.5293,-2.534,-2.5404,-2.5511,-2.5511,-2.5511,-2.5917,-2.6884,-2.7608,-2.7992,-2.9028,-2.9673,-2.9946,-3.0097,-3.037,-3.0487,-3.0638,-3.0764,-3.0799,-3.0799,-3.0779,-3.0774,-3.0799,-3.0779,-3.0779,-3.0799,-3.0799,-3.0789,-3.0786,-3.0785,-3.0796,-3.0801,-3.0801,-3.0801,-3.0801,-3.0801,-3.0801,-3.0801,-3.1231,-3.1856,-3.2441,-3.3124,-3.3807,-3.453,-3.5154,-3.5447,-3.5662,-3.5759,-3.5913,-3.601,-3.601,-3.601,-3.601,-3.601,-3.601,-3.601,-3.601,-3.601,-3.601,-3.601,-3.601,-3.601,-3.601,-3.601,-3.601,-3.601,-3.601,-3.601,-3.601,-3.601,-3.601,-3.601,-3.6016,-3.6016,-3.6016,-3.6016,-3.6016,-3.6016,-3.6016,-3.6016,-3.6016,-3.6016,-3.6016,-3.6016,-3.6016,-3.6016,-3.6016,-3.6016,-3.5976,-3.584,-3.5371,-3.5254,-3.4922,-3.4648,-3.4338,-3.3809,-3.2967,-3.2435,-3.2221,-3.2227,-3.2408,-3.319,-3.4067,-3.4428,-3.4859,-3.5139,-3.5418,-3.5728,-2.3285,-2.4159,-2.4985,-2.5354,-2.5302,-2.539,-2.5421,-2.5459,-2.5476,-2.5503,-2.5511,-2.5511,-2.5511,-2.5724,-2.6536,-2.6939,-2.7203,-2.7961,-2.8489,-2.8757,-2.9264,-2.9479,-2.9883,-3.0234,-3.0604,-3.076,-3.0799,-3.0799,-3.0799,-3.0789,-3.0789,-3.0793,-3.0798,-3.0793,-3.0784,-3.0786,-3.0801,-3.0791,-3.0799,-3.0799,-3.0801,-3.0801,-3.0801,-3.0801,-3.0801,-3.1211,-3.1973,-3.2246,-3.2851,-3.3593,-3.3768,-3.4256,-3.4861,-3.4901,-3.5252,-3.5916,-3.5991,-3.601,-3.601,-3.601,-3.601,-3.601,-3.601,-3.601,-3.601,-3.601,-3.601,-3.601,-3.601,-3.601,-3.601,-3.601,-3.601,-3.601,-3.601,-3.601,-3.601,-3.601,-3.601,-3.601,-3.6021,-3.6016,-3.6016,-3.6016,-3.6016,-3.6016,-3.6016,-3.6016,-3.6016,-3.6016,-3.6016,-3.6016,-3.5996,-3.5762,-3.5742,-3.584,-3.5664,-3.5098,-3.457,-3.4219,-3.3665,-3.3145,-3.257,-3.1961,-3.1659,-3.1437,-3.1114,-3.0877,-3.1845,-3.2856,-3.3971,-3.4497,-3.4778,-3.5069,-3.5359,-2.2102,-2.2507,-2.3934,-2.4535,-2.4617,-2.5205,-2.5484,-2.5492,-2.5511,-2.5511,-2.5511,-2.5511,-2.5511,-2.5762,-2.6227,-2.668,-2.6866,-2.7672,-2.8135,-2.8137,-2.8497,-2.9024,-2.9425,-2.9771,-3.0239,-3.0662,-3.0799,-3.0784,-3.0799,-3.0786,-3.0798,-3.0801,-3.0788,-3.0788,-3.0786,-3.0802,-3.0786,-3.0791,-3.0799,-3.0801,-3.0801,-3.0801,-3.0801,-3.0801,-3.0801,-3.1231,-3.2012,-3.209,-3.2539,-3.3261,-3.3378,-3.3827,-3.451,-3.4705,-3.5115,-3.5798,-3.601,-3.601,-3.601,-3.601,-3.601,-3.601,-3.601,-3.601,-3.601,-3.601,-3.601,-3.601,-3.601,-3.601,-3.601,-3.601,-3.601,-3.601,-3.601,-3.601,-3.601,-3.601,-3.601,-3.6013,-3.6018,-3.6009,-3.6016,-3.6016,-3.6016,-3.6016,-3.6016,-3.6016,-3.6016,-3.6016,-3.6016,-3.6016,-3.5937,-3.5605,-3.543,-3.5488,-3.5039,-3.4297,-3.3809,-3.3437,-3.2811,-3.2116,-3.1719,-3.1313,-3.0975,-3.0636,-3.0656,-3.0704,-3.0857,-3.1622,-3.2735,-3.3828,-3.4351,-3.4662,-3.5,-2.1485,-2.1688,-2.3383,-2.4111,-2.4242,-2.5097,-2.5511,-2.5511,-2.5511,-2.5511,-2.5511,-2.5511,-2.5511,-2.5666,-2.5994,-2.6304,-2.6391,-2.6887,-2.7206,-2.7308,-2.768,-2.804,-2.8519,-2.9242,-2.9808,-3.033,-3.0685,-3.0802,-3.0786,-3.0794,-3.0801,-3.0786,-3.0793,-3.0786,-3.0788,-3.0794,-3.079,-3.0801,-3.0796,-3.08,-3.0798,-3.0795,-3.0793,-3.0792,-3.0905,-3.1211,-3.1836,-3.2226,-3.2461,-3.3066,-3.3456,-3.3788,-3.4374,-3.4783,-3.5135,-3.572,-3.601,-3.601,-3.601,-3.601,-3.601,-3.601,-3.601,-3.601,-3.601,-3.601,-3.601,-3.601,-3.601,-3.601,-3.601,-3.601,-3.601,-3.601,-3.601,-3.601,-3.601,-3.601,-3.601,-3.6013,-3.6013,-3.6007,-3.6016,-3.6016,-3.6016,-3.6016,-3.6016,-3.6016,-3.5996,-3.6016,-3.5937,-3.5859,-3.5742,-3.5391,-3.5137,-3.5078,-3.4473,-3.3555,-3.3108,-3.2793,-3.198,-3.1303,-3.0994,-3.0772,-3.0694,-3.0617,-3.0617,-3.0684,-3.0771,-3.0964,-3.1497,-3.2609,-3.3692,-3.4265,-3.4633,-2.1443,-2.1737,-2.3323,-2.3983,-2.4219,-2.5062,-2.5526,-2.5511,-2.5511,-2.5511,-2.5511,-2.553,-2.553,-2.5511,-2.5557,-2.5635,-2.5726,-2.5834,-2.5886,-2.6052,-2.6683,-2.7002,-2.7707,-2.8633,-2.9327,-2.9793,-3.0284,-3.0794,-3.0796,-3.0792,-3.0797,-3.0798,-3.08,-3.08,-3.0793,-3.0786,-3.0801,-3.0797,-3.08,-3.0798,-3.08,-3.0801,-3.0801,-3.0801,-3.0871,-3.1194,-3.1641,-3.1895,-3.2324,-3.2773,-3.3144,-3.3768,-3.4276,-3.463,-3.5193,-3.572,-3.5977,-3.601,-3.601,-3.601,-3.601,-3.601,-3.601,-3.601,-3.601,-3.601,-3.601,-3.601,-3.601,-3.601,-3.601,-3.601,-3.601,-3.601,-3.601,-3.601,-3.601,-3.601,-3.601,-3.601,-3.601,-3.5999,-3.5986,-3.5996,-3.5976,-3.5976,-3.5957,-3.5937,-3.5957,-3.5996,-3.5859,-3.5566,-3.5391,-3.5117,-3.4844,-3.4297,-3.3574,-3.2519,-3.2564,-3.2232,-3.1371,-3.0772,-3.0733,-3.0675,-3.0636,-3.0617,-3.0617,-3.0617,-3.0636,-3.0849,-3.1043,-3.1932,-3.3189,-3.3839,-3.4313,-2.07,-2.0837,-2.1914,-2.2739,-2.3498,-2.4924,-2.557,-2.5577,-2.5569,-2.5569,-2.5569,-2.5569,-2.5557,-2.5557,-2.5576,-2.5576,-2.5615,-2.5639,-2.5703,-2.5862,-2.6046,-2.6484,-2.7187,-2.8104,-2.8859,-2.9599,-3.0243,-3.0792,-3.0795,-3.08,-3.0799,-3.0795,-3.0797,-3.0796,-3.0798,-3.08,-3.0801,-3.0801,-3.079,-3.0788,-3.0795,-3.08,-3.0801,-3.0801,-3.0793,-3.1077,-3.1192,-3.127,-3.1543,-3.1621,-3.1641,-3.2187,-3.3651,-3.3841,-3.4276,-3.5739,-3.5966,-3.601,-3.601,-3.601,-3.601,-3.601,-3.601,-3.601,-3.601,-3.601,-3.601,-3.601,-3.601,-3.601,-3.601,-3.601,-3.601,-3.601,-3.601,-3.601,-3.6013,-3.5999,-3.5999,-3.6001,-3.6001,-3.5986,-3.597,-3.5937,-3.5918,-3.5918,-3.5911,-3.5895,-3.589,-3.5927,-3.5664,-3.5332,-3.4863,-3.4531,-3.3561,-3.293,-3.2266,-3.165,-3.1856,-3.1816,-3.111,-3.0675,-3.0636,-3.0617,-3.0617,-3.0617,-3.0617,-3.0617,-3.0617,-3.0617,-3.083,-3.1719,-3.257,-3.3248,-3.4178,-2.0386,-2.0501,-2.1355,-2.2408,-2.3617,-2.4655,-2.5284,-2.5577,-2.5615,-2.5596,-2.5602,-2.5602,-2.5608,-2.5619,-2.5604,-2.5617,-2.5648,-2.5673,-2.5698,-2.5696,-2.5701,-2.5994,-2.6694,-2.7656,-2.8476,-2.9296,-3.0097,-3.08,-3.0801,-3.0799,-3.079,-3.0784,-3.0801,-3.0801,-3.0784,-3.0788,-3.079,-3.0788,-3.0799,-3.0791,-3.0801,-3.0793,-3.0797,-3.08,-3.0797,-3.0786,-3.0801,-3.0801,-3.0919,-3.1328,-3.1504,-3.2246,-3.3495,-3.3743,-3.4394,-3.5701,-3.5966,-3.5994,-3.601,-3.601,-3.601,-3.601,-3.601,-3.601,-3.601,-3.601,-3.601,-3.601,-3.601,-3.601,-3.601,-3.601,-3.601,-3.601,-3.601,-3.601,-3.5996,-3.5984,-3.5987,-3.5991,-3.5973,-3.5956,-3.5937,-3.5886,-3.5845,-3.5857,-3.5842,-3.5838,-3.584,-3.5856,-3.5454,-3.4961,-3.4375,-3.3815,-3.2811,-3.2057,-3.179,-3.1588,-3.1704,-3.1506,-3.0839,-3.0617,-3.0617,-3.0617,-3.0617,-3.0617,-3.0617,-3.0617,-3.0617,-3.0617,-3.0694,-3.1333,-3.2126,-3.2871,-3.3925,-2.0413,-2.0491,-2.1362,-2.2666,-2.4172,-2.4385,-2.4936,-2.5644,-2.5629,-2.5609,-2.5609,-2.5609,-2.5649,-2.5662,-2.564,-2.5652,-2.5677,-2.5702,-2.5703,-2.5691,-2.5696,-2.5826,-2.6298,-2.73,-2.8065,-2.8807,-2.9647,-3.0545,-3.0758,-3.0792,-3.0784,-3.0801,-3.0801,-3.0801,-3.0801,-3.0796,-3.0796,-3.0788,-3.0786,-3.0779,-3.0793,-3.0798,-3.0799,-3.0786,-3.0801,-3.0786,-3.0784,-3.0921,-3.1172,-3.1955,-3.2617,-3.3046,-3.3545,-3.4134,-3.4979,-3.537,-3.5641,-3.5849,-3.5823,-3.5801,-3.5896,-3.5932,-3.601,-3.5996,-3.5999,-3.6013,-3.601,-3.601,-3.601,-3.601,-3.601,-3.5982,-3.5966,-3.597,-3.5971,-3.5973,-3.5956,-3.5937,-3.5937,-3.5935,-3.5895,-3.5891,-3.5893,-3.5841,-3.58,-3.5795,-3.5783,-3.5785,-3.5533,-3.5553,-3.5042,-3.4477,-3.4018,-3.3345,-3.2428,-3.182,-3.1718,-3.1632,-3.1574,-3.1332,-3.0752,-3.0617,-3.0617,-3.0617,-3.0617,-3.0617,-3.0617,-3.0617,-3.0617,-3.0617,-3.0733,-3.1023,-3.1661,-3.2416,-3.3509,-2.054,-2.0618,-2.1483,-2.25,-2.3508,-2.4148,-2.4871,-2.568,-2.5699,-2.5664,-2.5664,-2.5664,-2.5684,-2.5684,-2.5684,-2.5684,-2.5681,-2.5699,-2.5694,-2.5691,-2.5687,-2.5687,-2.5883,-2.6885,-2.7647,-2.8465,-2.9324,-3.0263,-3.0691,-3.0784,-3.0801,-3.0801,-3.0801,-3.0801,-3.0799,-3.0794,-3.0801,-3.079,-3.076,-3.0728,-3.0739,-3.0735,-3.0724,-3.0749,-3.0757,-3.078,-3.0796,-3.0829,-3.0912,-3.1246,-3.196,-3.2613,-3.3316,-3.4137,-3.4615,-3.4875,-3.4998,-3.5234,-3.5388,-3.5306,-3.5259,-3.5723,-3.5882,-3.5929,-3.5968,-3.5999,-3.6013,-3.6013,-3.6016,-3.6016,-3.6001,-3.5951,-3.5917,-3.5918,-3.5918,-3.5916,-3.5914,-3.5908,-3.5896,-3.5868,-3.5825,-3.5825,-3.5811,-3.5801,-3.576,-3.5737,-3.5736,-3.556,-3.4971,-3.4729,-3.4242,-3.3751,-3.3608,-3.2962,-3.2003,-3.146,-3.1322,-3.1168,-3.1033,-3.0839,-3.0636,-3.0617,-3.0617,-3.0617,-3.0617,-3.0617,-3.0617,-3.0617,-3.0617,-3.0617,-3.0675,-3.0888,-3.1236,-3.1913,-3.3054,-2.0593,-2.0672,-2.1128,-2.1835,-2.2674,-2.3511,-2.4344,-2.5019,-2.5137,-2.5332,-2.5664,-2.5703,-2.5684,-2.5684,-2.5703,-2.5701,-2.5693,-2.5689,-2.5689,-2.5689,-2.5687,-2.5687,-2.6058,-2.6548,-2.7095,-2.7915,-2.9084,-3.0003,-3.0606,-3.0801,-3.0801,-3.0801,-3.0801,-3.0799,-3.0799,-3.0788,-3.079,-3.0782,-3.072,-3.0697,-3.0716,-3.0735,-3.0751,-3.0755,-3.0776,-3.0801,-3.08,-3.0834,-3.1069,-3.1307,-3.195,-3.2539,-3.3039,-3.3307,-3.3643,-3.3906,-3.41,-3.4274,-3.4491,-3.4512,-3.4372,-3.4819,-3.5311,-3.5194,-3.541,-3.5487,-3.5937,-3.5957,-3.5957,-3.5957,-3.5937,-3.5915,-3.5894,-3.5911,-3.5908,-3.5901,-3.5896,-3.5884,-3.586,-3.5833,-3.5801,-3.5749,-3.5757,-3.5754,-3.5689,-3.5553,-3.5579,-3.5085,-3.4524,-3.3866,-3.3383,-3.2957,-3.2774,-3.2251,-3.1312,-3.0924,-3.0829,-3.0675,-3.0617,-3.0617,-3.0617,-3.0617,-3.0617,-3.0617,-3.0617,-3.0617,-3.0617,-3.0617,-3.0617,-3.0617,-3.0656,-3.0733,-3.1081,-3.141,-3.2318,-2.0593,-2.0594,-2.0619,-2.1112,-2.1953,-2.2695,-2.3496,-2.418,-2.4258,-2.4727,-2.541,-2.5449,-2.5566,-2.5684,-2.5698,-2.5698,-2.5696,-2.5689,-2.5687,-2.5687,-2.5687,-2.5687,-2.5941,-2.6373,-2.6802,-2.7522,-2.8615,-2.963,-3.047,-3.0509,-3.0528,-3.0723,-3.0799,-3.0799,-3.0794,-3.0801,-3.0802,-3.076,-3.0728,-3.0704,-3.0734,-3.075,-3.0774,-3.0786,-3.0781,-3.08,-3.0781,-3.0917,-3.1287,-3.1465,-3.1755,-3.2259,-3.2582,-3.267,-3.274,-3.3,-3.3134,-3.3295,-3.342,-3.3387,-3.3394,-3.3611,-3.4109,-3.448,-3.4703,-3.5109,-3.5564,-3.577,-3.577,-3.5916,-3.5896,-3.589,-3.589,-3.5884,-3.5877,-3.5864,-3.5851,-3.5836,-3.5811,-3.5776,-3.5747,-3.5717,-3.5708,-3.5706,-3.554,-3.5394,-3.5027,-3.4505,-3.3924,-3.3189,-3.257,-3.2126,-3.1787,-3.1187,-3.0636,-3.0617,-3.0617,-3.0617,-3.0617,-3.0617,-3.0617,-3.0617,-3.0617,-3.0617,-3.0617,-3.0617,-3.0617,-3.0617,-3.0617,-3.0617,-3.0636,-3.0646,-3.0607,-3.0963,-3.1485,-2.0593,-2.0594,-2.0599,-2.1092,-2.1855,-2.209,-2.2637,-2.3359,-2.3437,-2.3906,-2.4551,-2.4746,-2.498,-2.5703,-2.5703,-2.5702,-2.5694,-2.5689,-2.5687,-2.5687,-2.5687,-2.5687,-2.5765,-2.6039,-2.6412,-2.7192,-2.8069,-2.8928,-2.9689,-2.9845,-3.0138,-3.0567,-3.0723,-3.0757,-3.0762,-3.0767,-3.0765,-3.0739,-3.071,-3.0704,-3.0697,-3.0716,-3.072,-3.0711,-3.0712,-3.0755,-3.0765,-3.079,-3.0858,-3.0938,-3.109,-3.1588,-3.19,-3.2062,-3.2104,-3.2102,-3.224,-3.2513,-3.2623,-3.2462,-3.25,-3.2936,-3.3392,-3.3617,-3.3971,-3.4503,-3.4905,-3.5215,-3.5363,-3.5818,-3.59,-3.5895,-3.5885,-3.5864,-3.5846,-3.5787,-3.5749,-3.5752,-3.5737,-3.5746,-3.5716,-3.5707,-3.5707,-3.5549,-3.5231,-3.4949,-3.4447,-3.3866,-3.2841,-3.2261,-3.1787,-3.1429,-3.1023,-3.083,-3.0617,-3.0617,-3.0617,-3.0617,-3.0617,-3.0617,-3.0617,-3.0617,-3.0617,-3.0617,-3.0617,-3.0617,-3.0617,-3.0617,-3.0617,-3.0617,-3.0617,-3.0579,-3.046,-3.0521,-3.1049]}]]